[[{"header":{"parameterUnit":"m.s-1","parameterCategory":1,"la1":30.6,"la2":28.766,"lo1":-90.7593,"lo2":-88.6598,"dy":0.0162,"dx":0.0183,"nx":116,"ny":114,"refTime":"2023-11-18T18:00:00:Z","depth":0,"parameterNumber":2,"parameterNumberName":"U-component_of_WINDS"},"data":[0.0,0.0,0.0,0.0,0.0,0.0,0.0,0.0,0.0,0.0,0.0,0.0,0.0,0.0,0.0,0.0,0.0,0.0,0.0,0.0,0.0,0.0,0.0,0.0,0.0,0.0,0.0,0.0,0.0,0.0,0.0,0.0,0.0,0.0,0.0,0.0,0.0,0.0,0.0,0.0,0.0,0.0,0.0,0.0,0.0,0.0,0.0,0.0,0.0,0.0,0.0,0.0,0.0,0.0,0.0,0.0,0.0,0.0,0.0,0.0,0.0,0.0,0.0,0.0,0.0,0.0,0.0,0.0,0.0,0.0,0.0,0.0,0.0,0.0,0.0,0.0,0.0,0.0,0.0,0.0,0.0,0.0,0.0,0.0,0.0,0.0,0.0,0.0,0.0,0.0,0.0,0.0,0.0,0.0,0.0,0.0,0.0,0.0,0.0,0.0,0.0,0.0,0.0,0.0,0.0,0.0,0.0,0.0,0.0,0.0,0.0,0.0,0.0,0.0,0.0,0.0,0.0,0.0,0.0,0.0,0.0,0.0,0.0,0.0,0.0,0.0,0.0,0.0,0.0,0.0,0.0,0.0,0.0,0.0,0.0,0.0,0.0,0.0,0.0,0.0,0.0,0.0,0.0,0.0,0.0,0.0,0.0,0.0,0.0,0.0,0.0,0.0,0.0,0.0,0.0,0.0,0.0,0.0,0.0,0.0,0.0,0.0,0.0,0.0,0.0,0.0,0.0,0.0,0.0,0.0,0.0,0.0,0.0,0.0,0.0,0.0,0.0,0.0,0.0,0.0,0.0,0.0,0.0,0.0,0.0,0.0,0.0,0.0,0.0,0.0,0.0,0.0,0.0,0.0,0.0,0.0,0.0,0.0,0.0,0.0,0.0,0.0,0.0,0.0,0.0,0.0,0.0,0.0,0.0,0.0,0.0,0.0,0.0,0.0,0.0,0.0,0.0,0.0,0.0,0.0,0.0,0.0,0.0,0.0,0.0,0.0,0.0,0.0,0.0,0.0,0.0,0.0,0.0,0.0,0.0,0.0,0.0,0.0,0.0,0.0,0.0,0.0,0.0,0.0,0.0,0.0,0.0,0.0,0.0,0.0,0.0,0.0,0.0,0.0,0.0,0.0,0.0,0.0,0.0,0.0,0.0,0.0,0.0,0.0,0.0,0.0,0.0,0.0,0.0,0.0,0.0,0.0,0.0,0.0,0.0,0.0,0.0,0.0,0.0,0.0,0.0,0.0,0.0,0.0,0.0,0.0,0.0,0.0,0.0,0.0,0.0,0.0,0.0,0.0,0.0,0.0,0.0,0.0,0.0,0.0,0.0,0.0,0.0,0.0,0.0,0.0,0.0,0.0,0.0,0.0,0.0,0.0,0.0,0.0,0.0,0.0,0.0,0.0,0.0,0.0,0.0,0.0,0.0,0.0,0.0,0.0,0.0,0.0,0.0,0.0,0.0,0.0,0.0,0.0,0.0,0.0,0.0,0.0,0.0,0.0,0.0,0.0,0.0,0.0,0.0,0.0,0.0,0.0,0.0,0.0,0.0,0.0,0.0,0.0,0.0,0.0,0.0,0.0,0.0,0.0,0.0,0.0,0.0,0.0,0.0,0.0,0.0,0.0,0.0,0.0,0.0,0.0,0.0,0.0,0.0,0.0,0.0,0.0,0.0,0.0,0.0,0.0,0.0,0.0,0.0,0.0,0.0,0.0,0.0,0.0,0.0,0.0,0.0,0.0,0.0,0.0,0.0,0.0,0.0,0.0,0.0,0.0,0.0,0.0,0.0,0.0,0.0,0.0,0.0,0.0,0.0,0.0,0.0,0.0,0.0,0.0,0.0,0.0,0.0,0.0,0.0,0.0,0.0,0.0,0.0,0.0,0.0,0.0,0.0,0.0,0.0,0.0,0.0,0.0,0.0,0.0,0.0,0.0,0.0,0.0,0.0,0.0,0.0,0.0,0.0,0.0,0.0,0.0,0.0,0.0,0.0,0.0,0.0,0.0,0.0,0.0,0.0,0.0,0.0,0.0,0.0,0.0,0.0,0.0,0.0,0.0,0.0,0.0,0.0,0.0,0.0,0.0,0.0,0.0,0.0,0.0,0.0,0.0,0.0,0.0,0.0,0.0,0.0,0.0,0.0,0.0,0.0,0.0,0.0,0.0,0.0,0.0,0.0,0.0,0.0,0.0,0.0,0.0,0.0,0.0,0.0,0.0,0.0,0.0,0.0,0.0,0.0,0.0,0.0,0.0,0.0,0.0,0.0,0.0,0.0,0.0,0.0,0.0,0.0,0.0,0.0,0.0,0.0,0.0,0.0,0.0,0.0,0.0,0.0,0.0,0.0,0.0,0.0,0.0,0.0,0.0,0.0,0.0,0.0,0.0,0.0,0.0,0.0,0.0,0.0,0.0,0.0,0.0,0.0,0.0,0.0,0.0,0.0,0.0,0.0,0.0,0.0,0.0,0.0,0.0,0.0,0.0,0.0,0.0,0.0,0.0,0.0,0.0,0.0,0.0,0.0,0.0,0.0,0.0,0.0,0.0,0.0,0.0,0.0,0.0,0.0,0.0,0.0,0.0,0.0,0.0,0.0,0.0,0.0,0.0,0.0,0.0,0.0,0.0,0.0,0.0,0.0,0.0,0.0,0.0,0.0,0.0,0.0,0.0,0.0,0.0,0.0,0.0,0.0,0.0,0.0,0.0,0.0,0.0,0.0,0.0,0.0,0.0,0.0,0.0,0.0,0.0,0.0,0.0,0.0,0.0,0.0,0.0,0.0,0.0,0.0,0.0,0.0,0.0,0.0,0.0,0.0,0.0,0.0,0.0,0.0,0.0,0.0,0.0,0.0,0.0,0.0,0.0,0.0,0.0,0.0,0.0,0.0,0.0,0.0,0.0,0.0,0.0,0.0,0.0,0.0,0.0,0.0,0.0,0.0,0.0,0.0,0.0,0.0,0.0,0.0,0.0,0.0,0.0,0.0,0.0,0.0,0.0,0.0,0.0,0.0,0.0,0.0,0.0,0.0,0.0,0.0,0.0,0.0,0.0,0.0,0.0,0.0,0.0,0.0,0.0,0.0,0.0,0.0,0.0,0.0,0.0,0.0,0.0,0.0,0.0,0.0,0.0,0.0,0.0,0.0,0.0,0.0,0.0,0.0,0.0,0.0,0.0,0.0,0.0,0.0,0.0,0.0,0.0,0.0,0.0,0.0,0.0,0.0,0.0,0.0,0.0,0.0,0.0,0.0,0.0,0.0,0.0,0.0,0.0,0.0,0.0,0.0,0.0,0.0,0.0,0.0,0.0,0.0,0.0,0.0,0.0,0.0,0.0,0.0,0.0,0.0,0.0,0.0,0.0,0.0,0.0,0.0,0.0,0.0,0.0,0.0,0.0,0.0,0.0,0.0,0.0,0.0,0.0,0.0,0.0,0.0,0.0,0.0,0.0,0.0,0.0,0.0,0.0,0.0,0.0,0.0,0.0,0.0,0.0,0.0,0.0,0.0,0.0,0.0,0.0,0.0,0.0,0.0,0.0,0.0,0.0,0.0,0.0,0.0,0.0,0.0,0.0,0.0,0.0,0.0,0.0,0.0,0.0,0.0,0.0,0.0,0.0,0.0,0.0,0.0,0.0,0.0,0.0,0.0,0.0,0.0,0.0,0.0,0.0,0.0,0.0,0.0,0.0,0.0,0.0,0.0,0.0,0.0,0.0,0.0,0.0,0.0,0.0,0.0,0.0,0.0,0.0,0.0,0.0,0.0,0.0,0.0,0.0,0.0,0.0,0.0,0.0,0.0,0.0,0.0,0.0,0.0,0.0,0.0,0.0,0.0,0.0,0.0,0.0,0.0,0.0,0.0,0.0,0.0,0.0,0.0,0.0,0.0,0.0,0.0,0.0,0.0,0.0,0.0,0.0,0.0,0.0,0.0,0.0,0.0,0.0,0.0,0.0,0.0,0.0,0.0,0.0,0.0,0.0,0.0,0.0,0.0,0.0,0.0,0.0,0.0,0.0,0.0,0.0,0.0,0.0,0.0,0.0,0.0,0.0,0.0,0.0,0.0,0.0,0.0,0.0,0.0,0.0,0.0,0.0,0.0,0.0,0.0,0.0,0.0,0.0,0.0,0.0,0.0,0.0,0.0,0.0,0.0,0.0,0.0,0.0,0.0,0.0,0.0,0.0,0.0,0.0,0.0,0.0,0.0,0.0,0.0,0.0,0.0,0.0,0.0,0.0,0.0,0.0,0.0,0.0,0.0,0.0,0.0,0.0,0.0,0.0,0.0,0.0,0.0,0.0,0.0,0.0,0.0,0.0,0.0,0.0,0.0,0.0,0.0,0.0,0.0,0.0,0.0,0.0,0.0,0.0,0.0,0.0,0.0,0.0,0.0,0.0,0.0,0.0,0.0,0.0,0.0,0.0,0.0,0.0,0.0,0.0,0.0,0.0,0.0,0.0,0.0,0.0,0.0,0.0,0.0,0.0,0.0,0.0,0.0,0.0,0.0,0.0,0.0,0.0,0.0,0.0,0.0,0.0,0.0,0.0,0.0,0.0,0.0,0.0,0.0,0.0,0.0,0.0,0.0,0.0,0.0,0.0,0.0,0.0,0.0,0.0,0.0,0.0,0.0,0.0,0.0,0.0,0.0,0.0,0.0,0.0,0.0,0.0,0.0,0.0,0.0,0.0,0.0,0.0,0.0,0.0,0.0,0.0,0.0,0.0,0.0,0.0,0.0,0.0,0.0,0.0,0.0,0.0,0.0,0.0,0.0,0.0,0.0,0.0,0.0,0.0,0.0,0.0,0.0,0.0,0.0,0.0,0.0,0.0,0.0,0.0,0.0,0.0,0.0,0.0,0.0,0.0,0.0,0.0,0.0,0.0,0.0,0.0,0.0,0.0,0.0,0.0,0.0,0.0,0.0,0.0,0.0,0.0,0.0,0.0,0.0,0.0,0.0,0.0,0.0,0.0,0.0,0.0,0.0,0.0,0.0,0.0,0.0,0.0,0.0,0.0,0.0,0.0,0.0,0.0,0.0,0.0,0.0,0.0,0.0,0.0,0.0,0.0,0.0,0.0,0.0,0.0,0.0,0.0,0.0,0.0,0.0,0.0,0.0,0.0,0.0,0.0,0.0,0.0,0.0,0.0,0.0,0.0,0.0,0.0,0.0,0.0,0.0,0.0,0.0,0.0,0.0,0.0,0.0,0.0,0.0,0.0,0.0,0.0,0.0,0.0,0.0,0.0,0.0,0.0,0.0,0.0,0.0,0.0,0.0,0.0,0.0,0.0,0.0,0.0,0.0,0.0,0.0,0.0,0.0,0.0,0.0,0.0,0.0,0.0,0.0,0.0,0.0,0.0,0.0,0.0,0.0,0.0,0.0,0.0,0.0,0.0,0.0,0.0,0.0,0.0,0.0,0.0,0.0,0.0,0.0,0.0,0.0,0.0,0.0,0.0,0.0,0.0,0.0,0.0,0.0,0.0,0.0,0.0,0.0,0.0,0.0,0.0,0.0,0.0,0.0,0.0,0.0,0.0,0.0,0.0,0.0,0.0,0.0,0.0,0.0,0.0,0.0,0.0,0.0,0.0,0.0,0.0,0.0,0.0,0.0,0.0,0.0,0.0,0.0,0.0,0.0,0.0,0.0,0.0,0.0,0.0,0.0,0.0,0.0,0.0,0.0,0.0,0.0,0.0,0.0,0.0,0.0,0.0,0.0,0.0,0.0,0.0,0.0,0.0,0.0,0.0,0.0,0.0,0.0,0.0,0.0,0.0,0.0,0.0,0.0,0.0,0.0,0.0,0.0,0.0,0.0,0.0,0.0,0.0,0.0,0.0,0.0,0.0,0.0,0.0,0.0,0.0,0.0,0.0,0.0,0.0,0.0,0.0,0.0,0.0,0.0,0.0,0.0,0.0,0.0,0.0,0.0,0.0,0.0,0.0,0.0,0.0,0.0,0.0,0.0,0.0,0.0,0.0,0.0,0.0,0.0,0.0,0.0,0.0,0.0,0.0,0.0,0.0,0.0,0.0,0.0,0.0,0.0,0.0,0.0,0.0,0.0,0.0,0.0,0.0,0.0,0.0,0.0,0.0,0.0,0.0,3.9032,0.0,0.0,0.0,0.0,0.0,0.0,0.0,0.0,0.0,0.0,0.0,0.0,0.0,0.0,0.0,0.0,0.0,0.0,0.0,0.0,0.0,0.0,0.0,0.0,0.0,0.0,0.0,0.0,0.0,0.0,0.0,0.0,0.0,0.0,0.0,0.0,0.0,0.0,0.0,0.0,0.0,0.0,0.0,0.0,0.0,0.0,0.0,0.0,0.0,0.0,0.0,0.0,0.0,0.0,0.0,0.0,0.0,0.0,0.0,0.0,0.0,0.0,0.0,0.0,0.0,0.0,0.0,0.0,0.0,0.0,0.0,0.0,0.0,0.0,0.0,0.0,0.0,0.0,0.0,0.0,0.0,0.0,0.0,0.0,0.0,0.0,0.0,0.0,0.0,0.0,0.0,0.0,0.0,0.0,0.0,0.0,0.0,0.0,0.0,0.0,0.0,0.0,0.0,0.0,0.0,0.0,0.0,0.0,0.0,0.0,0.0,0.0,0.0,0.0,0.0,0.0,4.0321,0.0,0.0,0.0,0.0,0.0,0.0,0.0,0.0,0.0,0.0,0.0,0.0,0.0,0.0,0.0,0.0,0.0,0.0,0.0,0.0,0.0,0.0,0.0,0.0,0.0,0.0,0.0,2.5525,2.5538,2.555,2.5601,2.5601,2.5601,2.5651,0.0,0.0,0.0,0.0,0.0,0.0,0.0,0.0,0.0,0.0,0.0,0.0,0.0,0.0,0.0,0.0,0.0,0.0,0.0,0.0,0.0,0.0,0.0,0.0,0.0,0.0,0.0,0.0,0.0,0.0,0.0,0.0,0.0,0.0,0.0,0.0,0.0,0.0,0.0,0.0,0.0,0.0,0.0,0.0,0.0,0.0,0.0,0.0,0.0,0.0,0.0,0.0,0.0,0.0,0.0,0.0,0.0,0.0,0.0,0.0,0.0,0.0,0.0,0.0,0.0,0.0,0.0,0.0,0.0,0.0,0.0,0.0,0.0,0.0,4.2929,4.313,4.3278,4.3278,4.3866,4.4783,4.3725,4.3579,4.3938,0.0,0.0,0.0,0.0,0.0,0.0,0.0,0.0,0.0,0.0,0.0,0.0,0.0,0.0,0.0,0.0,0.0,0.0,0.0,0.0,0.0,0.0,2.5498,2.5505,2.5522,2.555,2.5577,2.5577,2.5595,2.5601,2.5601,2.5601,2.5951,2.6695,0.0,0.0,0.0,0.0,0.0,0.0,0.0,0.0,0.0,0.0,0.0,0.0,0.0,0.0,0.0,0.0,0.0,0.0,0.0,0.0,0.0,0.0,0.0,0.0,0.0,0.0,0.0,0.0,0.0,0.0,0.0,0.0,0.0,0.0,0.0,0.0,0.0,0.0,0.0,0.0,0.0,0.0,0.0,0.0,0.0,0.0,0.0,0.0,0.0,0.0,0.0,0.0,0.0,3.711,3.7125,0.0,0.0,0.0,0.0,0.0,0.0,0.0,0.0,0.0,0.0,0.0,0.0,0.0,0.0,4.2202,4.3239,4.4148,4.4889,4.5968,4.6801,4.7494,4.7494,4.7606,4.7754,4.7571,0.0,4.409,4.3652,0.0,0.0,0.0,0.0,0.0,0.0,0.0,0.0,0.0,0.0,0.0,0.0,0.0,0.0,0.0,0.0,0.0,0.0,0.0,0.0,0.0,2.661,2.733,2.7355,2.8505,2.8734,2.7488,2.7422,2.7108,2.6327,2.6294,2.674,2.7607,0.0,0.0,0.0,0.0,0.0,0.0,0.0,0.0,0.0,0.0,0.0,0.0,0.0,0.0,0.0,0.0,0.0,0.0,0.0,0.0,0.0,0.0,0.0,0.0,0.0,0.0,0.0,0.0,0.0,0.0,0.0,0.0,0.0,0.0,0.0,0.0,0.0,0.0,0.0,0.0,0.0,0.0,0.0,0.0,0.0,0.0,0.0,0.0,0.0,0.0,0.0,0.0,3.5661,3.6633,3.7509,3.6752,3.6382,0.0,0.0,0.0,0.0,0.0,0.0,0.0,0.0,0.0,4.3907,4.436,4.5197,4.6345,4.6884,4.763,4.8679,4.9228,4.964,4.9972,4.9972,4.9896,4.9701,4.9701,4.9038,4.7752,4.6569,4.619,4.6261,0.0,0.0,0.0,0.0,0.0,4.6699,0.0,0.0,0.0,0.0,0.0,0.0,0.0,0.0,0.0,0.0,0.0,0.0,2.6333,2.8296,2.9641,2.9636,3.1166,3.1252,2.9257,2.9168,2.8587,2.7207,2.7188,2.7634,2.8507,0.0,0.0,0.0,0.0,0.0,0.0,0.0,0.0,0.0,0.0,0.0,0.0,0.0,0.0,0.0,0.0,0.0,0.0,0.0,0.0,0.0,0.0,0.0,0.0,0.0,0.0,0.0,0.0,0.0,0.0,0.0,0.0,0.0,0.0,0.0,0.0,0.0,0.0,0.0,0.0,0.0,0.0,0.0,0.0,0.0,0.0,0.0,0.0,0.0,0.0,0.0,0.0,3.6444,3.7431,3.8571,3.8474,3.8344,0.0,0.0,0.0,0.0,0.0,0.0,4.3278,4.4098,4.5193,4.6501,4.7286,4.8505,5.0157,5.0157,5.0602,5.1446,5.1446,5.1487,5.1639,5.1639,5.1526,5.1389,5.1206,5.1206,5.1246,4.9288,4.8783,4.9219,4.8273,4.7987,4.8159,4.8338,4.8593,4.9057,0.0,0.0,0.0,0.0,0.0,0.0,0.0,0.0,0.0,0.0,0.0,2.8621,2.8618,3.0606,3.1927,3.192,3.2027,3.1497,3.0151,3.0037,2.9445,2.8074,2.8042,2.8437,2.9331,0.0,0.0,0.0,0.0,0.0,0.0,0.0,0.0,0.0,0.0,0.0,0.0,0.0,0.0,0.0,0.0,0.0,0.0,0.0,0.0,0.0,0.0,0.0,0.0,0.0,0.0,0.0,0.0,0.0,0.0,0.0,0.0,0.0,0.0,0.0,0.0,0.0,0.0,0.0,0.0,0.0,0.0,0.0,0.0,0.0,0.0,0.0,0.0,0.0,0.0,0.0,0.0,0.0,0.0,4.0936,4.2109,0.0,0.0,0.0,0.0,4.3183,4.3367,4.4265,4.6202,4.7065,4.8247,4.9815,5.0635,5.1258,5.1705,5.1705,5.1705,5.1743,5.1743,5.2027,5.2419,5.2419,5.2673,5.3041,5.227,5.238,5.2968,5.132,5.045,5.0124,5.0071,4.9877,4.9679,5.0303,5.0747,5.1162,0.0,0.0,0.0,0.0,0.0,0.0,0.0,0.0,0.0,2.5492,2.742,2.8818,2.8799,3.2056,3.4211,3.4229,3.5551,3.5553,3.3631,3.271,3.1637,3.0276,2.9419,3.0731,3.4546,0.0,4.1149,0.0,0.0,0.0,0.0,0.0,0.0,0.0,0.0,0.0,0.0,0.0,0.0,0.0,0.0,0.0,0.0,0.0,0.0,0.0,0.0,0.0,0.0,0.0,0.0,0.0,0.0,0.0,0.0,0.0,0.0,0.0,0.0,0.0,0.0,0.0,0.0,0.0,0.0,0.0,0.0,0.0,0.0,0.0,0.0,0.0,0.0,0.0,0.0,0.0,0.0,0.0,0.0,4.2101,4.325,0.0,4.333,4.3837,4.4834,4.6353,4.7287,4.8302,4.9511,5.0076,5.0622,5.1199,5.2023,5.2765,5.3391,5.3988,5.4613,5.5334,5.5334,5.5422,5.5588,5.5588,5.5573,5.551,5.5212,5.5249,5.5473,5.4914,5.3757,5.2485,5.2752,5.2891,5.301,5.3232,5.3556,5.3934,0.0,0.0,0.0,0.0,0.0,0.0,0.0,0.0,0.0,2.6165,2.8389,3.0075,3.0547,3.4165,3.6509,3.6535,3.7863,3.7681,3.5296,3.4336,3.3032,3.124,3.1004,3.3307,3.8454,4.0175,0.0,0.0,0.0,0.0,0.0,0.0,0.0,0.0,0.0,0.0,0.0,0.0,0.0,0.0,0.0,0.0,3.6794,0.0,0.0,0.0,0.0,0.0,0.0,0.0,0.0,0.0,0.0,0.0,0.0,0.0,0.0,0.0,0.0,0.0,0.0,0.0,0.0,0.0,0.0,0.0,0.0,0.0,0.0,0.0,0.0,0.0,0.0,0.0,0.0,0.0,0.0,0.0,4.3697,4.3288,4.4952,4.5923,4.5404,4.6637,4.797,4.9152,5.0118,5.1031,5.1852,5.2357,5.2817,5.3245,5.4075,5.4856,5.5517,5.6084,5.6746,5.749,5.749,5.7582,5.7687,5.7687,5.7612,5.7417,5.7263,5.7041,5.6779,5.6778,5.5956,5.4727,5.5018,5.5191,5.5324,5.5548,5.5826,5.6071,0.0,0.0,0.0,0.0,0.0,0.0,0.0,2.5479,2.6004,2.7427,3.0225,3.2629,3.4068,3.69,3.8689,3.8689,3.8689,3.7599,3.4944,3.4737,3.3525,3.0901,3.2926,3.6192,4.0626,0.0,0.0,0.0,0.0,0.0,0.0,0.0,0.0,0.0,0.0,0.0,0.0,0.0,0.0,0.0,0.0,0.0,4.1265,0.0,0.0,0.0,0.0,0.0,0.0,0.0,0.0,0.0,0.0,0.0,0.0,0.0,0.0,0.0,0.0,0.0,0.0,0.0,0.0,0.0,0.0,0.0,0.0,0.0,0.0,0.0,0.0,0.0,0.0,0.0,0.0,0.0,4.3388,4.4326,4.5,4.463,4.7452,4.916,4.839,5.047,5.172,5.1414,5.1728,5.2296,5.3193,5.395,5.4942,5.6118,5.6922,5.7528,5.7925,5.7963,5.7963,5.7963,5.7963,5.8178,5.8559,5.8559,5.8606,5.8632,5.8241,5.7637,5.6882,5.6855,5.681,5.6774,5.681,5.6593,5.6329,5.7045,5.7301,5.74,0.0,0.0,0.0,0.0,0.0,0.0,0.0,2.5518,2.6226,2.821,3.0602,3.284,3.4842,3.7223,3.8689,3.8689,3.8689,3.7968,3.6269,3.5241,3.4213,3.3082,3.6822,3.9664,4.1267,0.0,0.0,0.0,0.0,0.0,0.0,0.0,0.0,0.0,0.0,0.0,0.0,0.0,0.0,0.0,0.0,0.0,4.1566,0.0,0.0,0.0,0.0,0.0,0.0,0.0,0.0,0.0,0.0,0.0,0.0,0.0,0.0,0.0,0.0,0.0,0.0,0.0,0.0,0.0,0.0,0.0,0.0,0.0,0.0,0.0,0.0,0.0,0.0,0.0,0.0,4.6721,4.5546,4.7212,4.864,4.8867,5.0237,5.1155,5.1187,5.1893,5.2776,5.3773,5.4209,5.499,5.6116,5.6349,5.677,5.7395,5.8196,5.8644,5.8765,5.9415,5.972,5.972,5.972,5.9769,5.9874,5.9874,5.99,5.9906,5.9771,5.9596,5.9398,5.9399,5.9222,5.8845,5.7602,5.7245,5.7468,5.7682,5.7739,5.7739,0.0,0.0,0.0,0.0,0.0,0.0,0.0,2.5505,2.6513,2.9311,3.1092,3.3188,3.5975,3.7723,3.8689,3.8689,3.8177,3.7273,3.595,3.4908,3.5054,3.6519,3.951,4.1632,0.0,0.0,0.0,0.0,0.0,0.0,0.0,0.0,0.0,0.0,0.0,0.0,0.0,0.0,0.0,0.0,0.0,0.0,4.3666,4.2997,4.1455,3.9538,3.8869,3.843,3.7959,3.7055,0.0,0.0,0.0,0.0,0.0,0.0,0.0,0.0,0.0,0.0,0.0,0.0,0.0,0.0,0.0,0.0,0.0,0.0,0.0,0.0,0.0,0.0,0.0,0.0,4.7615,4.934,4.8805,5.0123,5.1368,5.1973,5.2815,5.3459,5.3859,5.4434,5.512,5.583,5.6254,5.696,5.8014,5.8052,5.8339,5.8918,5.9415,5.9644,5.9644,6.0141,6.0408,6.0408,6.0408,6.0408,6.0408,6.0408,6.0313,0.0,6.0313,6.0188,5.9906,6.0099,6.0,0.0,0.0,0.0,0.0,0.0,5.8956,5.8956,0.0,0.0,0.0,0.0,0.0,0.0,0.0,2.5498,2.6831,3.0529,3.1656,3.3507,3.7223,3.8261,3.8689,3.8689,3.7479,3.6143,3.4907,3.4704,3.6331,4.0113,4.1295,4.2791,0.0,0.0,0.0,0.0,0.0,0.0,0.0,0.0,0.0,0.0,0.0,0.0,0.0,0.0,0.0,0.0,0.0,0.0,4.65,4.5142,4.3628,4.2079,4.0701,3.9671,3.8871,3.8719,0.0,0.0,0.0,0.0,0.0,0.0,0.0,0.0,0.0,0.0,0.0,0.0,0.0,0.0,0.0,0.0,0.0,0.0,0.0,0.0,0.0,0.0,0.0,0.0,5.0302,5.2171,5.2579,5.3072,5.3569,5.4155,5.5007,5.5805,5.6261,5.7339,5.7863,5.7514,5.7873,5.847,5.9224,0.0,0.0,0.0,0.0,6.0408,6.0408,6.0436,6.0436,6.0436,6.0436,6.0436,6.0436,6.037,6.0226,5.9874,6.0256,5.9969,5.9361,5.9706,5.9874,5.9906,6.0285,6.0159,5.9906,6.0285,6.0408,6.0408,0.0,0.0,0.0,0.0,0.0,0.0,0.0,2.5499,2.7024,3.1321,3.1998,3.3749,3.801,3.8615,3.8689,3.8689,3.7414,3.6358,0.0,0.0,3.9425,4.0235,0.0,0.0,0.0,0.0,0.0,0.0,0.0,0.0,0.0,0.0,0.0,0.0,0.0,0.0,0.0,0.0,0.0,0.0,0.0,0.0,4.7532,4.7204,4.6478,4.554,4.5213,4.4603,4.3725,4.2481,4.2068,4.1827,4.0509,0.0,0.0,0.0,0.0,0.0,0.0,0.0,0.0,0.0,0.0,0.0,0.0,0.0,0.0,0.0,0.0,0.0,0.0,0.0,0.0,4.8857,5.2234,5.469,5.479,5.6026,5.6355,5.4914,5.6063,5.711,5.7537,5.809,5.8517,5.873,5.9193,5.965,6.0141,5.9832,0.0,6.037,6.0408,6.0408,6.0408,6.0425,6.0453,6.0453,0.0,0.0,6.0491,6.0398,6.0342,6.0285,6.0342,6.0313,6.0159,6.0256,6.0285,6.0285,6.0342,6.0342,6.0285,6.037,6.0408,6.0408,0.0,0.0,0.0,0.0,0.0,0.0,0.0,2.5492,2.6676,3.0017,3.0457,3.1709,3.5025,3.5752,3.6012,3.6012,3.6171,0.0,0.0,3.8915,4.0969,0.0,0.0,0.0,0.0,0.0,0.0,0.0,0.0,0.0,0.0,0.0,0.0,0.0,0.0,0.0,0.0,0.0,0.0,0.0,0.0,0.0,4.9633,4.8754,4.7914,4.7089,4.6653,4.6254,4.5719,4.4569,4.4166,4.4013,4.3209,4.2404,4.1494,0.0,0.0,0.0,0.0,0.0,0.0,0.0,0.0,0.0,0.0,0.0,0.0,0.0,0.0,4.4813,0.0,0.0,4.9948,5.2018,5.4053,5.5708,5.6601,5.776,5.8137,5.712,5.7701,5.8444,5.9109,5.9378,5.9578,5.9786,5.9989,6.0188,6.0464,6.0217,6.0188,6.037,6.0398,6.0464,6.0464,6.0545,6.0533,6.0533,6.0533,6.0506,6.0518,6.0491,6.0398,6.0408,6.0408,6.0436,6.0464,6.0464,6.0464,6.0464,6.0398,6.0408,6.0408,6.0408,6.0408,6.0408,0.0,0.0,0.0,0.0,0.0,0.0,0.0,0.0,2.6281,2.852,2.8785,2.9627,3.1867,3.2805,3.3241,3.3167,0.0,0.0,0.0,0.0,0.0,0.0,0.0,0.0,0.0,0.0,0.0,0.0,0.0,0.0,0.0,0.0,0.0,0.0,0.0,0.0,0.0,0.0,0.0,0.0,0.0,0.0,5.1658,4.9977,4.8793,4.793,4.7095,4.6658,4.6352,4.5566,4.5392,4.5528,4.5528,4.4798,4.3573,4.1639,4.1596,0.0,0.0,0.0,0.0,0.0,0.0,0.0,0.0,0.0,4.2815,4.4501,4.6069,4.7538,4.8958,5.0455,5.2348,5.5174,5.5925,5.6639,5.803,5.8896,5.9366,5.9366,5.9338,5.9644,6.036,6.0436,6.0464,6.0506,6.0491,6.0464,6.0518,6.0453,6.0398,6.0436,6.0453,6.0506,6.0506,6.0597,6.061,6.061,6.061,6.0585,6.0533,6.0545,6.048,6.0464,6.0617,6.072,6.0774,6.0939,6.0977,6.0977,6.0742,6.0637,6.0599,6.0446,6.0408,6.0408,0.0,0.0,0.0,0.0,0.0,0.0,0.0,0.0,0.0,2.852,2.8785,2.9627,3.1867,3.2805,3.3128,0.0,0.0,0.0,0.0,0.0,0.0,0.0,0.0,0.0,0.0,0.0,0.0,0.0,0.0,0.0,0.0,0.0,0.0,0.0,0.0,0.0,0.0,0.0,0.0,0.0,0.0,0.0,5.2461,5.0818,4.9648,4.8861,4.7976,4.7166,4.6352,4.5566,4.5757,4.6352,4.6352,4.6793,4.6679,4.3764,0.0,4.2349,3.9178,3.9692,4.1622,4.3458,4.3444,4.4037,0.0,0.0,4.7968,5.0358,5.1552,5.2449,5.336,5.4254,5.5211,5.6384,5.78,5.886,5.9102,5.9817,6.0365,6.0365,6.0311,6.0321,6.0453,6.0518,6.0545,6.0559,6.0559,6.0533,6.048,6.0533,6.0533,6.048,6.0533,6.0597,6.0597,6.0635,6.0685,6.0685,6.0685,6.0685,6.066,6.061,6.0559,6.0635,6.1402,6.1735,6.1812,6.2459,6.27,6.2661,6.1774,6.1478,6.1363,6.0637,6.0408,6.0408,0.0,0.0,0.0,0.0,0.0,0.0,0.0,0.0,0.0,0.0,2.6843,2.722,2.8088,2.941,0.0,0.0,0.0,0.0,3.7046,0.0,0.0,0.0,0.0,0.0,0.0,0.0,0.0,0.0,0.0,0.0,0.0,0.0,0.0,0.0,0.0,0.0,0.0,0.0,0.0,0.0,0.0,0.0,5.2016,5.1318,5.0517,4.951,4.7243,4.5887,0.0,0.0,4.4874,4.543,4.6822,4.6892,4.6031,4.3862,4.358,0.0,4.4035,4.3541,4.3582,0.0,4.6708,4.735,4.9417,4.9723,5.0144,5.211,5.3168,5.3989,5.481,5.5629,5.6663,0.0,5.8809,5.9473,6.0021,6.0355,6.0559,6.061,6.0533,6.0506,6.048,6.0545,6.0559,6.0635,6.061,6.0585,6.061,6.0623,6.0597,6.0533,6.061,6.0635,6.0635,6.071,6.0757,6.0757,6.1296,6.1502,6.1453,6.1927,6.2094,6.208,6.2478,6.2631,6.2669,6.2989,6.3142,6.3077,6.2585,6.2414,6.2261,6.0895,6.0408,6.0408,0.0,0.0,0.0,0.0,0.0,0.0,0.0,0.0,0.0,0.0,0.0,2.5553,2.573,0.0,0.0,0.0,0.0,0.0,0.0,4.0531,0.0,0.0,0.0,0.0,0.0,0.0,0.0,0.0,0.0,0.0,0.0,0.0,0.0,0.0,0.0,0.0,0.0,0.0,0.0,0.0,0.0,0.0,5.1228,5.1002,5.0087,4.8686,4.6618,4.5456,0.0,0.0,4.4072,4.4598,4.6367,4.6282,4.5239,4.3711,4.3402,4.4062,4.6172,0.0,0.0,4.7928,4.9444,5.0396,5.05,5.1114,5.2034,5.319,5.4073,5.4917,5.5738,5.6606,5.768,5.9089,5.9536,5.9906,6.0633,6.066,6.0635,6.0685,6.0635,6.0585,6.0559,6.0585,6.0635,6.071,6.066,6.066,6.0685,6.066,6.0635,6.061,6.0685,6.0825,6.1055,6.1142,6.1281,6.1512,6.2127,6.2411,6.2362,6.2977,6.3182,6.3194,6.3451,6.3591,6.3591,6.3835,6.3911,6.3873,6.3548,6.3378,6.3187,6.1677,6.1114,6.1096,0.0,0.0,0.0,0.0,0.0,0.0,0.0,0.0,0.0,0.0,0.0,0.0,0.0,0.0,0.0,0.0,0.0,0.0,0.0,3.9149,4.1681,4.4563,4.471,0.0,0.0,0.0,0.0,0.0,0.0,0.0,0.0,0.0,0.0,0.0,0.0,0.0,0.0,0.0,0.0,0.0,0.0,0.0,5.025,4.9449,4.7724,4.575,4.65,0.0,0.0,0.0,4.3782,4.4478,4.4592,4.5109,0.0,4.3841,4.2382,0.0,0.0,0.0,4.7422,4.8952,5.1146,5.2922,5.3003,5.3656,5.4331,5.4413,5.5088,5.5912,5.6713,5.7582,5.8427,5.9264,6.0109,6.0671,6.0781,6.0734,6.0685,6.0685,6.0685,6.0685,0.0,6.0685,6.071,6.0781,6.0819,6.0757,6.071,6.0757,6.0757,6.0685,6.0757,6.1204,6.205,6.205,6.2435,6.3243,6.3243,6.3281,6.3281,6.3281,6.332,6.3334,6.4205,6.4551,6.4628,6.5397,6.5717,6.564,6.4715,6.4342,6.4266,6.3345,6.2957,6.2815,0.0,0.0,0.0,0.0,0.0,0.0,0.0,0.0,0.0,0.0,0.0,0.0,0.0,0.0,0.0,0.0,0.0,0.0,0.0,3.8289,4.0725,4.1755,4.3637,4.4856,4.5113,4.592,0.0,0.0,0.0,0.0,0.0,0.0,0.0,0.0,0.0,0.0,0.0,0.0,0.0,0.0,0.0,0.0,4.9289,4.7417,4.6892,4.6844,0.0,0.0,0.0,0.0,4.2672,4.3249,4.4814,0.0,0.0,4.2337,4.2266,4.3193,4.527,0.0,4.9204,5.1327,5.2905,5.3964,5.4007,5.4682,5.5259,5.528,5.469,5.4431,5.5233,5.6072,5.6925,5.7791,5.9528,6.0757,6.0781,6.0757,6.0757,6.0757,6.0757,0.0,0.0,0.0,0.0,6.0781,6.0781,6.0781,6.0757,6.0781,6.105,6.1603,6.1666,6.205,6.2897,6.2897,6.3051,6.332,6.3897,6.4474,6.5013,6.5013,6.5013,6.5051,6.532,6.5474,6.5474,6.5756,6.5872,6.5808,6.5486,6.5344,6.5279,6.4907,6.4737,6.4527,0.0,0.0,0.0,0.0,0.0,0.0,0.0,0.0,0.0,0.0,0.0,0.0,0.0,0.0,0.0,0.0,0.0,0.0,0.0,0.0,3.8328,3.9073,4.0956,4.1987,4.1986,4.3058,4.3658,4.3658,0.0,0.0,0.0,0.0,0.0,0.0,0.0,0.0,0.0,0.0,0.0,0.0,0.0,0.0,4.6358,4.4789,4.4747,0.0,0.0,0.0,0.0,0.0,0.0,0.0,4.3242,4.3125,4.25,4.207,4.2929,4.456,4.7234,4.9149,5.0938,5.3025,5.4199,5.4891,5.4934,5.5318,5.5703,5.5703,5.4473,5.3659,5.4463,5.5055,5.5544,5.5821,5.7928,5.9507,5.9488,5.9793,6.0184,6.0727,6.0781,6.0781,0.0,0.0,0.0,6.0781,6.0781,6.0781,6.0781,6.1089,6.1512,6.2089,6.2358,6.2935,6.3782,6.3782,6.3935,6.4243,6.4782,6.5359,6.5897,6.5897,6.5897,6.5897,6.5897,6.5897,6.5897,6.5897,6.5897,6.5897,6.5846,6.582,6.582,6.5728,6.5728,6.5509,0.0,0.0,0.0,0.0,0.0,0.0,0.0,0.0,0.0,0.0,0.0,0.0,0.0,0.0,0.0,0.0,0.0,0.0,0.0,0.0,0.0,3.677,3.7009,3.7106,3.7083,3.8646,3.9467,3.9467,4.234,0.0,0.0,0.0,0.0,0.0,0.0,0.0,0.0,0.0,0.0,0.0,0.0,0.0,4.1901,4.1781,0.0,0.0,0.0,0.0,0.0,0.0,0.0,0.0,0.0,4.0703,4.1641,4.3203,4.4334,4.5737,4.8789,5.0905,5.2581,5.4084,5.5066,5.5703,5.5703,5.5703,5.5665,5.5609,5.4349,5.3482,0.0,0.0,5.4322,5.3688,5.5714,5.7366,5.7396,5.8105,5.9166,0.0,0.0,0.0,0.0,0.0,0.0,6.0781,0.0,6.0819,6.0858,6.1627,6.2127,6.2204,6.2974,6.3782,6.4666,6.4666,6.5089,6.5897,6.5897,6.5897,6.5897,6.5897,6.5897,6.5897,6.5897,6.5897,6.5897,6.5897,6.5897,6.5974,6.5974,6.5974,6.6013,6.6013,6.6013,6.5987,0.0,0.0,0.0,0.0,0.0,0.0,0.0,0.0,0.0,0.0,0.0,0.0,0.0,0.0,0.0,0.0,0.0,0.0,0.0,0.0,0.0,0.0,0.0,0.0,0.0,0.0,0.0,0.0,0.0,3.9815,3.9853,0.0,0.0,0.0,0.0,0.0,0.0,0.0,0.0,0.0,0.0,0.0,4.1722,0.0,0.0,0.0,0.0,0.0,0.0,0.0,0.0,0.0,0.0,4.4414,4.4804,4.5852,4.7223,4.8817,5.0873,5.2658,5.4122,5.5105,5.5549,5.5703,5.5703,5.5703,5.5381,5.422,5.2706,5.1511,0.0,0.0,0.0,5.4406,5.7517,0.0,5.9863,6.0075,0.0,6.0766,0.0,6.0781,6.0781,6.0781,0.0,0.0,6.0781,6.1089,6.1704,6.1973,6.2666,6.3935,6.4166,6.4705,6.5551,6.5551,6.5667,6.5897,6.5897,6.5897,6.5897,6.5897,6.5897,6.5897,6.5897,6.5897,6.5897,6.5897,6.6244,6.6782,6.6782,6.7205,6.7782,6.7782,6.7782,6.7782,0.0,0.0,0.0,0.0,0.0,0.0,0.0,0.0,0.0,0.0,0.0,0.0,0.0,0.0,0.0,0.0,0.0,0.0,0.0,0.0,0.0,0.0,0.0,0.0,0.0,0.0,0.0,0.0,0.0,0.0,0.0,0.0,0.0,0.0,0.0,0.0,0.0,0.0,0.0,0.0,0.0,0.0,0.0,0.0,0.0,0.0,0.0,0.0,0.0,0.0,0.0,4.3497,4.5218,4.6017,4.662,4.7844,0.0,5.1058,5.2735,5.4084,5.5143,5.5588,5.5703,5.5514,5.4844,5.4689,5.4259,5.2654,5.1083,0.0,0.0,0.0,0.0,0.0,0.0,0.0,5.922,5.9534,6.0015,0.0,6.0781,0.0,6.0781,6.0781,6.0973,0.0,6.1358,6.1589,6.205,6.2781,6.3628,6.4589,6.4974,6.5397,6.5897,6.5897,6.5897,6.5897,6.5897,6.5897,6.5897,6.5897,6.5897,6.5897,0.0,6.6436,6.6436,6.6821,6.7244,6.7667,6.7667,6.7975,6.8398,6.8398,6.8398,6.8398,0.0,0.0,0.0,0.0,0.0,0.0,0.0,0.0,0.0,0.0,0.0,0.0,0.0,0.0,0.0,0.0,0.0,0.0,0.0,0.0,0.0,0.0,0.0,0.0,0.0,0.0,0.0,0.0,0.0,0.0,0.0,0.0,0.0,0.0,0.0,0.0,0.0,0.0,0.0,0.0,0.0,0.0,0.0,0.0,0.0,0.0,0.0,0.0,0.0,0.0,4.5268,4.5011,4.6069,4.7023,4.8044,4.9603,5.118,5.2773,5.4237,5.5143,5.5703,5.5703,5.5703,5.5324,5.3746,5.3406,5.2898,5.1044,0.0,4.885,4.9622,5.1083,5.2095,5.1872,0.0,5.7456,5.7643,5.8278,5.9237,6.0635,6.0781,6.0781,6.0781,6.0896,6.1281,6.205,6.232,6.2435,6.2435,6.382,6.4666,6.4782,6.5513,6.5897,6.5897,6.5897,6.5897,6.5897,6.5897,6.5897,6.5897,6.6013,6.6051,6.609,0.0,0.0,6.7321,6.809,6.8475,6.859,6.859,6.8629,6.8744,6.8744,6.8744,6.8744,0.0,0.0,0.0,0.0,0.0,0.0,0.0,0.0,0.0,0.0,2.5313,0.0,0.0,0.0,0.0,0.0,0.0,0.0,0.0,0.0,0.0,0.0,0.0,0.0,0.0,0.0,0.0,0.0,0.0,0.0,0.0,0.0,0.0,0.0,0.0,0.0,0.0,0.0,0.0,0.0,0.0,0.0,0.0,0.0,0.0,0.0,0.0,0.0,0.0,0.0,4.551,4.6837,4.899,5.0297,5.1177,5.2197,5.3255,5.4276,5.5241,5.5588,5.5703,5.5703,5.5703,5.5324,5.3746,5.3406,0.0,0.0,4.8808,4.8666,4.8939,5.03,5.2246,5.483,0.0,0.0,0.0,0.0,6.0487,0.0,0.0,0.0,0.0,0.0,0.0,0.0,0.0,6.4166,6.4166,6.4436,6.4936,6.5628,6.582,6.5897,6.5897,6.5897,6.5897,6.5897,6.5897,6.5897,6.5897,6.659,6.6898,6.6936,6.7821,0.0,6.8205,6.8359,6.8821,6.9475,6.9475,6.9898,7.0475,7.0475,7.0475,7.0475,0.0,0.0,0.0,0.0,0.0,0.0,0.0,0.0,0.0,0.0,2.5303,2.5313,0.0,0.0,0.0,0.0,0.0,0.0,0.0,0.0,0.0,0.0,0.0,0.0,0.0,0.0,0.0,0.0,0.0,0.0,0.0,0.0,0.0,0.0,0.0,0.0,0.0,0.0,0.0,0.0,0.0,0.0,0.0,0.0,0.0,0.0,0.0,0.0,0.0,0.0,4.559,4.7972,4.9913,5.1413,5.2567,5.3007,5.4105,5.5182,5.5588,5.5703,5.5703,5.5703,5.5703,5.5075,5.2693,0.0,0.0,0.0,4.7772,4.8238,4.8727,5.0507,0.0,0.0,0.0,0.0,0.0,0.0,0.0,0.0,0.0,0.0,0.0,0.0,0.0,0.0,0.0,6.4589,6.4589,6.5013,6.5474,6.5897,6.5897,6.5897,6.5897,6.5897,6.5897,6.5897,6.5897,6.6128,6.6551,6.6898,6.7359,6.7821,6.8706,0.0,6.9129,6.9552,6.9937,7.0321,7.0321,7.0552,7.0898,7.0898,7.0898,7.0898,0.0,0.0,0.0,0.0,0.0,0.0,0.0,2.5303,2.5303,2.5303,2.5313,2.5322,2.5322,2.538,2.6053,0.0,0.0,0.0,0.0,0.0,0.0,0.0,0.0,0.0,0.0,0.0,0.0,0.0,0.0,0.0,0.0,0.0,0.0,0.0,0.0,0.0,0.0,0.0,0.0,0.0,0.0,0.0,0.0,0.0,0.0,0.0,0.0,0.0,0.0,0.0,4.5026,4.7526,4.9109,5.0987,5.2627,5.2647,5.3899,5.5286,5.5609,5.5703,5.5703,5.5703,5.5703,5.4882,5.1714,5.1005,0.0,0.0,4.7002,4.7861,4.8642,0.0,5.2375,0.0,0.0,0.0,0.0,0.0,0.0,0.0,0.0,0.0,0.0,0.0,0.0,0.0,0.0,0.0,6.4897,6.5513,6.5897,6.5897,6.5897,6.5897,6.5897,6.5897,6.5974,6.6167,6.6167,6.659,6.7359,6.7552,6.8013,6.8744,6.959,0.0,0.0,7.0629,7.0898,7.0898,7.0898,7.0898,7.0898,7.0898,7.0898,7.0898,0.0,0.0,0.0,0.0,0.0,0.0,0.0,2.5303,2.5303,2.5303,2.5332,2.5398,2.5378,2.5341,2.6005,0.0,0.0,0.0,0.0,0.0,0.0,0.0,0.0,0.0,0.0,0.0,0.0,0.0,0.0,0.0,0.0,0.0,0.0,0.0,0.0,0.0,0.0,0.0,0.0,0.0,0.0,0.0,0.0,0.0,0.0,0.0,0.0,0.0,0.0,0.0,0.0,4.4219,4.5825,4.8487,5.099,5.1014,0.0,0.0,5.5304,5.5703,5.5703,5.5703,5.5703,5.4882,5.1714,0.0,0.0,4.6946,4.7002,4.7861,4.8642,0.0,0.0,0.0,0.0,5.5208,0.0,0.0,0.0,0.0,0.0,0.0,0.0,0.0,0.0,0.0,0.0,0.0,6.5782,6.5859,6.5897,6.5897,6.5897,6.5897,6.5897,6.5897,6.6282,6.6974,6.6974,6.7436,6.8321,6.909,6.9513,6.9629,7.0437,0.0,0.0,7.086,7.0898,7.0898,7.0898,7.0898,7.0898,7.0898,7.0898,7.0898,0.0,0.0,0.0,0.0,0.0,0.0,0.0,2.538,2.537,2.5313,2.5774,2.614,2.6131,2.6564,2.7131,0.0,0.0,0.0,0.0,0.0,0.0,0.0,0.0,0.0,0.0,0.0,0.0,0.0,0.0,0.0,0.0,0.0,0.0,0.0,0.0,0.0,0.0,0.0,0.0,0.0,0.0,0.0,0.0,0.0,0.0,0.0,0.0,0.0,0.0,0.0,0.0,0.0,4.312,4.4922,0.0,0.0,5.2051,5.3746,5.5286,5.5703,5.5703,5.5703,5.5017,5.3746,5.1502,0.0,4.8958,4.6747,4.7393,4.8408,4.8759,0.0,0.0,0.0,0.0,0.0,5.545,0.0,0.0,0.0,0.0,0.0,0.0,0.0,0.0,0.0,0.0,0.0,6.5897,6.5897,6.5897,6.5897,6.5897,6.5897,6.5897,6.6359,6.6782,6.709,6.7628,6.8359,6.9206,6.9552,6.9975,7.0437,7.0744,0.0,0.0,7.0898,7.0898,7.0898,7.0898,7.0898,7.0898,7.0898,7.0898,7.0898,0.0,0.0,0.0,0.0,0.0,0.0,2.5707,2.5736,2.5842,2.6043,2.6582,2.6977,2.6997,2.7526,2.7883,2.7913,0.0,0.0,0.0,0.0,0.0,0.0,0.0,0.0,0.0,0.0,0.0,0.0,0.0,0.0,0.0,0.0,0.0,0.0,0.0,0.0,0.0,0.0,0.0,0.0,0.0,0.0,0.0,0.0,0.0,0.0,0.0,0.0,0.0,0.0,0.0,0.0,0.0,0.0,0.0,0.0,5.0778,5.2715,5.4534,5.5343,5.5703,5.5703,5.4553,5.2962,0.0,0.0,4.816,4.6625,4.7627,4.8798,4.8798,5.0204,0.0,0.0,0.0,5.3278,5.3737,5.5879,0.0,0.0,0.0,0.0,0.0,0.0,0.0,0.0,0.0,0.0,0.0,6.5897,6.5897,6.5897,6.5897,6.6013,6.6244,6.6821,6.7359,6.7859,6.8475,6.9244,7.0052,7.0052,7.036,7.0898,0.0,0.0,0.0,7.0898,7.0898,7.0898,7.0898,7.0898,7.0898,7.0898,7.0898,7.0898,0.0,0.0,0.0,0.0,0.0,0.0,0.0,2.6574,2.691,2.7747,2.7893,2.7903,2.7873,2.7903,2.7903,2.7911,0.0,0.0,0.0,0.0,0.0,0.0,0.0,0.0,0.0,0.0,0.0,0.0,0.0,0.0,0.0,0.0,0.0,0.0,0.0,0.0,0.0,0.0,0.0,0.0,0.0,0.0,3.4603,0.0,0.0,0.0,0.0,0.0,0.0,0.0,0.0,0.0,0.0,4.2318,0.0,0.0,4.7852,5.0296,5.2768,5.4553,5.5703,5.5703,5.4553,5.2962,0.0,0.0,4.816,4.6625,4.7627,4.8798,4.8798,5.0204,5.1414,5.1414,5.1414,0.0,5.3583,5.4515,0.0,0.0,0.0,0.0,0.0,0.0,0.0,0.0,0.0,0.0,0.0,6.5897,6.5897,6.5897,6.5897,6.6282,6.709,6.709,6.7975,6.9667,6.9667,7.0129,7.0898,7.0898,7.0898,0.0,0.0,0.0,0.0,7.0898,7.0898,7.0898,7.0898,7.0898,7.0898,7.0898,7.0898,7.0898,0.0,0.0,0.0,0.0,0.0,0.0,0.0,2.7123,2.7593,2.7868,2.8379,2.8725,2.8714,2.9236,2.9594,2.9621,0.0,0.0,0.0,0.0,0.0,0.0,0.0,0.0,0.0,0.0,0.0,0.0,0.0,0.0,0.0,0.0,0.0,0.0,0.0,0.0,0.0,0.0,0.0,0.0,0.0,3.357,3.3902,0.0,0.0,0.0,0.0,0.0,0.0,0.0,0.0,0.0,0.0,0.0,0.0,4.4134,4.6596,4.9373,5.1256,5.2104,5.2498,5.249,5.1292,4.9989,4.9496,0.0,4.6905,4.6381,4.7627,4.8798,4.8798,5.0204,5.1414,5.1414,5.1414,5.1577,0.0,0.0,0.0,0.0,0.0,0.0,0.0,0.0,0.0,0.0,0.0,0.0,0.0,6.5897,6.5897,6.5897,6.5897,6.6282,6.709,6.7705,6.8552,6.9706,7.0244,7.0667,7.0898,7.0898,0.0,0.0,0.0,0.0,0.0,7.0898,7.0898,7.0898,7.0898,7.0898,7.0898,7.0898,7.0898,7.0898,0.0,0.0,0.0,0.0,0.0,0.0,0.0,2.7875,2.8499,2.8802,2.9291,2.9598,2.961,3.0056,3.026,2.9979,0.0,0.0,0.0,0.0,0.0,0.0,0.0,0.0,0.0,0.0,0.0,0.0,0.0,0.0,0.0,0.0,0.0,0.0,0.0,0.0,0.0,0.0,0.0,0.0,3.3197,3.3613,3.3989,0.0,0.0,0.0,0.0,0.0,0.0,0.0,0.0,0.0,0.0,0.0,0.0,0.0,4.5621,4.8078,0.0,5.0559,5.0998,5.099,4.9808,0.0,0.0,0.0,4.63,4.63,4.7627,4.8798,4.8798,5.0204,5.1414,5.1414,5.1414,5.1616,5.222,0.0,0.0,0.0,0.0,0.0,0.0,0.0,0.0,0.0,0.0,0.0,0.0,6.5897,6.5897,6.5897,6.6205,6.6744,6.759,6.8436,6.9321,7.0167,7.0667,7.0898,7.0898,7.0898,0.0,0.0,0.0,0.0,0.0,7.0898,7.0898,7.0898,7.0898,7.0898,7.0898,7.0898,7.0898,7.0898,0.0,0.0,0.0,0.0,0.0,0.0,0.0,0.0,0.0,0.0,3.039,3.0402,3.0386,3.0392,3.0122,0.0,0.0,0.0,0.0,0.0,0.0,0.0,0.0,0.0,0.0,0.0,0.0,3.0697,3.0781,3.0808,3.0817,0.0,0.0,0.0,0.0,0.0,0.0,0.0,0.0,0.0,3.347,3.3973,0.0,0.0,0.0,0.0,0.0,0.0,0.0,0.0,0.0,0.0,0.0,0.0,0.0,0.0,0.0,0.0,0.0,4.9511,0.0,0.0,0.0,0.0,0.0,0.0,0.0,0.0,4.7627,4.8798,4.8798,5.0204,5.1414,5.1414,5.1414,5.1943,5.3583,5.4626,0.0,0.0,0.0,0.0,0.0,0.0,0.0,0.0,0.0,0.0,0.0,6.5897,6.5936,6.5974,6.6782,6.759,6.8398,6.9244,7.009,7.0898,7.0898,7.0898,7.0898,7.0898,0.0,0.0,0.0,0.0,0.0,7.0898,7.0898,7.0898,7.0898,7.0898,7.0898,7.0898,7.0898,7.0898,0.0,0.0,0.0,0.0,0.0,0.0,0.0,0.0,0.0,0.0,3.0402,3.0402,3.0386,3.043,3.0413,0.0,0.0,0.0,0.0,0.0,0.0,0.0,0.0,0.0,0.0,0.0,0.0,3.0704,3.0781,3.0808,3.0793,3.0806,0.0,0.0,0.0,0.0,0.0,0.0,0.0,0.0,3.4111,3.4527,0.0,0.0,0.0,0.0,3.6908,3.7752,0.0,0.0,0.0,0.0,0.0,0.0,0.0,0.0,4.4468,4.5526,4.6577,0.0,4.7382,4.7419,4.7105,4.6832,0.0,0.0,0.0,0.0,0.0,4.8798,4.8798,5.0204,5.1414,5.1414,5.1414,5.1943,5.3583,0.0,0.0,0.0,0.0,0.0,0.0,0.0,0.0,0.0,0.0,0.0,0.0,6.5897,6.6167,6.6782,6.7667,6.8205,6.8398,6.9244,7.009,7.0898,7.0898,7.0898,7.0898,7.0898,0.0,0.0,0.0,0.0,7.0898,7.0898,7.0898,7.0898,7.0898,7.0898,7.0898,7.0898,7.0898,7.0898,0.0,0.0,0.0,0.0,0.0,0.0,0.0,0.0,0.0,0.0,0.0,0.0,0.0,0.0,0.0,0.0,0.0,0.0,0.0,0.0,0.0,0.0,0.0,0.0,0.0,0.0,0.0,0.0,0.0,3.0792,0.0,0.0,0.0,0.0,0.0,0.0,0.0,0.0,0.0,3.4051,3.4505,0.0,0.0,0.0,0.0,0.0,3.6941,3.7776,0.0,3.9507,4.0366,4.1108,0.0,0.0,0.0,0.0,4.4582,4.5718,4.6161,4.628,4.628,4.628,4.6312,4.63,0.0,0.0,0.0,0.0,0.0,0.0,4.9306,0.0,0.0,5.1535,5.2617,5.3845,0.0,0.0,0.0,0.0,0.0,0.0,0.0,0.0,0.0,0.0,0.0,0.0,0.0,6.5897,6.6282,6.7051,6.7936,6.859,6.9013,6.9821,7.0475,7.0898,7.0898,7.0898,7.0898,7.0898,7.0898,0.0,0.0,0.0,7.0898,7.0898,7.0898,7.0898,7.0898,7.0898,7.0898,7.0898,7.0898,7.0898,0.0,0.0,0.0,0.0,0.0,0.0,0.0,0.0,0.0,0.0,0.0,0.0,0.0,0.0,0.0,0.0,0.0,0.0,0.0,0.0,0.0,0.0,0.0,0.0,0.0,0.0,0.0,0.0,0.0,0.0,0.0,0.0,0.0,0.0,0.0,0.0,0.0,0.0,3.4099,3.491,3.4895,0.0,0.0,0.0,0.0,0.0,0.0,0.0,0.0,3.9702,4.0483,4.1108,4.1108,0.0,0.0,0.0,0.0,0.0,4.6249,4.6484,4.6601,4.6367,4.6282,4.6303,0.0,0.0,0.0,0.0,0.0,0.0,0.0,0.0,0.0,0.0,0.0,0.0,0.0,0.0,0.0,0.0,0.0,0.0,0.0,0.0,0.0,0.0,0.0,0.0,0.0,6.5897,6.632,6.7282,6.8013,6.8898,6.986,7.0552,7.0898,7.0898,7.0898,7.0898,7.0898,7.0898,7.0898,0.0,0.0,0.0,7.0898,7.0898,7.0898,7.0898,7.0898,7.0898,7.0898,7.0898,7.0898,7.0898,0.0,0.0,0.0,0.0,0.0,0.0,0.0,0.0,0.0,0.0,0.0,0.0,0.0,0.0,0.0,0.0,0.0,0.0,0.0,0.0,0.0,0.0,0.0,0.0,0.0,0.0,0.0,0.0,0.0,0.0,3.189,3.1914,3.2361,0.0,0.0,0.0,0.0,3.4492,3.4997,3.5816,3.5804,0.0,0.0,0.0,0.0,0.0,0.0,0.0,0.0,4.06,4.0991,4.1108,4.1108,0.0,0.0,0.0,0.0,0.0,4.6094,4.7305,4.8008,4.6637,4.6282,4.6317,0.0,0.0,0.0,0.0,0.0,0.0,0.0,0.0,0.0,0.0,0.0,0.0,0.0,0.0,0.0,0.0,0.0,0.0,0.0,0.0,0.0,0.0,0.0,0.0,0.0,6.5897,6.659,6.8167,6.8321,6.9167,7.0706,7.0821,7.0898,7.0898,7.0898,7.0898,7.0898,7.0898,7.0898,0.0,0.0,7.0898,7.0898,7.0898,7.0898,7.0898,7.0898,7.0898,7.0898,7.0898,7.0898,7.0898,0.0,0.0,0.0,0.0,0.0,0.0,0.0,0.0,0.0,0.0,0.0,0.0,0.0,0.0,0.0,0.0,0.0,0.0,0.0,0.0,0.0,0.0,0.0,0.0,0.0,0.0,0.0,0.0,0.0,3.1151,3.2077,3.258,3.3029,3.3417,0.0,0.0,0.0,3.3982,3.4485,3.5311,0.0,0.0,0.0,0.0,0.0,0.0,0.0,0.0,0.0,0.0,4.1108,4.1108,4.1108,0.0,0.0,0.0,0.0,0.0,4.6172,4.6836,4.7415,4.7562,4.8209,4.8822,0.0,0.0,0.0,0.0,0.0,0.0,0.0,0.0,0.0,0.0,0.0,0.0,0.0,0.0,0.0,0.0,0.0,0.0,0.0,0.0,0.0,0.0,0.0,0.0,0.0,0.0,6.7128,6.8359,6.8859,6.9667,7.0898,7.0898,7.0898,7.0898,7.0898,7.0898,7.0898,7.0898,7.0898,7.0898,0.0,7.0898,7.0898,7.0898,7.0898,7.0898,7.0898,7.0898,7.0898,7.0898,7.0898,7.0898,0.0,0.0,0.0,0.0,0.0,0.0,0.0,0.0,0.0,0.0,0.0,0.0,0.0,0.0,0.0,0.0,0.0,0.0,0.0,0.0,0.0,0.0,0.0,0.0,0.0,0.0,3.0645,3.069,3.069,3.1268,3.2333,3.3273,3.3788,0.0,0.0,0.0,0.0,3.4021,3.4406,3.4997,0.0,0.0,0.0,0.0,0.0,0.0,0.0,0.0,0.0,0.0,0.0,0.0,0.0,0.0,0.0,4.3945,4.5078,4.6289,4.6289,4.6562,4.7162,0.0,0.0,0.0,0.0,0.0,0.0,0.0,0.0,0.0,0.0,0.0,0.0,0.0,0.0,0.0,0.0,0.0,0.0,0.0,0.0,0.0,0.0,0.0,0.0,0.0,0.0,0.0,0.0,0.0,6.7513,6.8359,6.9244,7.009,7.0898,7.0898,7.0898,7.0898,7.0898,7.0898,7.0898,7.0898,7.0898,7.0898,7.0898,7.0898,7.0898,7.0898,7.0898,7.0898,7.0898,7.0898,7.0898,7.0898,7.0898,7.0898,0.0,0.0,0.0,0.0,0.0,0.0,0.0,0.0,0.0,0.0,0.0,0.0,0.0,0.0,0.0,0.0,0.0,0.0,0.0,0.0,0.0,0.0,0.0,0.0,0.0,3.0582,3.0645,3.069,3.069,3.1566,3.3226,3.4166,3.4986,3.571,0.0,0.0,0.0,3.5819,3.5855,3.5916,3.5916,0.0,0.0,0.0,0.0,0.0,0.0,0.0,0.0,0.0,0.0,0.0,0.0,0.0,4.3867,4.4687,4.5586,4.6289,4.6289,4.7383,4.8568,4.8659,0.0,0.0,0.0,0.0,0.0,0.0,0.0,0.0,0.0,0.0,0.0,0.0,0.0,0.0,0.0,0.0,0.0,0.0,0.0,0.0,0.0,0.0,0.0,0.0,0.0,0.0,0.0,0.0,0.0,6.8359,6.9244,7.009,7.0898,7.0898,7.0898,7.0898,7.0898,7.0898,7.0898,7.0898,7.0898,7.0898,7.0898,7.0898,7.0898,7.0898,7.0898,7.0898,7.0898,7.0898,7.0898,7.0898,7.0898,7.0898,0.0,0.0,0.0,0.0,0.0,0.0,0.0,0.0,0.0,0.0,0.0,0.0,0.0,0.0,0.0,0.0,0.0,0.0,0.0,0.0,0.0,0.0,0.0,3.0839,3.1418,3.0884,3.0637,3.0715,3.1778,3.2934,3.414,3.5026,0.0,0.0,0.0,0.0,0.0,0.0,3.6001,3.5991,3.5991,3.6306,0.0,0.0,0.0,0.0,0.0,0.0,0.0,0.0,4.1087,4.1245,4.2131,4.3001,4.3867,4.4726,4.5625,4.6289,4.6289,4.7483,4.8696,0.0,0.0,0.0,0.0,0.0,0.0,0.0,0.0,0.0,0.0,0.0,0.0,0.0,0.0,0.0,0.0,0.0,0.0,0.0,0.0,0.0,0.0,0.0,0.0,0.0,0.0,0.0,0.0,0.0,0.0,6.8398,6.9744,7.0591,7.0898,7.0898,7.0898,7.0898,7.0898,7.0898,7.0898,7.0898,7.0898,7.0898,7.0898,7.0898,7.0898,7.0898,7.0898,7.0898,7.0898,7.0898,7.0898,7.0898,7.0898,7.0898,0.0,0.0,0.0,0.0,0.0,0.0,0.0,0.0,0.0,0.0,0.0,0.0,0.0,0.0,0.0,0.0,0.0,0.0,0.0,0.0,0.0,0.0,0.0,3.1709,3.2318,3.1745,3.1452,3.1476,3.2725,3.3764,3.4601,0.0,0.0,0.0,0.0,0.0,0.0,0.0,3.5991,3.603,3.6306,3.6774,0.0,0.0,0.0,0.0,0.0,0.0,0.0,0.0,4.1283,4.1676,4.2531,4.3396,4.4297,4.5156,4.6186,4.7047,4.7047,4.7883,4.8839,0.0,0.0,0.0,0.0,0.0,0.0,0.0,0.0,0.0,0.0,0.0,0.0,0.0,0.0,0.0,0.0,0.0,0.0,0.0,0.0,0.0,0.0,0.0,0.0,0.0,0.0,0.0,0.0,0.0,0.0,0.0,6.9783,7.0629,7.0898,7.0898,7.0898,7.0898,7.0898,7.0898,7.0898,7.0898,7.0898,7.0898,7.0898,7.0898,7.0898,7.0898,7.0898,7.0898,7.0898,7.0898,7.0898,7.0898,7.0898,7.0898,0.0,0.0,0.0,0.0,0.0,0.0,0.0,0.0,0.0,0.0,0.0,0.0,0.0,0.0,0.0,0.0,0.0,0.0,0.0,0.0,0.0,0.0,0.0,3.3209,3.3197,3.3214,3.3222,3.3222,3.3265,3.3777,3.4622,3.4675,0.0,0.0,0.0,0.0,0.0,0.0,3.5994,3.6108,3.697,3.7321,3.7516,0.0,0.0,0.0,0.0,0.0,0.0,0.0,4.1675,4.2561,4.3436,4.4297,4.5156,4.6055,4.7437,4.8694,4.8673,4.8688,0.0,0.0,0.0,0.0,0.0,0.0,0.0,0.0,0.0,0.0,0.0,0.0,0.0,0.0,0.0,0.0,0.0,0.0,0.0,0.0,0.0,0.0,0.0,0.0,0.0,0.0,0.0,0.0,0.0,0.0,0.0,0.0,6.9244,7.009,7.0898,7.0898,7.0898,7.0898,7.0898,7.0898,7.0898,7.0898,7.0898,7.0898,7.0898,7.0898,7.0898,7.0898,7.0898,7.0898,7.0898,7.0898,7.0898,7.0898,7.0898,7.0898,0.0,0.0,0.0,0.0,0.0,0.0,0.0,0.0,0.0,0.0,0.0,0.0,0.0,0.0,0.0,0.0,0.0,0.0,0.0,0.0,0.0,0.0,0.0,0.0,0.0,0.0,3.4816,3.4185,3.4191,3.467,0.0,0.0,0.0,3.5999,0.0,0.0,0.0,0.0,3.6907,3.7009,3.7867,3.8531,3.9117,0.0,0.0,0.0,0.0,0.0,0.0,0.0,0.0,0.0,4.3437,4.4297,4.5156,4.6055,4.6658,4.7025,4.7011,4.8623,0.0,0.0,0.0,0.0,0.0,0.0,0.0,0.0,0.0,0.0,0.0,0.0,0.0,0.0,0.0,0.0,0.0,0.0,0.0,0.0,0.0,0.0,0.0,0.0,0.0,0.0,0.0,0.0,0.0,0.0,0.0,0.0,6.9244,7.009,7.0898,7.0898,7.0898,7.0898,7.0898,7.0898,7.0898,7.0898,7.0898,7.0898,7.0898,7.0898,7.0898,7.0898,7.0898,7.0898,7.0898,7.0898,7.0898,7.0898,7.0898,7.0898,0.0,0.0,0.0,0.0,0.0,0.0,0.0,0.0,0.0,0.0,0.0,0.0,0.0,0.0,0.0,0.0,0.0,0.0,0.0,0.0,0.0,0.0,0.0,0.0,0.0,3.5609,3.5645,0.0,0.0,0.0,0.0,0.0,0.0,3.6016,0.0,3.6172,0.0,0.0,3.7497,3.7906,3.8765,3.939,3.9855,0.0,0.0,0.0,0.0,0.0,0.0,0.0,0.0,0.0,4.4062,4.4805,4.5739,4.6924,4.726,4.7517,4.8792,0.0,0.0,0.0,0.0,0.0,0.0,0.0,0.0,0.0,0.0,0.0,0.0,0.0,0.0,0.0,0.0,0.0,0.0,0.0,0.0,0.0,0.0,0.0,0.0,0.0,0.0,0.0,0.0,0.0,0.0,0.0,0.0,0.0,6.8898,6.9744,7.0898,7.0898,7.0898,7.0898,7.0898,7.0898,7.0898,7.0898,7.0898,7.0898,7.0898,7.0898,7.0898,7.0898,7.0898,7.0898,7.0898,7.0898,7.0898,7.0898,7.0898,7.0898,0.0,0.0,0.0,0.0,0.0,0.0,0.0,0.0,0.0,0.0,0.0,0.0,0.0,0.0,0.0,0.0,0.0,0.0,0.0,0.0,0.0,0.0,0.0,0.0,0.0,0.0,0.0,0.0,0.0,0.0,0.0,0.0,3.6005,3.6016,0.0,3.6562,0.0,3.7461,3.8004,3.8807,3.9663,3.9976,4.0011,4.0788,0.0,0.0,0.0,0.0,0.0,0.0,0.0,0.0,4.5,4.5586,4.659,4.8075,4.8561,4.9328,5.218,0.0,0.0,0.0,0.0,0.0,0.0,0.0,0.0,0.0,0.0,0.0,0.0,0.0,0.0,0.0,0.0,0.0,0.0,0.0,0.0,0.0,0.0,0.0,0.0,0.0,0.0,0.0,0.0,0.0,0.0,0.0,0.0,6.8359,6.8398,6.9206,7.0898,7.0898,7.0898,0.0,7.0898,7.0898,7.0898,7.0898,7.0898,7.0898,7.0898,7.0898,7.0898,7.0898,7.0898,7.0898,7.0898,7.0898,7.0898,7.0898,7.0898,7.0898,0.0,0.0,0.0,0.0,0.0,0.0,0.0,0.0,0.0,0.0,0.0,0.0,0.0,0.0,0.0,0.0,0.0,0.0,0.0,0.0,0.0,0.0,0.0,0.0,0.0,0.0,0.0,0.0,0.0,0.0,0.0,0.0,0.0,3.6016,0.0,3.7109,3.7383,3.875,3.9453,3.9686,4.0494,4.0834,4.0834,4.1023,4.1101,0.0,0.0,0.0,0.0,0.0,0.0,0.0,4.5,4.5582,4.636,4.6697,4.765,4.8754,0.0,0.0,0.0,0.0,0.0,0.0,0.0,0.0,0.0,0.0,0.0,0.0,0.0,0.0,0.0,0.0,0.0,0.0,0.0,0.0,0.0,0.0,0.0,0.0,0.0,0.0,0.0,0.0,0.0,0.0,0.0,0.0,0.0,6.8359,6.8398,6.9206,7.0898,7.0898,7.0898,0.0,7.0898,7.0898,7.0898,7.0898,7.0898,7.0898,7.0898,7.0898,7.0898,7.0898,7.0898,7.0898,7.0898,7.0898,7.0898,7.0898,7.0898,7.0898,0.0,0.0,0.0,0.0,0.0,0.0,0.0,0.0,0.0,0.0,0.0,0.0,0.0,0.0,0.0,0.0,0.0,0.0,0.0,0.0,0.0,0.0,0.0,0.0,0.0,0.0,0.0,0.0,0.0,0.0,0.0,0.0,0.0,3.6641,0.0,3.7773,3.8594,3.9492,4.0117,4.0508,4.0926,4.1108,4.1147,4.1579,4.1732,4.1849,4.2711,0.0,0.0,0.0,0.0,0.0,0.0,0.0,4.6438,4.7219,4.7466,4.8001,0.0,0.0,0.0,0.0,0.0,0.0,0.0,0.0,0.0,0.0,0.0,0.0,0.0,0.0,0.0,0.0,0.0,0.0,0.0,0.0,0.0,0.0,0.0,0.0,0.0,0.0,0.0,0.0,0.0,0.0,0.0,6.5897,6.6474,6.7744,6.8167,6.9013,7.0321,7.0706,7.0898,7.0898,7.0898,7.0898,7.0898,7.0898,7.0898,7.0898,7.0898,7.0898,7.0898,7.0898,7.0898,7.0898,7.0898,7.0898,7.0898,7.0898,7.0898,7.0898,0.0,0.0,0.0,0.0,0.0,0.0,0.0,0.0,0.0,0.0,0.0,0.0,0.0,0.0,0.0,0.0,0.0,0.0,0.0,0.0,0.0,0.0,0.0,0.0,0.0,0.0,0.0,0.0,0.0,0.0,0.0,0.0,0.0,3.7305,0.0,0.0,3.9922,4.0039,4.0507,4.1093,4.1119,4.1186,4.1384,4.2126,4.2474,4.2744,4.3609,4.4387,4.5012,4.5168,0.0,0.0,0.0,0.0,4.6561,4.7913,4.7522,4.7566,0.0,0.0,0.0,0.0,0.0,0.0,0.0,0.0,0.0,0.0,0.0,0.0,0.0,0.0,0.0,0.0,0.0,0.0,0.0,0.0,0.0,0.0,0.0,0.0,0.0,0.0,0.0,0.0,0.0,0.0,6.5897,6.5897,6.6282,6.7051,6.7936,6.8821,6.9706,7.0514,7.0898,7.0898,7.0898,7.0898,7.0898,7.0898,7.0898,7.0898,7.0898,7.0898,7.0898,7.0898,7.0898,7.0898,7.0898,7.0898,7.0898,7.0898,7.0898,7.0898,0.0,0.0,0.0,0.0,0.0,0.0,0.0,0.0,0.0,0.0,0.0,0.0,0.0,0.0,0.0,0.0,0.0,0.0,0.0,0.0,0.0,0.0,0.0,0.0,0.0,0.0,0.0,0.0,0.0,0.0,0.0,0.0,0.0,0.0,0.0,0.0,0.0,4.0654,4.0996,4.1114,4.1111,4.154,4.2243,4.236,4.2864,4.3642,4.4504,4.4894,4.5129,4.587,4.6192,0.0,0.0,0.0,4.6348,4.6551,4.7421,4.8591,0.0,0.0,0.0,0.0,0.0,0.0,0.0,0.0,0.0,0.0,0.0,0.0,0.0,0.0,0.0,0.0,0.0,0.0,0.0,0.0,0.0,0.0,0.0,0.0,0.0,0.0,0.0,0.0,0.0,0.0,6.5897,6.5897,6.6282,6.7051,6.7936,6.8821,6.9706,7.0514,7.0898,7.0898,7.0898,7.0898,7.0898,7.0898,7.0898,7.0898,7.0898,7.0898,7.0898,7.0898,7.0898,7.0898,7.0898,7.0898,7.0898,7.0898,7.0898,7.0898,0.0,0.0,0.0,0.0,0.0,0.0,0.0,0.0,0.0,0.0,0.0,0.0,0.0,0.0,0.0,3.5745,3.5757,3.5737,3.5737,3.5793,0.0,0.0,0.0,0.0,0.0,0.0,0.0,0.0,0.0,0.0,0.0,3.8534,3.8741,0.0,0.0,0.0,0.0,0.0,0.0,4.1849,4.181,4.289,4.4429,4.4018,4.4643,4.578,0.0,0.0,0.0,4.6183,4.6306,4.6309,4.6303,0.0,0.0,0.0,0.0,0.0,0.0,0.0,0.0,0.0,0.0,0.0,0.0,0.0,0.0,0.0,0.0,0.0,0.0,0.0,0.0,0.0,0.0,0.0,0.0,0.0,0.0,0.0,0.0,0.0,0.0,0.0,0.0,0.0,6.5897,6.5897,6.5897,6.5897,6.6051,6.6397,6.7244,6.809,6.8975,6.9821,7.0437,7.0898,7.0898,7.0898,7.0898,7.0898,7.0898,7.0898,7.0898,7.0898,7.0898,7.0898,7.0898,7.0898,7.0898,7.0898,7.0898,7.0898,7.0898,7.0898,0.0,0.0,0.0,0.0,0.0,0.0,0.0,0.0,0.0,0.0,0.0,0.0,0.0,0.0,0.0,0.0,3.5766,3.5737,3.5737,3.5784,0.0,0.0,0.0,0.0,0.0,0.0,0.0,0.0,0.0,0.0,3.8921,3.9588,3.9988,0.0,4.0195,0.0,0.0,0.0,0.0,0.0,0.0,4.4579,4.6394,0.0,0.0,4.8197,4.7225,0.0,0.0,0.0,0.0,0.0,0.0,0.0,0.0,0.0,0.0,0.0,0.0,0.0,0.0,0.0,0.0,0.0,0.0,0.0,0.0,0.0,0.0,0.0,0.0,0.0,0.0,0.0,0.0,0.0,0.0,0.0,0.0,0.0,0.0,0.0,0.0,0.0,0.0,0.0,6.5897,6.5897,6.5897,6.5897,6.5897,6.5897,6.6667,6.7398,6.8052,6.9167,7.009,7.0898,7.0898,7.0898,7.0898,7.0898,7.0898,7.0898,7.0898,7.0898,7.0898,7.0898,7.0898,7.0898,7.0898,7.0898,7.0898,7.0898,7.0898,7.0898,0.0,0.0,0.0,0.0,0.0,0.0,0.0,0.0,0.0,0.0,0.0,0.0,0.0,3.5771,3.581,3.5818,3.581,3.581,3.581,3.581,3.5801,3.5784,0.0,0.0,0.0,0.0,0.0,0.0,0.0,0.0,3.9819,3.9819,4.0249,4.1035,4.1051,4.1045,4.1132,0.0,0.0,0.0,0.0,0.0,0.0,0.0,0.0,0.0,0.0,0.0,0.0,0.0,0.0,0.0,0.0,0.0,0.0,0.0,0.0,0.0,0.0,0.0,0.0,0.0,0.0,0.0,0.0,0.0,0.0,0.0,0.0,0.0,0.0,0.0,0.0,0.0,0.0,0.0,0.0,0.0,0.0,0.0,0.0,0.0,0.0,0.0,0.0,0.0,6.5897,6.5897,6.5897,6.5897,6.5897,6.5897,6.6667,6.7128,6.7167,6.8859,7.009,7.0898,7.0898,7.0898,7.0898,7.0898,7.0898,7.0898,7.0898,7.0898,7.0898,7.0898,7.0898,7.0898,7.0898,7.0898,7.0898,7.0898,7.0898,7.0898,0.0,0.0,0.0,0.0,0.0,0.0,0.0,0.0,0.0,0.0,0.0,0.0,0.0,3.5818,3.5818,3.5818,3.5818,3.581,3.5793,3.581,3.581,3.5801,0.0,0.0,0.0,0.0,0.0,0.0,0.0,3.9809,4.0678,4.0639,4.0795,4.1111,4.1094,4.1089,4.1162,4.2012,0.0,0.0,0.0,0.0,0.0,0.0,0.0,0.0,0.0,0.0,0.0,0.0,0.0,0.0,0.0,0.0,0.0,0.0,0.0,0.0,0.0,0.0,0.0,0.0,0.0,0.0,0.0,0.0,0.0,0.0,0.0,0.0,0.0,0.0,0.0,0.0,0.0,0.0,0.0,0.0,0.0,0.0,0.0,0.0,0.0,0.0,0.0,0.0,0.0,6.5897,6.5897,6.5897,6.5897,6.5897,6.6167,6.6859,6.7936,6.9129,7.009,7.0898,7.0898,7.0898,7.0898,7.0898,7.0898,7.0898,7.0898,7.0898,7.0898,7.0898,7.0898,7.0898,7.0898,7.0898,7.0898,7.0898,7.0898,7.0898,0.0,0.0,0.0,0.0,0.0,0.0,0.0,0.0,0.0,0.0,0.0,0.0,0.0,0.0,3.5842,3.5818,3.5818,3.5966,3.627,3.6277,3.6402,3.6666,3.7261,0.0,0.0,0.0,0.0,0.0,0.0,0.0,0.0,0.0,4.1702,4.1984,4.1952,0.0,0.0,0.0,0.0,4.4401,0.0,0.0,5.0208,0.0,0.0,0.0,0.0,0.0,0.0,0.0,0.0,0.0,0.0,0.0,0.0,0.0,0.0,0.0,0.0,0.0,0.0,0.0,0.0,0.0,0.0,0.0,0.0,0.0,0.0,0.0,0.0,0.0,0.0,0.0,0.0,0.0,0.0,0.0,0.0,0.0,0.0,0.0,0.0,0.0,0.0,0.0,0.0,0.0,6.5897,6.5897,6.5897,6.5897,6.5897,6.6551,6.7936,6.8821,6.9667,7.0514,7.0783,7.0898,7.0898,7.0898,7.0898,7.0898,7.0898,7.0898,7.0898,7.0898,7.0898,7.0898,7.0898,7.0898,7.0898,7.0898,7.0898,7.0898,0.0,0.0,0.0,0.0,0.0,0.0,0.0,0.0,0.0,0.0,0.0,0.0,0.0,0.0,0.0,3.5928,3.5967,3.6356,3.7175,3.7253,3.7598,3.8371,3.8483,0.0,0.0,0.0,0.0,0.0,0.0,0.0,0.0,0.0,4.2882,0.0,4.371,4.3276,4.2588,0.0,4.5015,4.533,0.0,5.0064,4.9028,0.0,0.0,0.0,5.1394,5.1589,0.0,0.0,0.0,0.0,0.0,0.0,0.0,0.0,0.0,0.0,0.0,0.0,0.0,0.0,0.0,0.0,5.7892,0.0,0.0,0.0,0.0,0.0,0.0,0.0,0.0,0.0,0.0,0.0,0.0,0.0,0.0,0.0,0.0,0.0,0.0,0.0,0.0,0.0,6.5897,6.5897,6.5897,6.5897,6.5897,6.5897,6.5897,6.6282,6.709,6.7975,6.8859,6.9706,7.0514,7.0898,7.0898,7.0898,7.0898,7.0898,7.0898,7.0898,7.0898,7.0898,7.0898,7.0898,7.0898,7.0898,7.0898,7.0898,7.0898,7.0898,0.0,0.0,0.0,0.0,0.0,0.0,0.0,0.0,0.0,0.0,0.0,0.0,0.0,0.0,0.0,3.6824,3.7414,3.7882,3.8116,3.8143,3.8254,3.8461,3.9073,3.9745,0.0,0.0,0.0,0.0,0.0,0.0,0.0,0.0,0.0,0.0,4.436,4.451,4.4305,4.4816,0.0,0.0,4.9393,5.0731,0.0,0.0,0.0,0.0,0.0,5.2563,0.0,0.0,5.1758,4.9449,0.0,0.0,0.0,0.0,0.0,0.0,5.2107,0.0,0.0,0.0,0.0,0.0,5.6041,5.7949,5.9755,0.0,0.0,0.0,0.0,0.0,0.0,0.0,0.0,0.0,0.0,0.0,0.0,0.0,0.0,0.0,0.0,0.0,0.0,0.0,6.5897,6.5897,6.5897,6.5897,6.5897,6.5897,6.5897,6.6282,6.709,6.7975,6.8859,6.9706,7.0514,7.0898,7.0898,7.0898,7.0898,7.0898,7.0898,7.0898,7.0898,7.0898,7.0898,7.0898,7.0898,7.0898,7.0898,7.0898,7.0898,7.0898,0.0,0.0,0.0,0.0,0.0,0.0,0.0,0.0,0.0,0.0,0.0,0.0,0.0,0.0,0.0,3.7795,3.8263,3.8848,3.9555,3.9585,3.9897,4.0647,4.1163,4.1675,0.0,0.0,0.0,0.0,0.0,0.0,0.0,0.0,0.0,0.0,0.0,0.0,0.0,0.0,0.0,0.0,5.0079,0.0,0.0,5.2665,5.3778,0.0,0.0,0.0,5.4008,5.5183,5.3737,0.0,0.0,0.0,0.0,0.0,0.0,0.0,0.0,0.0,0.0,0.0,0.0,0.0,5.6014,5.7741,5.9452,0.0,0.0,0.0,0.0,0.0,0.0,0.0,0.0,0.0,0.0,0.0,0.0,0.0,0.0,0.0,0.0,6.5705,6.5897,6.5897,6.5897,6.5897,6.5897,6.5897,6.5897,6.5897,6.5897,6.6128,6.659,6.7436,6.8321,6.9167,7.0014,7.0591,7.0898,7.0898,7.0898,7.0898,7.0898,7.0898,7.0898,7.0898,7.0898,7.0898,7.0898,7.0898,7.0898,7.0898,7.0898,7.0898,0.0,0.0,0.0,0.0,0.0,0.0,0.0,0.0,0.0,0.0,0.0,0.0,0.0,0.0,0.0,0.0,3.912,3.978,4.1303,4.1381,4.2084,4.3645,4.3684,4.3762,4.384,0.0,0.0,0.0,0.0,0.0,0.0,0.0,0.0,0.0,0.0,0.0,0.0,0.0,0.0,4.8233,5.1047,5.1356,0.0,0.0,5.3249,0.0,5.3567,5.4785,5.6106,5.6711,5.6188,0.0,0.0,0.0,0.0,0.0,5.2226,0.0,0.0,0.0,0.0,0.0,0.0,0.0,5.6914,5.7883,5.8937,6.021,0.0,0.0,0.0,0.0,0.0,0.0,0.0,0.0,0.0,0.0,0.0,0.0,0.0,0.0,6.4589,6.5282,6.5782,6.5897,6.5897,6.5897,6.5897,6.5897,6.5897,6.5897,6.5897,6.5897,6.5897,6.6705,6.7552,6.8398,6.9283,7.0129,7.0898,7.0898,7.0898,7.0898,7.0898,7.0898,7.0898,7.0898,7.0898,7.0898,7.0898,7.0898,7.0898,7.0898,7.0898,7.0898,3.5952,0.0,0.0,0.0,0.0,0.0,0.0,0.0,0.0,0.0,0.0,0.0,0.0,0.0,0.0,0.0,4.2296,4.2839,4.318,4.318,4.3336,4.3684,4.3684,4.4036,4.4742,4.4742,0.0,0.0,0.0,0.0,0.0,0.0,0.0,0.0,0.0,0.0,0.0,0.0,0.0,5.0541,5.1183,0.0,5.2035,5.3792,5.5122,5.6097,5.6231,5.6596,5.6883,0.0,5.695,5.7332,0.0,0.0,0.0,0.0,0.0,0.0,0.0,0.0,0.0,0.0,0.0,0.0,5.582,5.6786,5.7891,0.0,0.0,0.0,0.0,0.0,0.0,0.0,0.0,0.0,0.0,0.0,0.0,0.0,0.0,0.0,6.4474,6.4743,6.5128,6.5859,6.5897,6.5897,6.5897,6.5897,6.5897,6.5897,6.5897,6.5897,6.5897,6.6705,6.7552,6.8398,6.9283,7.0129,7.0898,7.0898,7.0898,7.0898,7.0898,7.0898,7.0898,7.0898,7.0898,7.0898,7.0898,7.0898,7.0898,7.0898,7.0898,7.0898,3.7234,0.0,0.0,0.0,0.0,0.0,0.0,0.0,0.0,0.0,0.0,0.0,0.0,0.0,0.0,0.0,0.0,0.0,0.0,0.0,4.4549,4.4984,4.4984,4.5219,4.5648,4.5643,4.587,0.0,0.0,0.0,0.0,0.0,0.0,0.0,0.0,0.0,0.0,0.0,5.0806,5.1953,5.2273,0.0,5.3676,5.5255,5.6348,5.7049,5.7473,5.7934,5.8357,5.8427,5.8214,0.0,0.0,5.5874,5.5369,0.0,5.4775,5.5663,0.0,0.0,0.0,5.5942,0.0,0.0,0.0,5.7042,5.7692,5.8087,5.8431,0.0,0.0,0.0,0.0,0.0,0.0,0.0,0.0,0.0,0.0,0.0,0.0,0.0,6.3281,6.3705,6.432,6.5205,6.5628,6.5897,6.5897,6.5897,6.5897,6.5897,6.5897,6.5897,6.5897,6.6282,6.6898,6.7744,6.8629,6.9475,7.0321,7.0706,7.0898,7.0898,7.0898,7.0898,7.0898,7.0898,7.0898,7.0898,7.0898,7.0898,7.0898,7.0898,7.0898,7.0898,3.8596,0.0,0.0,0.0,0.0,0.0,0.0,0.0,0.0,0.0,0.0,0.0,0.0,0.0,0.0,0.0,0.0,0.0,0.0,0.0,0.0,4.6726,4.6473,4.6441,4.6754,4.6471,4.6309,0.0,0.0,0.0,0.0,0.0,0.0,0.0,0.0,0.0,0.0,0.0,0.0,5.3163,0.0,5.4246,5.4673,5.6054,5.6772,5.7174,5.838,5.9204,5.9858,6.0396,0.0,5.786,5.8008,5.7134,0.0,0.0,0.0,0.0,0.0,0.0,0.0,0.0,0.0,5.6731,0.0,0.0,0.0,5.8187,0.0,0.0,0.0,0.0,0.0,0.0,0.0,0.0,0.0,0.0,0.0,0.0,0.0,0.0,0.0,6.2644,6.3507,6.4512,6.51,6.5587,6.5859,6.5897,6.5897,6.5897,6.5897,6.5897,6.5897,6.5897,6.6282,6.709,6.7821,6.8706,6.9706,7.036,7.0744,7.0898,7.0898,7.0898,7.0898,7.0898,7.0898,7.0898,7.0898,7.0898,7.0898,7.0898,7.0898,7.0898,3.8879,0.0,0.0,0.0,0.0,0.0,0.0,0.0,0.0,0.0,0.0,0.0,0.0,0.0,0.0,0.0,0.0,0.0,4.7155,0.0,0.0,0.0,4.7034,4.6953,4.8398,4.7031,4.6289,4.6289,0.0,0.0,0.0,0.0,0.0,0.0,5.0222,0.0,0.0,0.0,5.3834,0.0,5.5481,5.506,0.0,5.4771,5.5929,5.7461,5.9716,6.055,6.0589,0.0,5.9627,5.9104,0.0,5.7776,0.0,0.0,0.0,0.0,0.0,0.0,0.0,0.0,5.6614,0.0,0.0,0.0,5.6758,5.6827,0.0,0.0,0.0,0.0,0.0,0.0,0.0,0.0,0.0,0.0,0.0,0.0,0.0,0.0,0.0,6.1908,6.2993,6.4499,6.4072,6.4384,6.5807,6.5897,6.5897,6.5897,6.5897,6.5897,6.5897,6.5897,6.6282,6.709,6.7205,6.809,6.9706,6.9783,7.0244,7.0898,7.0898,7.0898,7.0898,7.0898,7.0898,7.0898,7.0898,7.0898,7.0898,7.0898,7.0898,7.0898,4.027,0.0,0.0,0.0,0.0,0.0,0.0,0.0,0.0,0.0,0.0,0.0,0.0,0.0,0.0,0.0,0.0,4.8993,0.0,0.0,0.0,0.0,4.8147,0.0,4.8789,4.8164,4.7812,4.7812,4.8164,0.0,0.0,0.0,0.0,0.0,5.0906,0.0,5.2241,0.0,0.0,0.0,0.0,0.0,0.0,5.6731,5.8258,5.9415,6.0442,6.0781,6.0742,0.0,5.9785,0.0,0.0,0.0,0.0,0.0,0.0,0.0,0.0,0.0,0.0,0.0,0.0,0.0,0.0,0.0,5.6595,0.0,0.0,0.0,0.0,0.0,0.0,0.0,5.6905,0.0,0.0,0.0,0.0,0.0,0.0,0.0,0.0,0.0,0.0,0.0,6.3746,6.4424,6.5089,6.5628,6.5897,6.5897,6.5897,6.5897,6.5897,6.5897,6.6051,6.6397,6.6859,6.7744,6.8975,6.9475,7.0129,7.0898,7.0898,7.0898,7.0898,7.0898,7.0898,7.0898,7.0898,7.0898,7.0898,7.0898,7.0898,7.0898,0.0,0.0,0.0,0.0,0.0,0.0,0.0,0.0,0.0,0.0,0.0,0.0,4.69,4.8088,0.0,0.0,0.0,5.0486,0.0,0.0,5.0168,0.0,4.9341,0.0,0.0,0.0,4.8903,4.8903,0.0,0.0,0.0,0.0,0.0,0.0,0.0,5.2571,5.3723,0.0,0.0,5.5191,5.6524,5.6874,5.6787,5.8526,5.9848,6.0781,6.0781,6.0781,6.0781,6.0589,5.9804,0.0,6.0063,0.0,0.0,0.0,0.0,0.0,5.7184,0.0,0.0,0.0,0.0,0.0,0.0,0.0,0.0,0.0,0.0,0.0,0.0,0.0,0.0,0.0,0.0,0.0,0.0,0.0,0.0,0.0,0.0,0.0,0.0,0.0,0.0,6.1764,6.2921,6.3916,6.4551,6.5205,6.5628,6.5897,6.5897,6.5897,6.5897,6.5897,6.5897,6.5897,6.6474,6.7205,6.809,6.8936,6.9783,7.0591,7.0783,7.0898,7.0898,7.0898,7.0898,7.0898,7.0898,7.0898,7.0898,7.0898,7.0898,7.0898,4.3626,4.3638,0.0,0.0,0.0,0.0,0.0,0.0,0.0,0.0,0.0,0.0,0.0,0.0,0.0,0.0,0.0,5.2797,5.2026,0.0,5.1658,0.0,0.0,4.993,0.0,0.0,0.0,4.8915,0.0,0.0,0.0,0.0,0.0,0.0,0.0,5.3747,5.3959,5.6301,5.7675,5.8319,5.9226,6.0016,6.0426,0.0,5.9418,6.0781,6.0781,0.0,0.0,5.9988,5.9719,0.0,0.0,0.0,0.0,0.0,0.0,0.0,0.0,0.0,0.0,5.6813,0.0,0.0,0.0,0.0,5.6618,0.0,0.0,0.0,0.0,0.0,0.0,0.0,0.0,0.0,0.0,0.0,0.0,0.0,0.0,0.0,0.0,0.0,0.0,6.0915,6.1092,6.2143,6.4499,6.4628,6.5013,6.5859,6.5897,6.5897,6.5897,6.5897,6.5897,6.5897,6.5936,6.6359,6.7167,6.8052,6.8936,6.9783,7.0552,7.0898,7.0898,7.0898,7.0898,7.0898,7.0898,7.0898,7.0898,7.0898,7.0898,7.0898,0.0,0.0,0.0,0.0,0.0,0.0,0.0,4.587,0.0,0.0,0.0,0.0,0.0,0.0,5.22,0.0,0.0,5.3836,5.3028,5.282,0.0,0.0,0.0,5.1141,0.0,0.0,0.0,0.0,0.0,0.0,0.0,0.0,0.0,0.0,0.0,5.3515,0.0,0.0,0.0,0.0,0.0,5.9353,6.0075,0.0,0.0,6.0781,6.0781,6.0781,0.0,6.0512,6.0106,5.9746,6.0128,5.9799,5.9348,5.9664,5.9616,0.0,0.0,0.0,5.9081,5.7732,0.0,0.0,0.0,0.0,0.0,0.0,0.0,0.0,0.0,0.0,0.0,0.0,0.0,0.0,0.0,0.0,0.0,0.0,0.0,0.0,0.0,0.0,0.0,6.0118,6.1138,6.232,6.3666,6.4282,6.5013,6.5859,6.5897,6.5897,6.5897,6.5897,6.5897,6.5897,6.5897,6.632,6.7128,6.8013,6.8898,6.9744,7.0552,7.0898,7.0898,7.0898,7.0898,7.0898,7.0898,7.0898,7.0898,7.0898,7.0898,7.0898,4.6175,0.0,0.0,0.0,0.0,0.0,0.0,0.0,0.0,0.0,4.9388,0.0,5.1331,0.0,5.3096,0.0,5.4246,5.472,5.3913,5.393,0.0,5.3999,5.2836,0.0,0.0,0.0,0.0,0.0,0.0,5.1574,0.0,0.0,0.0,0.0,0.0,0.0,0.0,0.0,5.8025,0.0,0.0,5.9611,0.0,0.0,6.0619,6.0436,0.0,6.0781,6.0781,6.0781,6.0475,6.021,6.0809,6.0405,5.9835,6.0465,6.0378,5.9949,5.9645,5.9904,0.0,5.8594,5.8633,0.0,5.7285,0.0,0.0,0.0,0.0,0.0,0.0,0.0,0.0,0.0,0.0,0.0,0.0,5.6378,0.0,0.0,0.0,0.0,0.0,0.0,5.9153,5.9669,6.0655,6.1726,0.0,0.0,6.4551,6.5397,6.5743,6.5897,6.5897,6.5897,6.5897,6.5897,6.5897,6.6167,6.6705,6.7552,6.8398,6.9283,7.0129,7.0629,7.0898,7.0898,7.0898,7.0898,7.0898,7.0898,7.0898,7.0898,7.0898,7.0898,0.0,0.0,0.0,0.0,4.6378,0.0,0.0,0.0,4.8281,0.0,5.0782,5.1617,5.2368,5.387,5.4797,5.4797,5.5434,0.0,5.4912,5.4818,0.0,0.0,5.4034,5.3938,5.4667,0.0,0.0,0.0,0.0,0.0,0.0,0.0,0.0,0.0,5.399,0.0,5.7439,5.8267,5.9459,6.0781,6.0781,6.0804,6.0727,6.0781,6.0324,5.9813,6.0547,6.0781,6.0781,6.0781,6.0804,6.085,6.0983,6.1103,6.1266,6.1422,6.1588,6.1529,6.0689,6.0457,6.0264,5.9374,0.0,0.0,0.0,0.0,5.7866,0.0,0.0,0.0,0.0,0.0,0.0,0.0,0.0,0.0,0.0,0.0,0.0,0.0,0.0,0.0,0.0,5.7499,5.8158,5.956,5.9692,6.0383,0.0,0.0,6.369,6.4589,6.5436,6.5897,6.5897,6.5897,6.5897,6.5897,6.5897,6.5897,6.5936,6.6744,6.759,6.8475,6.9321,7.0167,7.0898,7.0898,7.0898,7.0898,7.0898,7.0898,7.0898,7.0898,7.0898,7.0898,4.6236,4.6796,4.7276,0.0,4.7276,4.7354,0.0,0.0,0.0,0.0,5.2348,5.3332,5.4682,5.578,5.6395,5.6395,5.7165,0.0,0.0,0.0,0.0,5.6387,5.4608,5.3957,5.4691,5.3889,0.0,5.3476,0.0,0.0,5.3678,0.0,0.0,0.0,0.0,0.0,5.7392,5.7653,5.8901,6.0781,6.0781,6.0475,0.0,0.0,6.0324,5.9813,6.0547,6.0781,6.0781,6.0781,6.0856,6.0963,6.0983,6.1182,6.1412,6.1481,6.1588,6.1642,6.1412,6.1377,6.1147,6.0264,6.0076,5.9843,0.0,0.0,0.0,0.0,0.0,0.0,0.0,0.0,0.0,0.0,0.0,0.0,0.0,0.0,0.0,5.6291,0.0,0.0,5.6644,5.7656,5.8474,5.8861,5.9385,6.0383,6.1997,0.0,0.0,6.4551,6.5436,6.5897,6.5897,6.5897,6.5897,6.5897,6.5897,6.5897,6.5936,6.6744,6.759,6.8475,6.9321,7.0167,7.0898,7.0898,7.0898,7.0898,7.0898,7.0898,7.0898,7.0898,7.0898,7.0898,4.6748,0.0,0.0,4.8135,0.0,0.0,4.9178,0.0,0.0,5.2601,5.3519,0.0,5.5672,5.6865,5.755,5.755,5.8011,0.0,0.0,0.0,0.0,5.7088,5.6181,5.5843,5.625,5.5612,0.0,5.4803,0.0,0.0,5.4576,0.0,0.0,0.0,0.0,5.5664,0.0,5.8148,5.9142,6.0362,6.0657,0.0,0.0,6.0619,6.0547,6.0229,6.0657,6.0781,6.0781,6.0781,6.0899,6.102,6.1053,6.1305,6.15,6.158,6.1654,6.172,6.172,6.172,6.1564,6.1069,6.0959,6.0733,5.9882,5.9648,5.9609,0.0,0.0,0.0,0.0,0.0,0.0,0.0,0.0,0.0,0.0,0.0,0.0,0.0,5.6714,0.0,5.6353,5.7731,5.8655,5.8559,5.9015,5.9643,0.0,0.0,0.0,6.3566,6.4701,6.5513,6.5897,6.5897,6.5897,6.5897,6.5897,6.5897,6.5897,6.6359,6.7244,6.8436,6.8936,6.9821,7.0898,7.0898,7.0898,7.0898,7.0898,7.0898,7.0898,7.0898,7.0898,7.0898,0.0,0.0,0.0,0.0,0.0,0.0,0.0,5.1053,0.0,5.3602,0.0,5.5384,5.6117,5.7544,5.8473,5.8473,0.0,5.8335,5.7697,5.8143,5.8181,5.7543,5.7989,5.8319,5.8319,5.7703,0.0,0.0,0.0,0.0,0.0,0.0,0.0,0.0,0.0,0.0,0.0,5.9121,5.9753,0.0,6.0547,6.0781,6.0781,6.0781,6.0781,6.0781,6.0781,6.0804,6.0827,6.0827,6.0923,6.1109,6.1211,6.139,6.1564,6.1666,6.172,6.172,6.172,6.172,6.172,6.172,6.172,6.149,6.0733,6.0544,6.0506,6.0542,5.9922,5.9803,0.0,0.0,0.0,0.0,0.0,0.0,0.0,0.0,0.0,0.0,0.0,0.0,5.633,5.7703,5.8543,5.8371,5.8474,5.8585,0.0,0.0,0.0,6.2412,6.3846,6.5013,6.5897,0.0,6.5897,6.5897,6.5897,6.5897,6.5897,6.5897,6.6821,6.8398,6.8398,6.936,7.0898,7.0898,7.0898,7.0898,7.0898,7.0898,7.0898,7.0898,7.0898,7.0898,0.0,0.0,0.0,0.0,0.0,5.2489,5.3097,5.3594,5.4271,5.537,5.6167,5.6946,5.779,5.871,5.9281,5.9281,5.9935,0.0,0.0,0.0,0.0,5.9127,5.8588,5.8319,5.8319,5.828,5.7889,0.0,0.0,0.0,0.0,0.0,0.0,0.0,0.0,0.0,5.857,5.936,0.0,6.0641,6.0727,6.0781,6.0781,6.0781,6.0781,6.0781,6.0781,6.0877,6.0945,6.0945,6.1174,6.144,6.1461,6.1564,6.1666,6.1676,6.172,6.172,6.172,6.172,6.172,6.172,6.172,6.1642,6.149,6.1456,6.1456,6.1456,6.1342,6.1079,6.0621,0.0,0.0,0.0,0.0,0.0,0.0,0.0,0.0,0.0,0.0,5.7946,0.0,5.7102,5.7642,5.7606,5.7656,5.8231,0.0,0.0,0.0,0.0,6.4075,0.0,0.0,0.0,6.5897,6.5897,6.5897,6.5897,6.5897,6.5897,6.6821,6.8398,6.8398,6.936,7.0898,7.0898,7.0898,7.0898,7.0898,7.0898,7.0898,7.0898,7.0898,7.0898,0.0,0.0,0.0,0.0,0.0,0.0,0.0,5.5428,0.0,5.5901,5.6991,5.7907,5.8315,5.9451,6.0165,6.0165,6.055,6.0781,6.0781,6.0396,6.0165,6.0165,5.9781,0.0,5.9588,5.9665,5.9148,5.8076,0.0,0.0,0.0,0.0,0.0,0.0,0.0,5.7489,0.0,0.0,0.0,6.0248,6.0641,6.0781,6.0781,6.0781,6.0781,6.0781,6.0781,6.092,6.1077,6.1002,6.1235,6.149,6.149,6.1588,6.172,6.172,6.172,6.172,6.172,6.172,6.172,6.172,6.172,6.172,6.172,6.172,6.172,6.172,6.172,6.142,6.0467,5.96,0.0,0.0,0.0,0.0,0.0,0.0,0.0,0.0,0.0,0.0,0.0,0.0,0.0,0.0,0.0,5.7984,0.0,0.0,0.0,0.0,0.0,0.0,0.0,0.0,0.0,6.5897,6.5897,6.5897,6.5897,6.5897,6.6821,6.8398,6.8398,6.936,7.0898,7.0898,7.0898,7.0898,7.0898,7.0898,7.0898,7.0898,7.0898,7.0898,0.0,5.1301,0.0,0.0,5.3617,0.0,5.594,5.6943,5.733,5.6747,5.7799,5.8684,5.8878,6.0053,6.0781,6.0781,6.0781,6.0781,6.0781,6.0781,6.0781,6.0781,6.0781,6.0781,6.0781,6.0781,6.0166,0.0,0.0,0.0,0.0,0.0,0.0,0.0,0.0,0.0,0.0,0.0,5.9778,5.9985,6.0569,6.0781,6.0781,6.0781,6.0781,6.0819,6.1012,6.125,6.1479,6.1581,6.1691,6.1829,6.1829,6.2031,6.2267,6.2267,6.2267,6.2267,6.2267,6.2267,6.2267,6.2267,6.2267,6.2267,6.2267,6.2267,6.2267,6.2267,6.211,6.1616,6.0506,5.988,0.0,0.0,0.0,0.0,0.0,0.0,0.0,0.0,0.0,0.0,0.0,0.0,0.0,0.0,0.0,5.7806,5.8552,5.8655,5.9826,0.0,0.0,6.3916,6.5673,0.0,6.5897,6.5897,6.5897,6.5897,6.5897,6.5897,6.6821,6.8398,6.8398,6.936,7.0871,7.0871,7.0871,7.0871,7.0871,7.0871,7.0898,7.0898,7.0898,7.0898,0.0,0.0,0.0,0.0,0.0,0.0,0.0,5.8335,5.9249,5.9155,5.9293,5.9716,6.0503,6.0689,6.0781,6.0781,6.0781,6.0781,6.0781,6.0781,6.0781,6.0781,6.0781,6.0781,6.0781,6.0781,6.0419,0.0,0.0,0.0,0.0,0.0,0.0,0.0,0.0,0.0,0.0,5.9627,6.008,6.0696,6.0766,6.0781,6.0781,6.0781,6.0781,6.0896,6.1704,6.2138,6.2504,6.3261,6.3223,6.2847,6.2847,6.3394,6.4062,6.4062,6.4062,6.4062,6.4062,6.4062,6.4062,6.4062,6.4062,6.4062,6.4062,6.4062,6.4062,6.4062,6.3438,6.2358,6.0624,6.0928,6.1157,0.0,0.0,0.0,0.0,0.0,0.0,0.0,0.0,0.0,0.0,5.8788,0.0,0.0,5.7928,5.7812,5.8465,5.8632,5.9799,6.2228,0.0,6.3204,6.487,6.5566,6.5897,6.5897,6.5897,6.5897,6.5897,6.5897,6.6821,6.8398,6.8398,6.9306,7.0787,7.0748,7.0758,7.0796,7.0796,7.0853,7.0898,7.0898,7.0898,7.0898,0.0,0.0,0.0,0.0,0.0,0.0,0.0,5.9083,5.9704,6.0227,6.0304,6.0419,6.0742,6.0781,6.0781,6.0781,6.0781,6.0781,6.0781,6.0781,6.0781,6.0781,6.0781,6.0781,6.0781,6.0781,6.0435,0.0,0.0,0.0,0.0,0.0,0.0,0.0,0.0,5.9182,5.9721,6.0179,6.0519,6.0781,6.0781,6.0781,6.0858,6.1373,6.1565,6.1704,6.2526,6.3007,6.3317,6.3689,6.378,6.3789,6.3789,6.4023,6.4297,6.4297,6.4297,6.4297,6.4297,6.4297,6.4297,6.4297,6.4297,6.4297,6.4297,6.4297,6.4297,6.4297,6.4023,6.356,6.2833,6.2136,6.1709,0.0,0.0,0.0,0.0,0.0,0.0,0.0,0.0,0.0,0.0,0.0,0.0,0.0,0.0,5.8476,5.8509,5.9581,6.0825,6.2199,0.0,6.4238,6.5457,6.5741,6.5897,6.5897,6.5897,6.5897,6.5897,6.5897,6.6795,6.8394,6.9365,7.0143,7.0729,7.0699,7.0737,7.0746,7.0796,7.0815,7.086,7.0898,7.0898,7.0898,5.5383,0.0,5.6299,0.0,5.7889,5.8312,5.9688,6.0089,6.0512,6.1112,6.1396,6.1473,6.1228,6.1166,6.1281,6.1497,6.1512,6.155,6.1512,6.132,6.1166,6.1166,6.0935,0.0,6.0781,6.0781,6.055,6.0027,5.9321,0.0,0.0,0.0,0.0,0.0,5.9474,5.9824,6.0067,6.0569,6.0781,6.0781,6.0781,6.0935,6.1243,6.1873,6.2257,6.2565,6.3372,6.3897,6.42,6.4464,6.4738,6.4999,6.4765,6.4843,6.5038,6.5038,6.5038,6.5038,6.5038,6.5038,6.5038,6.5038,6.5038,6.5038,6.5038,6.5038,6.496,6.4726,6.4687,6.4609,6.4336,6.3266,6.2608,6.3286,0.0,0.0,0.0,0.0,0.0,0.0,6.0696,6.0309,6.0315,5.9726,0.0,0.0,0.0,0.0,5.93,6.0526,0.0,0.0,0.0,0.0,0.0,6.5793,6.5897,6.5897,6.5897,6.5897,6.5936,6.6372,6.723,6.8405,6.9979,7.0678,7.0678,7.0609,7.0654,7.0662,7.0737,7.0787,7.0777,7.0871,7.0898,7.0871,5.717,5.7796,5.8596,5.935,5.9473,5.9765,6.0627,6.1535,6.2059,6.2098,6.2796,6.2963,6.2151,6.205,6.2421,6.3199,6.3267,6.3281,6.3267,6.2536,6.2089,0.0,0.0,6.0781,6.0781,6.0781,6.0781,6.0781,0.0,0.0,5.965,0.0,5.9017,5.9692,5.9692,6.0089,6.0804,6.0781,6.0781,6.0781,6.0781,6.132,6.2089,6.2127,6.2565,6.3411,6.4295,6.4782,6.5211,6.6006,6.6496,6.6639,6.5824,6.6131,6.6756,6.6756,6.6756,6.6756,6.6756,6.6756,6.6756,6.6756,6.6756,6.6756,6.6756,6.6756,6.6522,6.5741,6.5585,6.5312,6.4453,6.4297,6.4258,6.4297,0.0,0.0,0.0,0.0,0.0,0.0,6.0305,6.0309,6.0315,6.0305,0.0,0.0,0.0,0.0,0.0,0.0,0.0,6.3546,6.355,0.0,6.479,6.5527,6.5897,6.5897,6.5897,6.5897,6.5936,6.7549,6.829,6.8377,6.9919,7.0623,7.0585,7.0451,7.0495,7.0604,7.0685,7.0716,7.0724,7.0853,7.0843,7.0815,5.8642,5.8989,5.9604,6.1012,6.1266,6.1559,6.2367,6.2737,6.2906,6.2921,6.3152,6.3445,6.3762,6.3267,6.3051,0.0,6.3295,6.3295,0.0,6.3051,6.2935,6.2935,6.2627,6.2267,6.1704,6.1689,6.142,6.0781,0.0,0.0,0.0,5.9483,5.9761,6.0436,6.0439,6.0569,6.0781,6.0781,6.0781,6.0858,6.145,6.1834,6.2243,6.3358,6.3974,6.432,6.5166,6.5667,6.5958,6.62,6.6535,6.6756,6.6483,6.66,6.6795,6.6795,6.6795,6.6795,6.6795,6.6795,6.6795,6.6795,6.6795,6.6795,6.6795,6.6795,6.6717,6.6483,6.6405,6.6327,6.6053,6.5546,6.5194,6.5194,6.4687,0.0,0.0,0.0,0.0,0.0,6.3047,6.3037,0.0,6.3043,0.0,0.0,0.0,0.0,0.0,0.0,0.0,0.0,6.4577,0.0,6.5566,6.5755,6.5897,6.5897,6.5897,6.6179,6.6704,6.7735,6.8522,6.9038,7.0056,7.0451,7.0451,7.0419,7.0419,7.0457,7.0585,7.0654,7.0654,7.0737,7.0758,7.0787,6.0781,6.0935,6.1266,6.2367,6.256,6.2737,6.3199,6.3561,6.3806,6.3795,6.4075,6.4484,6.5048,6.4614,0.0,6.427,6.4295,6.4257,6.4257,6.3974,6.3782,6.3795,6.3474,6.3051,6.2551,0.0,0.0,6.1743,6.0963,6.044,6.0113,6.0113,6.0362,6.0781,6.0781,6.0781,6.0781,6.0781,6.0973,6.1343,6.1873,6.2488,6.3166,6.4205,6.4782,6.5166,6.5705,6.6051,6.6227,6.6278,6.6496,6.6717,6.6795,6.6795,6.6795,6.6795,6.6795,6.6795,6.6795,6.6795,6.6795,6.6795,6.6795,6.6795,6.6795,6.6795,6.6795,6.6795,6.6795,6.6795,6.6795,6.6405,6.6053,6.6053,6.5585,6.5116,6.4843,0.0,0.0,0.0,0.0,0.0,0.0,6.3623,6.3467,0.0,0.0,0.0,0.0,0.0,0.0,6.4406,6.5388,0.0,6.5897,6.5897,6.5897,6.5897,6.5897,6.6269,6.7034,6.7822,6.8578,6.936,7.0069,7.0419,7.0419,7.0419,7.0419,7.0419,7.0554,7.0554,7.0554,7.0678,7.0737,7.0737,6.3161,6.3315,0.0,0.0,6.3392,0.0,6.3469,6.4191,6.468,6.468,6.5397,6.5897,6.5897,6.5897,6.5897,6.5897,0.0,0.0,0.0,6.5128,6.4705,6.468,6.3911,6.3449,6.3372,6.3372,6.3372,6.3295,6.2551,6.1781,6.0973,6.0973,6.0935,6.0896,6.0896,6.0896,6.0896,6.0896,6.1381,6.2213,6.2257,6.3218,6.4614,6.4666,6.5205,6.5897,6.5897,6.5974,6.6126,6.6242,6.6446,6.66,6.6756,6.6795,6.6795,6.6795,6.6795,6.6795,6.6795,6.6795,6.6795,6.6795,6.6795,6.6795,6.6795,6.6795,6.6795,6.6795,6.6795,6.6795,6.6795,6.6795,6.6795,6.6795,6.679,6.6517,6.578,0.0,0.0,0.0,0.0,0.0,0.0,6.2795,6.2938,0.0,0.0,0.0,0.0,0.0,6.4435,6.5846,6.5897,6.5897,6.5897,6.5897,6.5897,6.5897,6.5974,6.6346,6.711,6.7937,6.8655,6.9437,7.0107,7.0419,7.0419,7.0419,7.0419,7.0419,7.0554,7.0522,7.0419,7.0609,7.0647,7.0616,0.0,0.0,6.3526,6.418,6.4282,6.4512,6.5191,6.5436,6.559,6.559,6.5782,6.5897,6.5897,6.5897,6.5897,6.5897,6.5897,6.5897,6.5897,6.5705,6.559,6.559,6.5397,6.4974,6.432,6.4282,6.3974,6.332,6.3128,6.2897,6.2704,6.2704,6.2397,6.1781,6.1781,6.1805,6.1766,6.1766,6.2252,6.3084,6.3743,6.4257,6.4691,6.532,6.5705,6.5897,6.5897,6.5974,6.6115,6.6121,6.6368,6.66,6.6639,6.6717,6.6795,6.6795,6.6795,6.6795,6.6795,6.6795,6.6795,6.6795,6.6795,6.6795,6.6795,6.6795,6.6795,6.6795,6.6795,6.6795,6.6795,6.6795,6.6795,6.6795,6.6697,6.6594,6.6399,6.6249,0.0,0.0,6.546,6.5457,6.545,6.5393,6.5196,0.0,0.0,0.0,0.0,6.4536,6.4886,6.5884,6.5897,6.5897,6.5897,6.5897,6.5897,6.5897,6.6513,6.7203,6.7937,6.8752,6.9467,7.0145,7.0304,7.0419,7.0419,7.0419,7.0419,7.0419,7.0419,7.0419,7.0419,7.0451,7.0554,7.0585,6.4487,6.4501,6.4641,6.5103,6.518,6.5333,6.582,6.5897,6.5897,6.5897,6.5897,6.5897,6.5897,6.5897,6.5897,6.5897,6.5897,6.5897,6.5897,6.5897,6.5897,6.5897,6.5897,6.5667,6.5205,6.5166,6.4782,6.3897,6.3897,6.3705,6.332,6.332,6.3089,6.2666,6.2666,6.2651,6.2651,6.2651,6.3113,6.3945,6.4436,6.4834,6.5243,6.5705,6.5897,6.5897,6.5897,6.5936,6.6013,6.609,6.6224,6.6361,6.6447,6.6522,6.66,6.6678,6.6756,6.6795,6.6795,6.6795,6.6795,6.6795,6.6795,6.6795,6.6795,6.6795,6.6795,6.6795,6.6795,6.679,6.672,6.6713,6.6697,6.6576,6.6234,6.6126,6.642,6.6127,0.0,6.6281,6.6221,6.623,6.623,6.6144,6.5894,6.5446,0.0,0.0,6.5257,6.5257,6.5462,6.5897,6.5897,6.5897,6.5897,6.5897,6.5897,6.5897,6.6679,6.7483,6.8254,6.9029,6.9743,7.0419,7.0419,7.0419,7.0419,7.0419,7.0419,7.0419,7.0419,7.0419,7.0419,7.0419,7.0451,7.0522,6.5923,6.5974,6.5897,6.5897,6.5897,6.5897,6.5897,6.5897,6.5897,6.5897,6.5897,6.5897,6.5897,6.5897,6.5897,6.5897,6.5897,6.5897,6.5897,6.5897,6.5897,6.5897,6.5897,6.5897,6.5897,6.5897,6.5551,6.4782,6.4782,6.4436,6.3705,6.3705,6.3628,6.3512,6.3512,6.3512,6.3537,6.3474,6.4012,6.4806,6.4795,6.5218,6.5897,6.5897,6.5897,6.5897,6.5897,6.5897,6.5897,6.6013,6.609,6.6144,6.6229,6.626,6.6346,6.6518,6.6649,6.6733,6.679,6.6795,6.6795,6.6795,6.6795,6.6795,6.6795,6.6795,6.6795,6.6795,6.679,6.6727,6.6605,6.6574,6.6462,6.6192,6.5738,6.5589,6.6049,0.0,6.559,6.6167,6.6128,6.6051,6.6051,6.5974,6.5897,6.5897,6.5897,6.5897,6.5897,6.5897,6.5897,6.5897,6.5897,6.5897,6.5897,6.5897,6.5974,6.609,6.6857,6.7648,6.8407,6.9191,6.9827,7.0419,7.0419,7.0419,7.0419,7.0419,7.0419,7.0419,7.0419,7.0419,7.0419,7.0419,7.0419,7.0419,6.6073,6.5974,6.5897,6.5897,6.5897,6.5897,6.5897,6.5897,6.5897,6.5897,6.5897,6.5897,6.5897,6.5897,6.5897,6.5897,6.5897,6.5897,6.5897,6.5897,6.5897,6.5897,6.5897,6.5897,6.5897,6.5897,6.582,6.5705,6.5705,6.5628,6.5513,6.5513,6.5089,6.4397,6.4397,6.446,6.4537,6.446,6.496,6.5859,6.5743,6.5782,6.5897,6.5897,6.5897,6.5897,6.5897,6.5897,6.5897,6.5897,6.6013,6.6101,6.6129,6.6212,6.6316,6.6355,6.6353,6.6438,6.6727,6.6795,6.6795,6.6795,6.6795,6.6795,6.6795,6.6795,6.6795,6.6795,6.6713,6.6615,6.6595,6.6465,6.6141,6.5488,6.5699,6.5777,6.529,0.0,6.5859,6.5936,6.5936,6.5936,6.5936,6.5897,6.5897,6.5897,6.5897,6.5897,6.5897,6.5897,6.5897,6.5897,6.5897,6.5897,6.5897,6.5897,6.6244,6.6898,6.7756,6.8548,6.9251,7.0094,7.0463,7.0419,7.0419,7.0419,7.0419,7.0419,7.0419,7.0419,7.0419,7.0419,7.0419,7.0419,7.0419,7.0419,6.6244,6.6102,6.5958,6.5884,6.5897,6.6051,6.6474,6.6551,6.6705,6.7205,6.7244,6.7244,6.7244,6.7244,6.7244,6.7256,6.6808,6.6538,6.6538,6.6128,6.5897,6.5897,6.5897,6.5897,6.5897,6.5897,6.5897,6.5897,6.5897,6.5897,6.5897,6.5897,6.5705,6.5282,6.5282,6.5359,6.5499,6.5384,6.5615,6.609,6.5936,6.5897,6.5897,6.5897,6.5897,6.5897,6.5897,6.5897,6.5897,6.5897,6.5936,6.5974,6.5974,6.6013,6.6101,6.6167,6.6242,6.6348,6.6615,6.6681,6.6697,6.6706,6.6756,6.6795,6.6717,6.6681,6.6681,6.6697,6.6546,6.6425,6.6353,6.6273,6.6066,6.563,6.5468,0.0,0.0,6.5391,6.5474,6.5859,6.5897,6.5897,6.5897,6.5897,6.5897,6.5897,6.5897,6.5897,6.5897,6.5897,6.5897,6.5897,6.5897,6.5897,6.5897,6.632,6.6744,6.7128,6.8383,6.9135,6.9442,7.0264,7.0585,7.0419,7.0419,7.0419,7.0419,7.0419,7.0419,7.0419,7.0419,7.0419,7.0419,7.0419,7.0419,7.0419,6.6334,6.6205,6.6108,6.614,6.6167,6.6474,6.7282,6.7398,6.7628,6.8321,6.8398,6.8398,6.8398,6.8398,6.8398,6.8411,6.777,6.7308,6.7116,6.6538,6.609,6.5897,6.5897,6.5897,6.5897,6.5897,6.5897,6.5897,6.5897,6.5897,6.5897,6.5897,6.5897,6.5897,6.5936,6.6013,6.6128,6.5974,6.6013,6.6128,6.5974,6.5897,6.5897,6.5897,6.5897,6.5897,6.5897,6.5897,6.5897,6.5897,6.5897,6.5897,6.5897,6.5897,6.5897,6.6013,6.6147,6.6266,6.6464,6.6543,6.6535,6.651,6.6603,6.6674,6.6571,6.6525,6.6546,6.6524,6.6373,6.6234,6.6109,6.6067,6.5986,6.5672,0.0,0.0,0.0,6.5288,6.5257,6.582,6.5897,6.5897,6.5897,6.5897,6.5897,6.5897,6.5897,6.5897,6.5897,6.5897,6.5897,6.5897,6.5897,6.5897,6.5897,6.6705,6.7205,6.7436,6.8883,6.9606,6.974,7.0341,7.0554,7.0451,7.0419,7.0419,7.0419,7.0419,7.0419,7.0419,7.0419,7.0419,7.0419,7.0419,7.0419,7.0419,6.6355,6.6206,6.6278,6.691,6.7013,6.7282,6.8167,6.8321,6.8321,6.8398,6.8398,6.8398,6.8398,6.8371,6.841,6.8371,6.8345,6.7987,6.7154,6.7039,6.6692,6.5936,6.5897,6.5897,6.5897,6.5897,6.5897,6.5897,6.5897,6.5897,6.5897,6.5897,6.5897,6.5897,6.6013,6.6167,6.6307,6.6128,6.6167,6.6269,6.5974,6.5897,6.5897,6.5897,6.5897,6.5897,6.5897,6.5897,6.5897,6.5897,6.5897,6.5897,6.5897,6.5897,6.5897,6.5897,6.5947,6.5967,6.6264,6.6329,6.6307,6.6318,6.6335,6.6334,6.6307,6.6338,6.6323,6.6309,6.6195,6.6128,6.6089,6.6013,6.5688,6.4892,0.0,0.0,6.4879,6.5368,6.582,6.5897,6.5897,6.5897,6.5897,6.5897,6.5897,6.5897,6.5897,6.5897,6.5897,6.5897,6.5897,6.5897,6.5897,6.5897,6.5897,6.6705,6.7513,6.8321,6.9244,7.0036,7.071,7.0699,7.0647,7.0554,7.0451,7.0419,7.0419,7.0419,7.0419,7.0419,7.0419,7.0419,7.0419,7.0419,7.0419,7.0419,6.7217,6.7144,6.725,6.7972,6.7986,6.8205,6.909,6.9206,6.9398,6.9898,6.9937,6.9937,6.9937,6.9975,6.9975,6.9975,6.9487,6.9064,6.8744,6.7693,6.6731,6.5936,6.5897,6.5897,6.5897,6.5897,6.5897,6.5897,6.5897,6.5897,6.5897,6.5897,6.5897,6.5897,6.6051,6.6167,6.6284,6.6159,6.6167,6.6307,6.6013,6.5897,6.5897,6.5897,6.5897,6.5897,6.5897,6.5897,6.5897,6.5897,6.5897,6.5897,6.5897,6.5897,6.5897,6.5897,6.5897,6.5923,6.6029,6.6128,6.6173,6.6189,6.626,6.6273,6.6189,6.6167,6.62,6.6161,6.6069,6.5974,6.5967,6.5933,6.5779,6.5466,0.0,6.5789,6.5508,6.571,6.5897,6.5897,6.5897,6.5897,6.5897,6.5897,6.5897,6.5897,6.5897,6.5897,6.5897,6.5897,6.5897,6.5897,6.6359,6.6628,6.6628,6.7475,6.8359,6.9206,7.0052,7.0563,7.0787,7.0758,7.0708,7.0623,7.0554,7.0451,7.0419,7.0419,7.0419,7.0419,7.0419,7.0419,7.0419,7.0419,7.0419,7.0419,6.8222,6.8147,6.8219,6.8953,6.8921,6.909,6.9937,7.009,7.0283,7.0821,7.0898,7.0898,7.0898,7.0898,7.0898,7.0898,7.0371,6.9986,6.9717,6.8052,6.6731,6.5936,6.5897,6.5897,6.5897,6.5897,6.5897,6.5897,6.5897,6.5897,6.5897,6.5897,6.5897,6.5897,6.6051,6.6167,6.6283,6.6183,6.6167,6.6307,6.6013,6.5897,6.5897,6.5897,6.5897,6.5897,6.5897,6.5897,6.5897,6.5897,6.5897,6.5897,6.5897,6.5897,6.5897,6.5897,6.5897,6.5897,6.5897,6.5943,6.6046,6.6032,6.6109,6.6147,6.605,6.6041,6.6049,6.6046,6.5951,6.5897,6.5897,6.5897,6.5897,6.5897,6.5897,6.5897,6.5897,6.5897,6.5897,6.5897,6.5897,6.5897,6.5897,6.5897,6.5897,6.5897,6.5897,6.5897,6.5897,6.5897,6.6013,6.6282,6.6821,6.7359,6.7898,6.8513,6.9129,6.9706,7.0514,7.0871,7.0815,7.0815,7.0767,7.0616,7.0623,7.0522,7.0419,7.0419,7.0419,7.0419,7.0419,7.0419,7.0419,7.0419,7.0419,7.0419,6.9236,6.9033,6.914,6.9786,6.9808,6.9975,7.0783,7.0898,7.0898,7.0898,7.0898,7.0898,7.0898,7.0898,7.0898,7.0898,7.0898,7.0552,6.9756,6.8052,6.6769,6.5936,6.5897,6.5897,6.5897,6.5897,6.5897,6.5897,6.5897,6.5897,6.5897,6.5897,6.5897,6.5897,6.6051,6.6192,6.6307,6.6153,6.6192,6.6269,6.6013,6.5897,6.5897,6.5897,6.5897,6.5897,6.5897,6.5897,6.5897,6.5897,6.5897,6.5897,6.5897,6.5897,6.5897,6.5897,6.5897,6.5897,6.5897,6.5897,6.5897,6.5897,6.5897,6.5897,6.5897,6.5897,6.5897,6.5897,6.5897,6.5897,6.5897,6.5897,6.5897,6.5897,6.5897,6.5897,6.5897,6.5897,6.5897,6.5897,6.5897,6.5897,6.5897,6.5897,6.5897,6.5897,6.5897,6.5897,6.5897,6.5897,6.6282,6.7051,6.709,6.7936,6.9667,6.9706,6.9706,6.9706,7.0514,7.0898,7.0898,7.0815,7.0758,7.0708,7.0616,7.0522,7.0419,7.0419,7.0419,7.0419,7.0419,7.0419,7.0419,7.0419,7.0419,7.0419,7.0128,7.0006,7.0078,7.089,7.0738,7.0629,7.086,7.0898,7.0898,7.0898,7.0898,7.0898,7.0898,7.0898,7.0898,7.0898,7.0898,7.0552,6.9756,6.9206,6.827,6.6821,6.6205,6.5897,6.5897,6.5897,6.5897,6.5897,6.5897,6.5897,6.5897,6.5897,6.5897,6.5897,6.6128,6.6267,6.6301,6.6263,6.6264,6.626,6.5996,6.5897,6.5897,6.5897,6.5897,6.5897,6.5897,6.5897,6.5897,6.5897,6.5897,6.5897,6.5897,6.5897,6.5897,6.5897,6.5897,6.5897,6.5897,6.5897,6.5897,6.5897,6.5897,6.5897,6.5897,6.5897,6.5897,6.5897,6.5897,6.5897,6.5897,6.5897,6.5897,6.5897,6.5897,6.5897,6.5897,6.5897,6.5897,6.5897,6.5897,6.5897,6.5897,6.5897,6.5897,6.5897,6.5897,6.5897,6.5897,6.6436,6.6859,6.709,6.8282,6.9167,6.9706,6.9706,6.9975,7.0552,7.0783,7.0898,7.0898,7.0871,7.0787,7.0708,7.0678,7.0547,7.0419,7.0419,7.0419,7.0419,7.0419,7.0419,7.0419,7.0419,7.0419,7.0419,7.1128,7.0976,7.0937,7.1403,7.1218,7.0992,7.0925,7.0898,7.0898,7.0898,7.0898,7.0898,7.0898,7.0898,7.0898,7.0898,7.0898,7.0706,7.0217,6.9898,6.9244,6.8167,6.6974,6.623,6.5897,6.5897,6.5897,6.5897,6.5897,6.5897,6.5897,6.5897,6.5897,6.5897,6.6113,6.6239,6.6318,6.6237,6.6239,6.6264,6.6005,6.5897,6.5897,6.5897,6.5897,6.5897,6.5897,6.5897,6.5897,6.5897,6.5897,6.5897,6.5897,6.5897,6.5897,6.5897,6.5897,6.5897,6.5897,6.5897,6.5897,6.5897,6.5897,6.5897,6.5897,6.5897,6.5897,6.5897,6.5897,6.5897,6.5897,6.5897,6.5897,6.5897,6.5897,6.5897,6.5897,6.5897,6.5897,6.5897,6.5897,6.5897,6.5897,6.5897,6.5897,6.5897,6.5897,6.6051,6.6359,6.6821,6.7398,6.809,6.9167,6.986,7.0167,7.0167,7.0437,7.0898,7.0898,7.0898,7.0898,7.0898,7.0843,7.0729,7.0737,7.0678,7.0515,7.049,7.0457,7.0451,7.0419,7.0419,7.0419,7.0419,7.0419,7.0419,7.1987,7.1846,7.1665,7.1529,7.132,7.1139,7.0925,7.0898,7.0898,7.0898,7.0898,7.0898,7.0898,7.0898,7.0898,7.0898,7.0898,7.0898,7.0898,7.0217,6.9756,6.9706,6.8193,6.6923,6.6013,6.5936,6.5897,6.5897,6.5897,6.5897,6.5897,6.5897,6.5897,6.5923,6.6032,6.6166,6.6252,6.6144,6.6187,6.6264,6.6005,6.5897,6.5897,6.5897,6.5897,6.5897,6.5897,6.5897,6.5897,6.5897,6.5897,6.5897,6.5897,6.5897,6.5897,6.5897,6.5897,6.5897,6.5897,6.5897,6.5897,6.5897,6.5897,6.5897,6.5897,6.5897,6.5897,6.5897,6.5897,6.5897,6.5897,6.5897,6.5897,6.5897,6.5897,6.5897,6.5897,6.5897,6.5897,6.5897,6.5897,6.5897,6.5897,6.5897,6.5936,6.6013,6.6013,6.6359,6.7167,6.7282,6.8052,6.9667,6.9783,7.0167,7.0898,7.0898,7.0898,7.0898,7.0898,7.0898,7.0898,7.0898,7.0871,7.0787,7.0796,7.0767,7.0708,7.063,7.0598,7.0554,7.0451,7.0419,7.0419,7.0419,7.0419,7.0419,7.1987,7.1828,7.1641,7.1537,7.1337,7.1133,7.0937,7.0898,7.0898,7.0898,7.0898,7.0898,7.0898,7.0898,7.0898,7.0898,7.0898,7.0898,7.0898,7.0744,7.036,6.9744,6.936,6.8436,6.6846,6.623,6.5897,6.5897,6.5897,6.5897,6.5897,6.5897,6.5897,6.5897,6.602,6.6108,6.6151,6.6102,6.6135,6.6108,6.5982,6.5897,6.5897,6.5897,6.5897,6.5897,6.5897,6.5897,6.5897,6.5897,6.5897,6.5897,6.5897,6.5897,6.5897,6.5897,6.5897,6.5897,6.5897,6.5897,6.5897,6.5897,6.5897,6.5897,6.5897,6.5897,6.5897,6.5897,6.5897,6.5897,6.5897,6.5897,6.5897,6.5897,6.5897,6.5897,6.5897,6.5897,6.5897,6.5897,6.5897,6.5897,6.5897,6.5897,6.6167,6.6782,6.6859,6.7205,6.809,6.8783,6.9321,6.9706,7.0321,7.0706,7.0898,7.0898,7.0898,7.0898,7.0898,7.0898,7.0898,7.0898,7.0871,7.0787,7.0796,7.0737,7.0616,7.0623,7.0554,7.0451,7.0419,7.0419,7.0419,7.0419,7.0419,7.0419,7.1987,7.1909,7.177,7.1536,7.1397,7.1221,7.0964,7.0898,7.0898,7.0898,7.0898,7.0898,7.0898,7.0898,7.0898,7.0898,7.0898,7.0898,7.0898,7.0898,7.0706,7.0283,6.9898,6.909,6.7744,6.6923,6.6307,6.5897,6.5897,6.5897,6.5897,6.5897,6.5897,6.5897,6.602,6.6102,6.6109,6.6119,6.6119,6.6088,6.5958,6.5897,6.5897,6.5897,6.5897,6.5897,6.5897,6.5897,6.5897,6.5897,6.5897,6.5897,6.5897,6.5897,6.5897,6.5897,6.5897,6.5897,6.5897,6.5897,6.5897,6.5897,6.5897,6.5897,6.5897,6.5897,6.5897,6.5897,6.5897,6.5897,6.5897,6.5897,6.5897,6.5897,6.5897,6.5897,6.5897,6.5897,6.5897,6.5897,6.5897,6.6051,6.6436,6.6859,6.7282,6.7679,6.7744,6.809,6.8975,6.9436,6.9898,7.0244,7.0667,7.0898,7.0898,7.0898,7.0898,7.0898,7.0898,7.0898,7.0898,7.0898,7.0871,7.0843,7.0882,7.0825,7.0737,7.0647,7.0616,7.0547,7.0451,7.0419,7.0419,7.0419,7.0419,7.0419,7.1987,7.1987,7.1884,7.1555,7.1503,7.1363,7.0952,7.0898,7.0898,7.0898,7.0898,7.0898,7.0898,7.0898,7.0898,7.0898,7.0898,7.0898,7.0898,7.0898,7.0898,7.0898,7.0244,6.9513,6.8641,6.7744,6.6846,6.5897,6.5897,6.5897,6.5897,6.5897,6.5897,6.5923,6.5997,6.6046,6.6046,6.6046,6.6046,6.6063,6.5958,6.5897,6.5897,6.5897,6.5897,6.5897,6.5897,6.5897,6.5897,6.5897,6.5897,6.5897,6.5897,6.5897,6.5897,6.5897,6.5897,6.5897,6.5897,6.5897,6.5897,6.5897,6.5897,6.5897,6.5897,6.5897,6.5897,6.5897,6.5897,6.5897,6.5897,6.5897,6.5897,6.5897,6.5897,6.5897,6.5897,6.6013,6.609,6.609,6.6244,6.659,6.7282,6.7975,6.8436,6.8602,6.8602,6.8987,6.986,6.9898,7.0206,7.0898,7.0898,7.0898,7.0898,7.0898,7.0898,7.0898,7.0898,7.0898,7.0898,7.0898,7.0898,7.0898,7.0898,7.0898,7.0871,7.0746,7.0685,7.0678,7.0483,7.0419,7.0419,7.0419,7.0419,7.0419,7.1987,7.1987,7.1903,7.154,7.1508,7.1364,7.0937,7.0898,7.0898,7.0898,7.0898,7.0898,7.0898,7.0898,7.0898,7.0898,7.0898,7.0898,7.0898,7.0898,7.0898,7.0898,7.0783,7.036,6.9563,6.8679,6.7475,6.5897,6.5897,6.5897,6.5897,6.5897,6.5897,6.5897,6.5947,6.5909,6.5909,6.5909,6.5909,6.5909,6.5923,6.5897,6.5897,6.5897,6.5897,6.5897,6.5897,6.5897,6.5897,6.5897,6.5897,6.5897,6.5897,6.5897,6.5897,6.5897,6.5897,6.5897,6.5897,6.5897,6.5897,6.5897,6.5897,6.5897,6.5897,6.5897,6.5897,6.5897,6.5897,6.5897,6.5897,6.5897,6.5897,6.5897,6.5897,6.5897,6.5897,6.6513,6.6936,6.6936,6.759,6.809,6.8205,6.8321,6.8706,6.9475,6.9513,6.9898,7.0706,7.0744,7.0783,7.0898,7.0898,7.0898,7.0898,7.0898,7.0898,7.0898,7.0898,7.0898,7.0898,7.0898,7.0898,7.0898,7.0898,7.0871,7.0787,7.0716,7.0693,7.0585,7.0451,7.0419,7.0419,7.0419,7.0419,7.0419,7.1987,7.1909,7.1767,7.1544,7.1396,7.1206,7.0937,7.0898,7.0898,7.0898,7.0898,7.0898,7.0898,7.0898,7.0898,7.0898,7.0898,7.0898,7.0898,7.0898,7.0898,7.0898,7.0898,7.0514,6.9744,6.8871,6.7795,6.6577,6.6128,6.5897,6.5897,6.5897,6.5897,6.5897,6.5897,6.5897,6.5897,6.5897,6.5897,6.5897,6.5897,6.5897,6.5897,6.5897,6.5897,6.5897,6.5897,6.5897,6.5897,6.5897,6.5897,6.5897,6.5897,6.5897,6.5897,6.5897,6.5897,6.5897,6.5897,6.5897,6.5897,6.5897,6.5897,6.5897,6.5897,6.5897,6.5897,6.5897,6.5897,6.5897,6.5897,6.5897,6.6051,6.65,6.6577,6.6731,6.7231,6.7616,6.7847,6.7821,6.859,6.9129,6.9129,6.9552,6.9975,7.036,7.036,7.0514,7.0898,7.0898,7.0898,7.0898,7.0898,7.0898,7.0898,7.0898,7.0898,7.0898,7.0898,7.0898,7.0898,7.0898,7.0898,7.0898,7.0898,7.0871,7.0843,7.0737,7.0678,7.0647,7.0451,7.0419,7.0419,7.0419,7.0419,7.0419]},{"header":{"parameterUnit":"m.s-1","parameterCategory":1,"la1":30.6,"la2":28.766,"lo1":-90.7593,"lo2":-88.6598,"dy":0.0162,"dx":0.0183,"nx":116,"ny":114,"refTime":"2023-11-18T18:00:00:Z","depth":0,"parameterNumber":3,"parameterNumberName":"V-component_of_WINDS"},"data":[0.0,0.0,0.0,0.0,0.0,0.0,0.0,0.0,0.0,0.0,0.0,0.0,0.0,0.0,0.0,0.0,0.0,0.0,0.0,0.0,0.0,0.0,0.0,0.0,0.0,0.0,0.0,0.0,0.0,0.0,0.0,0.0,0.0,0.0,0.0,0.0,0.0,0.0,0.0,0.0,0.0,0.0,0.0,0.0,0.0,0.0,0.0,0.0,0.0,0.0,0.0,0.0,0.0,0.0,0.0,0.0,0.0,0.0,0.0,0.0,0.0,0.0,0.0,0.0,0.0,0.0,0.0,0.0,0.0,0.0,0.0,0.0,0.0,0.0,0.0,0.0,0.0,0.0,0.0,0.0,0.0,0.0,0.0,0.0,0.0,0.0,0.0,0.0,0.0,0.0,0.0,0.0,0.0,0.0,0.0,0.0,0.0,0.0,0.0,0.0,0.0,0.0,0.0,0.0,0.0,0.0,0.0,0.0,0.0,0.0,0.0,0.0,0.0,0.0,0.0,0.0,0.0,0.0,0.0,0.0,0.0,0.0,0.0,0.0,0.0,0.0,0.0,0.0,0.0,0.0,0.0,0.0,0.0,0.0,0.0,0.0,0.0,0.0,0.0,0.0,0.0,0.0,0.0,0.0,0.0,0.0,0.0,0.0,0.0,0.0,0.0,0.0,0.0,0.0,0.0,0.0,0.0,0.0,0.0,0.0,0.0,0.0,0.0,0.0,0.0,0.0,0.0,0.0,0.0,0.0,0.0,0.0,0.0,0.0,0.0,0.0,0.0,0.0,0.0,0.0,0.0,0.0,0.0,0.0,0.0,0.0,0.0,0.0,0.0,0.0,0.0,0.0,0.0,0.0,0.0,0.0,0.0,0.0,0.0,0.0,0.0,0.0,0.0,0.0,0.0,0.0,0.0,0.0,0.0,0.0,0.0,0.0,0.0,0.0,0.0,0.0,0.0,0.0,0.0,0.0,0.0,0.0,0.0,0.0,0.0,0.0,0.0,0.0,0.0,0.0,0.0,0.0,0.0,0.0,0.0,0.0,0.0,0.0,0.0,0.0,0.0,0.0,0.0,0.0,0.0,0.0,0.0,0.0,0.0,0.0,0.0,0.0,0.0,0.0,0.0,0.0,0.0,0.0,0.0,0.0,0.0,0.0,0.0,0.0,0.0,0.0,0.0,0.0,0.0,0.0,0.0,0.0,0.0,0.0,0.0,0.0,0.0,0.0,0.0,0.0,0.0,0.0,0.0,0.0,0.0,0.0,0.0,0.0,0.0,0.0,0.0,0.0,0.0,0.0,0.0,0.0,0.0,0.0,0.0,0.0,0.0,0.0,0.0,0.0,0.0,0.0,0.0,0.0,0.0,0.0,0.0,0.0,0.0,0.0,0.0,0.0,0.0,0.0,0.0,0.0,0.0,0.0,0.0,0.0,0.0,0.0,0.0,0.0,0.0,0.0,0.0,0.0,0.0,0.0,0.0,0.0,0.0,0.0,0.0,0.0,0.0,0.0,0.0,0.0,0.0,0.0,0.0,0.0,0.0,0.0,0.0,0.0,0.0,0.0,0.0,0.0,0.0,0.0,0.0,0.0,0.0,0.0,0.0,0.0,0.0,0.0,0.0,0.0,0.0,0.0,0.0,0.0,0.0,0.0,0.0,0.0,0.0,0.0,0.0,0.0,0.0,0.0,0.0,0.0,0.0,0.0,0.0,0.0,0.0,0.0,0.0,0.0,0.0,0.0,0.0,0.0,0.0,0.0,0.0,0.0,0.0,0.0,0.0,0.0,0.0,0.0,0.0,0.0,0.0,0.0,0.0,0.0,0.0,0.0,0.0,0.0,0.0,0.0,0.0,0.0,0.0,0.0,0.0,0.0,0.0,0.0,0.0,0.0,0.0,0.0,0.0,0.0,0.0,0.0,0.0,0.0,0.0,0.0,0.0,0.0,0.0,0.0,0.0,0.0,0.0,0.0,0.0,0.0,0.0,0.0,0.0,0.0,0.0,0.0,0.0,0.0,0.0,0.0,0.0,0.0,0.0,0.0,0.0,0.0,0.0,0.0,0.0,0.0,0.0,0.0,0.0,0.0,0.0,0.0,0.0,0.0,0.0,0.0,0.0,0.0,0.0,0.0,0.0,0.0,0.0,0.0,0.0,0.0,0.0,0.0,0.0,0.0,0.0,0.0,0.0,0.0,0.0,0.0,0.0,0.0,0.0,0.0,0.0,0.0,0.0,0.0,0.0,0.0,0.0,0.0,0.0,0.0,0.0,0.0,0.0,0.0,0.0,0.0,0.0,0.0,0.0,0.0,0.0,0.0,0.0,0.0,0.0,0.0,0.0,0.0,0.0,0.0,0.0,0.0,0.0,0.0,0.0,0.0,0.0,0.0,0.0,0.0,0.0,0.0,0.0,0.0,0.0,0.0,0.0,0.0,0.0,0.0,0.0,0.0,0.0,0.0,0.0,0.0,0.0,0.0,0.0,0.0,0.0,0.0,0.0,0.0,0.0,0.0,0.0,0.0,0.0,0.0,0.0,0.0,0.0,0.0,0.0,0.0,0.0,0.0,0.0,0.0,0.0,0.0,0.0,0.0,0.0,0.0,0.0,0.0,0.0,0.0,0.0,0.0,0.0,0.0,0.0,0.0,0.0,0.0,0.0,0.0,0.0,0.0,0.0,0.0,0.0,0.0,0.0,0.0,0.0,0.0,0.0,0.0,0.0,0.0,0.0,0.0,0.0,0.0,0.0,0.0,0.0,0.0,0.0,0.0,0.0,0.0,0.0,0.0,0.0,0.0,0.0,0.0,0.0,0.0,0.0,0.0,0.0,0.0,0.0,0.0,0.0,0.0,0.0,0.0,0.0,0.0,0.0,0.0,0.0,0.0,0.0,0.0,0.0,0.0,0.0,0.0,0.0,0.0,0.0,0.0,0.0,0.0,0.0,0.0,0.0,0.0,0.0,0.0,0.0,0.0,0.0,0.0,0.0,0.0,0.0,0.0,0.0,0.0,0.0,0.0,0.0,0.0,0.0,0.0,0.0,0.0,0.0,0.0,0.0,0.0,0.0,0.0,0.0,0.0,0.0,0.0,0.0,0.0,0.0,0.0,0.0,0.0,0.0,0.0,0.0,0.0,0.0,0.0,0.0,0.0,0.0,0.0,0.0,0.0,0.0,0.0,0.0,0.0,0.0,0.0,0.0,0.0,0.0,0.0,0.0,0.0,0.0,0.0,0.0,0.0,0.0,0.0,0.0,0.0,0.0,0.0,0.0,0.0,0.0,0.0,0.0,0.0,0.0,0.0,0.0,0.0,0.0,0.0,0.0,0.0,0.0,0.0,0.0,0.0,0.0,0.0,0.0,0.0,0.0,0.0,0.0,0.0,0.0,0.0,0.0,0.0,0.0,0.0,0.0,0.0,0.0,0.0,0.0,0.0,0.0,0.0,0.0,0.0,0.0,0.0,0.0,0.0,0.0,0.0,0.0,0.0,0.0,0.0,0.0,0.0,0.0,0.0,0.0,0.0,0.0,0.0,0.0,0.0,0.0,0.0,0.0,0.0,0.0,0.0,0.0,0.0,0.0,0.0,0.0,0.0,0.0,0.0,0.0,0.0,0.0,0.0,0.0,0.0,0.0,0.0,0.0,0.0,0.0,0.0,0.0,0.0,0.0,0.0,0.0,0.0,0.0,0.0,0.0,0.0,0.0,0.0,0.0,0.0,0.0,0.0,0.0,0.0,0.0,0.0,0.0,0.0,0.0,0.0,0.0,0.0,0.0,0.0,0.0,0.0,0.0,0.0,0.0,0.0,0.0,0.0,0.0,0.0,0.0,0.0,0.0,0.0,0.0,0.0,0.0,0.0,0.0,0.0,0.0,0.0,0.0,0.0,0.0,0.0,0.0,0.0,0.0,0.0,0.0,0.0,0.0,0.0,0.0,0.0,0.0,0.0,0.0,0.0,0.0,0.0,0.0,0.0,0.0,0.0,0.0,0.0,0.0,0.0,0.0,0.0,0.0,0.0,0.0,0.0,0.0,0.0,0.0,0.0,0.0,0.0,0.0,0.0,0.0,0.0,0.0,0.0,0.0,0.0,0.0,0.0,0.0,0.0,0.0,0.0,0.0,0.0,0.0,0.0,0.0,0.0,0.0,0.0,0.0,0.0,0.0,0.0,0.0,0.0,0.0,0.0,0.0,0.0,0.0,0.0,0.0,0.0,0.0,0.0,0.0,0.0,0.0,0.0,0.0,0.0,0.0,0.0,0.0,0.0,0.0,0.0,0.0,0.0,0.0,0.0,0.0,0.0,0.0,0.0,0.0,0.0,0.0,0.0,0.0,0.0,0.0,0.0,0.0,0.0,0.0,0.0,0.0,0.0,0.0,0.0,0.0,0.0,0.0,0.0,0.0,0.0,0.0,0.0,0.0,0.0,0.0,0.0,0.0,0.0,0.0,0.0,0.0,0.0,0.0,0.0,0.0,0.0,0.0,0.0,0.0,0.0,0.0,0.0,0.0,0.0,0.0,0.0,0.0,0.0,0.0,0.0,0.0,0.0,0.0,0.0,0.0,0.0,0.0,0.0,0.0,0.0,0.0,0.0,0.0,0.0,0.0,0.0,0.0,0.0,0.0,0.0,0.0,0.0,0.0,0.0,0.0,0.0,0.0,0.0,0.0,0.0,0.0,0.0,0.0,0.0,0.0,0.0,0.0,0.0,0.0,0.0,0.0,0.0,0.0,0.0,0.0,0.0,0.0,0.0,0.0,0.0,0.0,0.0,0.0,0.0,0.0,0.0,0.0,0.0,0.0,0.0,0.0,0.0,0.0,0.0,0.0,0.0,0.0,0.0,0.0,0.0,0.0,0.0,0.0,0.0,0.0,0.0,0.0,0.0,0.0,0.0,0.0,0.0,0.0,0.0,0.0,0.0,0.0,0.0,0.0,0.0,0.0,0.0,0.0,0.0,0.0,0.0,0.0,0.0,0.0,0.0,0.0,0.0,0.0,0.0,0.0,0.0,0.0,0.0,0.0,0.0,0.0,0.0,0.0,0.0,0.0,0.0,0.0,0.0,0.0,0.0,0.0,0.0,0.0,0.0,0.0,0.0,0.0,0.0,0.0,0.0,0.0,0.0,0.0,0.0,0.0,0.0,0.0,0.0,0.0,0.0,0.0,0.0,0.0,0.0,0.0,0.0,0.0,0.0,0.0,0.0,0.0,0.0,0.0,0.0,0.0,0.0,0.0,0.0,0.0,0.0,0.0,0.0,0.0,0.0,0.0,0.0,0.0,0.0,0.0,0.0,0.0,0.0,0.0,0.0,0.0,0.0,0.0,0.0,0.0,0.0,0.0,0.0,0.0,0.0,0.0,0.0,0.0,0.0,0.0,0.0,0.0,0.0,0.0,0.0,0.0,0.0,0.0,0.0,0.0,0.0,0.0,0.0,0.0,0.0,0.0,0.0,0.0,0.0,0.0,0.0,0.0,0.0,0.0,0.0,0.0,0.0,0.0,0.0,0.0,0.0,0.0,0.0,0.0,0.0,0.0,0.0,0.0,0.0,0.0,0.0,0.0,0.0,0.0,0.0,0.0,0.0,0.0,0.0,0.0,0.0,0.0,0.0,0.0,0.0,0.0,0.0,0.0,0.0,0.0,0.0,0.0,0.0,0.0,0.0,0.0,0.0,0.0,0.0,0.0,0.0,0.0,0.0,0.0,0.0,0.0,0.0,0.0,0.0,0.0,0.0,0.0,0.0,0.0,0.0,0.0,0.0,0.0,0.0,0.0,0.0,0.0,0.0,0.0,0.0,0.0,0.0,0.0,0.0,0.0,0.0,0.0,0.0,0.0,0.0,0.0,0.0,0.0,0.0,0.0,0.0,0.0,0.0,0.0,0.0,0.0,0.0,0.0,0.0,0.0,0.0,0.0,0.0,0.0,0.0,0.0,0.0,0.0,0.0,0.0,0.0,0.0,0.0,0.0,0.0,0.0,0.0,0.0,0.0,0.0,0.0,0.0,0.0,0.0,0.0,0.0,0.0,0.0,0.0,0.0,0.0,0.0,0.0,0.0,0.0,0.0,0.0,0.0,0.0,0.0,0.0,0.0,0.0,0.0,0.0,-0.8922,0.0,0.0,0.0,0.0,0.0,0.0,0.0,0.0,0.0,0.0,0.0,0.0,0.0,0.0,0.0,0.0,0.0,0.0,0.0,0.0,0.0,0.0,0.0,0.0,0.0,0.0,0.0,0.0,0.0,0.0,0.0,0.0,0.0,0.0,0.0,0.0,0.0,0.0,0.0,0.0,0.0,0.0,0.0,0.0,0.0,0.0,0.0,0.0,0.0,0.0,0.0,0.0,0.0,0.0,0.0,0.0,0.0,0.0,0.0,0.0,0.0,0.0,0.0,0.0,0.0,0.0,0.0,0.0,0.0,0.0,0.0,0.0,0.0,0.0,0.0,0.0,0.0,0.0,0.0,0.0,0.0,0.0,0.0,0.0,0.0,0.0,0.0,0.0,0.0,0.0,0.0,0.0,0.0,0.0,0.0,0.0,0.0,0.0,0.0,0.0,0.0,0.0,0.0,0.0,0.0,0.0,0.0,0.0,0.0,0.0,0.0,0.0,0.0,0.0,0.0,0.0,-1.071,0.0,0.0,0.0,0.0,0.0,0.0,0.0,0.0,0.0,0.0,0.0,0.0,0.0,0.0,0.0,0.0,0.0,0.0,0.0,0.0,0.0,0.0,0.0,0.0,0.0,0.0,0.0,-0.3021,-0.291,-0.2798,-0.2691,-0.2691,-0.2691,-0.2583,0.0,0.0,0.0,0.0,0.0,0.0,0.0,0.0,0.0,0.0,0.0,0.0,0.0,0.0,0.0,0.0,0.0,0.0,0.0,0.0,0.0,0.0,0.0,0.0,0.0,0.0,0.0,0.0,0.0,0.0,0.0,0.0,0.0,0.0,0.0,0.0,0.0,0.0,0.0,0.0,0.0,0.0,0.0,0.0,0.0,0.0,0.0,0.0,0.0,0.0,0.0,0.0,0.0,0.0,0.0,0.0,0.0,0.0,0.0,0.0,0.0,0.0,0.0,0.0,0.0,0.0,0.0,0.0,0.0,0.0,0.0,0.0,0.0,0.0,-1.2411,-1.4641,-1.7596,-1.7596,-1.739,-1.7079,-1.6894,-1.6728,-1.5992,0.0,0.0,0.0,0.0,0.0,0.0,0.0,0.0,0.0,0.0,0.0,0.0,0.0,0.0,0.0,0.0,0.0,0.0,0.0,0.0,0.0,0.0,-0.3244,-0.3188,-0.336,-0.3137,-0.2914,-0.2914,-0.2747,-0.2691,-0.2691,-0.2691,-0.2728,-0.2747,0.0,0.0,0.0,0.0,0.0,0.0,0.0,0.0,0.0,0.0,0.0,0.0,0.0,0.0,0.0,0.0,0.0,0.0,0.0,0.0,0.0,0.0,0.0,0.0,0.0,0.0,0.0,0.0,0.0,0.0,0.0,0.0,0.0,0.0,0.0,0.0,0.0,0.0,0.0,0.0,0.0,0.0,0.0,0.0,0.0,0.0,0.0,0.0,0.0,0.0,0.0,0.0,0.0,-0.7046,-0.8145,0.0,0.0,0.0,0.0,0.0,0.0,0.0,0.0,0.0,0.0,0.0,0.0,0.0,0.0,-0.8682,-1.1283,-1.2555,-1.266,-1.5269,-1.6919,-1.7639,-1.7639,-1.7563,-1.7499,-1.7432,0.0,-1.6594,-1.2723,0.0,0.0,0.0,0.0,0.0,0.0,0.0,0.0,0.0,0.0,0.0,0.0,0.0,0.0,0.0,0.0,0.0,0.0,0.0,0.0,0.0,-0.4036,-0.4942,-0.5441,-0.5864,-0.5716,-0.4723,-0.4405,-0.387,-0.2883,-0.2822,-0.2693,-0.2658,0.0,0.0,0.0,0.0,0.0,0.0,0.0,0.0,0.0,0.0,0.0,0.0,0.0,0.0,0.0,0.0,0.0,0.0,0.0,0.0,0.0,0.0,0.0,0.0,0.0,0.0,0.0,0.0,0.0,0.0,0.0,0.0,0.0,0.0,0.0,0.0,0.0,0.0,0.0,0.0,0.0,0.0,0.0,0.0,0.0,0.0,0.0,0.0,0.0,0.0,0.0,0.0,-0.8069,-0.9049,-0.8919,-0.7645,-0.6007,0.0,0.0,0.0,0.0,0.0,0.0,0.0,0.0,0.0,-1.1662,-1.1783,-1.2428,-1.3948,-1.5234,-1.5591,-1.4999,-1.6233,-1.6971,-1.7085,-1.7085,-1.7425,-1.809,-1.809,-1.797,-1.7617,-1.4016,-1.1409,-0.9307,0.0,0.0,0.0,0.0,0.0,-0.2345,0.0,0.0,0.0,0.0,0.0,0.0,0.0,0.0,0.0,0.0,0.0,0.0,-0.2826,-0.4862,-0.6707,-0.7872,-0.8351,-0.7864,-0.6085,-0.5736,-0.4784,-0.31,-0.2918,-0.2783,-0.2682,0.0,0.0,0.0,0.0,0.0,0.0,0.0,0.0,0.0,0.0,0.0,0.0,0.0,0.0,0.0,0.0,0.0,0.0,0.0,0.0,0.0,0.0,0.0,0.0,0.0,0.0,0.0,0.0,0.0,0.0,0.0,0.0,0.0,0.0,0.0,0.0,0.0,0.0,0.0,0.0,0.0,0.0,0.0,0.0,0.0,0.0,0.0,0.0,0.0,0.0,0.0,0.0,-0.9002,-1.0468,-0.9349,-0.9415,-0.8238,0.0,0.0,0.0,0.0,0.0,0.0,-1.049,-1.0587,-1.1688,-1.4106,-1.4344,-1.5294,-1.7148,-1.7148,-1.6808,-1.6098,-1.6098,-1.6357,-1.6654,-1.6654,-1.7491,-1.8704,-1.8637,-1.8637,-1.8526,-1.554,-1.4104,-1.3419,-1.0371,-0.8138,-0.6768,-0.6901,-0.6182,-0.5589,0.0,0.0,0.0,0.0,0.0,0.0,0.0,0.0,0.0,0.0,0.0,-0.3451,-0.3134,-0.5259,-0.7739,-1.0218,-0.9335,-0.7853,-0.5997,-0.5771,-0.4861,-0.3075,-0.3009,-0.2989,-0.3083,0.0,0.0,0.0,0.0,0.0,0.0,0.0,0.0,0.0,0.0,0.0,0.0,0.0,0.0,0.0,0.0,0.0,0.0,0.0,0.0,0.0,0.0,0.0,0.0,0.0,0.0,0.0,0.0,0.0,0.0,0.0,0.0,0.0,0.0,0.0,0.0,0.0,0.0,0.0,0.0,0.0,0.0,0.0,0.0,0.0,0.0,0.0,0.0,0.0,0.0,0.0,0.0,0.0,0.0,-0.9357,-1.0499,0.0,0.0,0.0,0.0,-0.987,-0.9218,-1.0219,-1.3467,-1.3718,-1.4406,-1.5946,-1.633,-1.5916,-1.4826,-1.4826,-1.4826,-1.4837,-1.4837,-1.5535,-1.7032,-1.7032,-1.788,-1.9305,-1.9025,-1.9065,-1.9279,-1.8552,-1.6392,-1.3665,-1.2949,-1.0716,-0.8202,-1.0006,-0.9979,-0.9252,0.0,0.0,0.0,0.0,0.0,0.0,0.0,0.0,0.0,-0.3583,-0.361,-0.5276,-0.9706,-0.9648,-1.0215,-1.2628,-1.2415,-1.1295,-0.9406,-0.8155,-0.6725,-0.4863,-0.3677,-0.3569,-0.4548,0.0,-0.9123,0.0,0.0,0.0,0.0,0.0,0.0,0.0,0.0,0.0,0.0,0.0,0.0,0.0,0.0,0.0,0.0,0.0,0.0,0.0,0.0,0.0,0.0,0.0,0.0,0.0,0.0,0.0,0.0,0.0,0.0,0.0,0.0,0.0,0.0,0.0,0.0,0.0,0.0,0.0,0.0,0.0,0.0,0.0,0.0,0.0,0.0,0.0,0.0,0.0,0.0,0.0,0.0,-1.0205,-1.1085,0.0,-0.9013,-1.2363,-1.3814,-1.188,-1.2781,-1.4079,-1.5611,-1.4833,-1.4635,-1.5166,-1.541,-1.538,-1.5184,-1.5226,-1.5017,-1.4439,-1.4439,-1.4721,-1.5155,-1.5155,-1.5935,-1.7236,-1.7144,-1.7155,-1.7225,-1.7051,-1.6692,-1.6046,-1.5002,-1.3433,-1.1752,-1.2534,-1.1996,-1.0973,0.0,0.0,0.0,0.0,0.0,0.0,0.0,0.0,0.0,-0.3561,-0.5647,-0.8909,-1.36,-1.2689,-1.2393,-1.3933,-1.4062,-1.3067,-1.0539,-0.92,-0.7474,-0.5018,-0.4495,-0.5201,-0.7301,-0.9183,0.0,0.0,0.0,0.0,0.0,0.0,0.0,0.0,0.0,0.0,0.0,0.0,0.0,0.0,0.0,0.0,-0.2977,0.0,0.0,0.0,0.0,0.0,0.0,0.0,0.0,0.0,0.0,0.0,0.0,0.0,0.0,0.0,0.0,0.0,0.0,0.0,0.0,0.0,0.0,0.0,0.0,0.0,0.0,0.0,0.0,0.0,0.0,0.0,0.0,0.0,0.0,0.0,-1.2427,-0.9399,-1.1208,-1.1983,-0.9962,-1.3925,-1.5934,-1.4094,-1.4965,-1.5724,-1.5977,-1.5385,-1.4772,-1.4392,-1.4616,-1.457,-1.4358,-1.4504,-1.428,-1.3537,-1.3537,-1.3824,-1.4383,-1.4383,-1.5302,-1.7008,-1.642,-1.6761,-1.763,-1.6549,-1.6575,-1.6993,-1.6166,-1.5565,-1.5083,-1.4237,-1.3274,-1.2559,0.0,0.0,0.0,0.0,0.0,0.0,0.0,-0.2734,-0.2963,-0.355,-0.9748,-1.4103,-1.4111,-1.4072,-1.4082,-1.4082,-1.4082,-1.2581,-0.9037,-0.8742,-0.7049,-0.3452,-0.5362,-0.8023,-1.1076,0.0,0.0,0.0,0.0,0.0,0.0,0.0,0.0,0.0,0.0,0.0,0.0,0.0,0.0,0.0,0.0,0.0,-0.896,0.0,0.0,0.0,0.0,0.0,0.0,0.0,0.0,0.0,0.0,0.0,0.0,0.0,0.0,0.0,0.0,0.0,0.0,0.0,0.0,0.0,0.0,0.0,0.0,0.0,0.0,0.0,0.0,0.0,0.0,0.0,0.0,0.0,-0.8532,-1.0642,-1.1012,-0.7368,-1.1173,-1.3633,-1.274,-1.3878,-1.5197,-1.6458,-1.5445,-1.4749,-1.4877,-1.5215,-1.485,-1.3732,-1.406,-1.3546,-1.2312,-1.232,-1.232,-1.232,-1.232,-1.3164,-1.46,-1.46,-1.6115,-1.8768,-1.7114,-1.7897,-2.0283,-1.7382,-1.6156,-1.628,-1.6156,-1.6898,-1.776,-1.5152,-1.4154,-1.3913,0.0,0.0,0.0,0.0,0.0,0.0,0.0,-0.3077,-0.3395,-0.3589,-0.9722,-1.4109,-1.4077,-1.4102,-1.4082,-1.4082,-1.4082,-1.3074,-1.083,-0.9443,-0.7742,-0.561,-0.8248,-1.0443,-1.1833,0.0,0.0,0.0,0.0,0.0,0.0,0.0,0.0,0.0,0.0,0.0,0.0,0.0,0.0,0.0,0.0,0.0,-0.9405,0.0,0.0,0.0,0.0,0.0,0.0,0.0,0.0,0.0,0.0,0.0,0.0,0.0,0.0,0.0,0.0,0.0,0.0,0.0,0.0,0.0,0.0,0.0,0.0,0.0,0.0,0.0,0.0,0.0,0.0,0.0,0.0,-1.1541,-1.1567,-1.199,-1.224,-1.2297,-1.3696,-1.4187,-1.3,-1.488,-1.5758,-1.4534,-1.5161,-1.5121,-1.4382,-1.4573,-1.4023,-1.2724,-1.2902,-1.2867,-1.2491,-1.2629,-1.2694,-1.2694,-1.2694,-1.2841,-1.3274,-1.3274,-1.3692,-1.452,-1.4074,-1.4308,-1.4947,-1.4123,-1.4355,-1.5218,-1.5031,-1.4538,-1.3797,-1.3052,-1.28,-1.28,0.0,0.0,0.0,0.0,0.0,0.0,0.0,-0.3188,-0.3608,-0.3599,-0.9729,-1.4088,-1.408,-1.4104,-1.4082,-1.4082,-1.3425,-1.2201,-1.0393,-0.8703,-0.8093,-0.9021,-1.0864,-1.253,0.0,0.0,0.0,0.0,0.0,0.0,0.0,0.0,0.0,0.0,0.0,0.0,0.0,0.0,0.0,0.0,0.0,0.0,-0.9681,-0.9631,-0.8434,-0.6794,-0.6766,-0.6776,-0.6523,-0.4632,0.0,0.0,0.0,0.0,0.0,0.0,0.0,0.0,0.0,0.0,0.0,0.0,0.0,0.0,0.0,0.0,0.0,0.0,0.0,0.0,0.0,0.0,0.0,0.0,-1.0993,-1.1505,-1.2849,-1.2265,-1.2096,-1.3079,-1.3413,-1.3577,-1.3429,-1.4331,-1.4641,-1.392,-1.4156,-1.407,-1.3527,-1.3536,-1.3335,-1.2523,-1.2629,-1.2678,-1.2678,-1.2783,-1.284,-1.284,-1.284,-1.284,-1.284,-1.284,-1.3095,0.0,-1.3095,-1.3481,-1.452,-1.3875,-1.4128,0.0,0.0,0.0,0.0,0.0,-1.2532,-1.2532,0.0,0.0,0.0,0.0,0.0,0.0,0.0,-0.3244,-0.3592,-0.3613,-0.9754,-1.4137,-1.4102,-1.4115,-1.4082,-1.4082,-1.2449,-1.0706,-0.8865,-0.7694,-0.8806,-1.2552,-1.3219,-1.4422,0.0,0.0,0.0,0.0,0.0,0.0,0.0,0.0,0.0,0.0,0.0,0.0,0.0,0.0,0.0,0.0,0.0,0.0,-0.9884,-0.9698,-0.9672,-0.9618,-0.9678,-0.9616,-0.9602,-0.9564,0.0,0.0,0.0,0.0,0.0,0.0,0.0,0.0,0.0,0.0,0.0,0.0,0.0,0.0,0.0,0.0,0.0,0.0,0.0,0.0,0.0,0.0,0.0,0.0,-1.1152,-1.1566,-1.2744,-1.2009,-1.1386,-1.1635,-1.1943,-1.2499,-1.3637,-1.2975,-1.296,-1.3941,-1.3095,-1.2562,-1.2588,0.0,0.0,0.0,0.0,-1.284,-1.284,-1.2708,-1.2708,-1.2708,-1.2708,-1.2708,-1.2708,-1.2832,-1.349,-1.4651,-1.3358,-1.4259,-1.6462,-1.5163,-1.4651,-1.452,-1.3227,-1.3613,-1.452,-1.3227,-1.284,-1.284,0.0,0.0,0.0,0.0,0.0,0.0,0.0,-0.3527,-0.3618,-0.3569,-0.9706,-1.4065,-1.4117,-1.4055,-1.4082,-1.4082,-1.2519,-1.0942,0.0,0.0,-1.1866,-1.2686,0.0,0.0,0.0,0.0,0.0,0.0,0.0,0.0,0.0,0.0,0.0,0.0,0.0,0.0,0.0,0.0,0.0,0.0,0.0,0.0,-1.0103,-1.0141,-0.9985,-0.9888,-0.992,-0.9786,-0.9594,-0.9612,-0.875,-0.7752,-0.7782,0.0,0.0,0.0,0.0,0.0,0.0,0.0,0.0,0.0,0.0,0.0,0.0,0.0,0.0,0.0,0.0,0.0,0.0,0.0,0.0,-1.1167,-1.146,-1.1749,-1.2021,-1.2037,-1.2365,-1.3057,-1.346,-1.3448,-1.2624,-1.3545,-1.3779,-1.302,-1.3802,-1.3908,-1.2783,-1.3813,0.0,-1.2832,-1.284,-1.284,-1.284,-1.2568,-1.2437,-1.2437,0.0,0.0,-1.2444,-1.27,-1.2964,-1.3227,-1.2964,-1.3095,-1.3613,-1.3358,-1.3227,-1.3227,-1.2964,-1.2964,-1.3227,-1.2832,-1.284,-1.284,0.0,0.0,0.0,0.0,0.0,0.0,0.0,-0.3583,-0.3571,-0.3619,-0.7664,-1.061,-1.0625,-1.1187,-1.1528,-1.1528,-1.0886,0.0,0.0,-1.1527,-1.3213,0.0,0.0,0.0,0.0,0.0,0.0,0.0,0.0,0.0,0.0,0.0,0.0,0.0,0.0,0.0,0.0,0.0,0.0,0.0,0.0,0.0,-1.055,-1.0363,-1.0184,-1.0117,-0.9916,-0.9726,-0.9614,-0.9575,-0.9589,-0.9556,-0.9579,-0.9595,-0.9009,0.0,0.0,0.0,0.0,0.0,0.0,0.0,0.0,0.0,0.0,0.0,0.0,0.0,0.0,-1.0449,0.0,0.0,-1.1302,-1.1532,-1.1736,-1.1841,-1.1773,-1.2146,-1.2623,-1.3056,-1.3321,-1.3225,-1.2564,-1.3164,-1.3345,-1.2572,-1.3299,-1.3481,-1.2576,-1.335,-1.3481,-1.2832,-1.27,-1.2576,-1.2576,-1.218,-1.2041,-1.2041,-1.2041,-1.2173,-1.2312,-1.2444,-1.27,-1.284,-1.284,-1.2708,-1.2576,-1.2576,-1.2576,-1.2576,-1.27,-1.284,-1.284,-1.284,-1.284,-1.284,0.0,0.0,0.0,0.0,0.0,0.0,0.0,0.0,-0.3577,-0.3628,-0.566,-0.7113,-0.7138,-0.8255,-0.8907,-0.8577,0.0,0.0,0.0,0.0,0.0,0.0,0.0,0.0,0.0,0.0,0.0,0.0,0.0,0.0,0.0,0.0,0.0,0.0,0.0,0.0,0.0,0.0,0.0,0.0,0.0,0.0,-1.098,-1.0623,-1.0371,-1.0297,-0.9903,-0.9705,-0.9641,-0.9581,-0.9648,-0.9573,-0.9573,-0.9624,-0.956,-0.9613,-0.6031,0.0,0.0,0.0,0.0,0.0,0.0,0.0,0.0,0.0,-1.0576,-1.0581,-1.0742,-1.0975,-1.1078,-1.1186,-1.1486,-1.1727,-1.176,-1.1781,-1.1806,-1.225,-1.2483,-1.2483,-1.2613,-1.2678,-1.2692,-1.2708,-1.2576,-1.2173,-1.2444,-1.2576,-1.2312,-1.2437,-1.27,-1.2708,-1.2437,-1.2173,-1.2173,-1.1916,-1.1644,-1.1644,-1.1644,-1.1776,-1.2041,-1.218,-1.2305,-1.2576,-1.2608,-1.2492,-1.2227,-1.2398,-1.2406,-1.2406,-1.2773,-1.2889,-1.2881,-1.2848,-1.284,-1.284,0.0,0.0,0.0,0.0,0.0,0.0,0.0,0.0,0.0,-0.3628,-0.566,-0.7113,-0.7138,-0.8255,-0.8413,0.0,0.0,0.0,0.0,0.0,0.0,0.0,0.0,0.0,0.0,0.0,0.0,0.0,0.0,0.0,0.0,0.0,0.0,0.0,0.0,0.0,0.0,0.0,0.0,0.0,0.0,0.0,-1.1151,-1.0802,-1.0666,-1.0609,-1.0636,-1.0133,-0.9641,-0.9581,-0.9622,-0.9641,-0.9641,-0.9627,-0.9603,-0.9602,0.0,-0.9486,-0.9496,-0.9529,-0.9514,-0.9535,-1.013,-1.0674,0.0,0.0,-1.0305,-1.0131,-1.0137,-1.0433,-1.0856,-1.1161,-1.1358,-1.1471,-1.176,-1.1841,-1.1622,-1.2034,-1.2281,-1.2281,-1.2545,-1.2684,-1.2437,-1.2312,-1.218,-1.1909,-1.1909,-1.2041,-1.2305,-1.2041,-1.2041,-1.2305,-1.2041,-1.1916,-1.1916,-1.1512,-1.1247,-1.1247,-1.1247,-1.1247,-1.138,-1.1644,-1.1909,-1.1924,-1.2074,-1.2,-1.2015,-1.2566,-1.2756,-1.2749,-1.299,-1.3068,-1.3043,-1.2889,-1.284,-1.284,0.0,0.0,0.0,0.0,0.0,0.0,0.0,0.0,0.0,0.0,-0.4552,-0.5106,-0.5142,-0.5717,0.0,0.0,0.0,0.0,-1.01,0.0,0.0,0.0,0.0,0.0,0.0,0.0,0.0,0.0,0.0,0.0,0.0,0.0,0.0,0.0,0.0,0.0,0.0,0.0,0.0,0.0,0.0,0.0,-1.1175,-1.126,-1.1084,-1.075,-1.069,-1.0488,0.0,0.0,-0.9641,-0.9657,-1.0059,-1.0288,-1.0205,-1.0227,-0.7488,0.0,-0.4434,-0.7482,-1.0564,0.0,-1.0035,-1.0389,-1.0054,-1.0116,-1.0202,-1.0129,-1.0215,-1.0494,-1.0778,-1.1065,-1.1271,0.0,-1.1698,-1.156,-1.1395,-1.1732,-1.1909,-1.1644,-1.2041,-1.2173,-1.2305,-1.218,-1.1909,-1.1512,-1.1644,-1.1776,-1.1644,-1.1784,-1.1916,-1.2041,-1.1644,-1.1512,-1.1512,-1.1115,-1.085,-1.085,-1.0946,-1.1121,-1.139,-1.1617,-1.1789,-1.2067,-1.1862,-1.1891,-1.1898,-1.2101,-1.2131,-1.2261,-1.2733,-1.2982,-1.295,-1.2805,-1.284,-1.284,0.0,0.0,0.0,0.0,0.0,0.0,0.0,0.0,0.0,0.0,0.0,-0.3705,-0.3845,0.0,0.0,0.0,0.0,0.0,0.0,-1.3169,0.0,0.0,0.0,0.0,0.0,0.0,0.0,0.0,0.0,0.0,0.0,0.0,0.0,0.0,0.0,0.0,0.0,0.0,0.0,0.0,0.0,0.0,-1.1123,-1.1424,-1.1219,-1.0682,-1.0442,-0.9145,0.0,0.0,-0.8069,-0.9989,-1.0492,-1.0685,-1.034,-0.8299,-0.4084,0.0,0.0,0.0,0.0,-0.9533,-0.9723,-1.0139,-0.9816,-0.9935,-1.0114,-1.0099,-1.0266,-1.0426,-1.0708,-1.0747,-1.0951,-1.1486,-1.1438,-1.1374,-1.1101,-1.138,-1.1512,-1.1247,-1.1512,-1.1776,-1.1909,-1.1776,-1.1512,-1.1115,-1.138,-1.138,-1.1247,-1.138,-1.1512,-1.1644,-1.1247,-1.1136,-1.1178,-1.0919,-1.0806,-1.0846,-1.0955,-1.1145,-1.1417,-1.153,-1.171,-1.1855,-1.176,-1.1643,-1.1643,-1.1831,-1.1845,-1.1838,-1.2497,-1.2751,-1.2712,-1.2689,-1.2712,-1.2986,0.0,0.0,0.0,0.0,0.0,0.0,0.0,0.0,0.0,0.0,0.0,0.0,0.0,0.0,0.0,0.0,0.0,0.0,0.0,-1.1969,-1.4047,-1.633,-1.6384,0.0,0.0,0.0,0.0,0.0,0.0,0.0,0.0,0.0,0.0,0.0,0.0,0.0,0.0,0.0,0.0,0.0,0.0,0.0,-1.1025,-1.0849,-1.0689,-1.0562,-0.9884,0.0,0.0,0.0,-0.4216,-1.0678,-1.0706,-1.0726,0.0,-0.2394,-0.0185,0.0,0.0,0.0,-0.9864,-1.0182,-1.0174,-1.0048,-0.9824,-0.9945,-0.9947,-0.9717,-0.9713,-0.9985,-1.0383,-1.0412,-1.0565,-1.0984,-1.1141,-1.1108,-1.0717,-1.0982,-1.1247,-1.1247,-1.1247,-1.1247,0.0,-1.1247,-1.1115,-1.0717,-1.0724,-1.085,-1.1115,-1.085,-1.085,-1.1247,-1.085,-1.0792,-1.0941,-1.0941,-1.1009,-1.1151,-1.1151,-1.1158,-1.1158,-1.1158,-1.1165,-1.131,-1.1321,-1.1382,-1.1396,-1.1973,-1.218,-1.2166,-1.2433,-1.2507,-1.2492,-1.2313,-1.2666,-1.3352,0.0,0.0,0.0,0.0,0.0,0.0,0.0,0.0,0.0,0.0,0.0,0.0,0.0,0.0,0.0,0.0,0.0,0.0,0.0,-1.116,-1.3331,-1.4072,-1.556,-1.6326,-1.6531,-1.6714,0.0,0.0,0.0,0.0,0.0,0.0,0.0,0.0,0.0,0.0,0.0,0.0,0.0,0.0,0.0,0.0,-1.0477,-1.0079,-1.0288,-0.9957,0.0,0.0,0.0,0.0,-0.1397,-0.3594,-0.3625,0.0,0.0,-0.0739,0.0,-0.0942,-0.5358,0.0,-1.0122,-0.9861,-0.9925,-1.0002,-0.9766,-0.9765,-0.9868,-0.9747,-0.8784,-0.7892,-0.7517,-0.8005,-0.8381,-0.8122,-0.9695,-1.085,-1.0717,-1.085,-1.085,-1.085,-1.085,0.0,0.0,0.0,0.0,-1.0717,-1.0717,-1.0717,-1.085,-1.0717,-1.0765,-1.1001,-1.0873,-1.0941,-1.109,-1.109,-1.1118,-1.1165,-1.1267,-1.1369,-1.1463,-1.1463,-1.1463,-1.147,-1.1518,-1.1545,-1.1545,-1.1743,-1.1763,-1.19,-1.2137,-1.2258,-1.2394,-1.247,-1.273,-1.2982,0.0,0.0,0.0,0.0,0.0,0.0,0.0,0.0,0.0,0.0,0.0,0.0,0.0,0.0,0.0,0.0,0.0,0.0,0.0,0.0,-1.1444,-1.2601,-1.3505,-1.3744,-1.3238,-1.399,-1.4291,-1.4291,0.0,0.0,0.0,0.0,0.0,0.0,0.0,0.0,0.0,0.0,0.0,0.0,0.0,0.0,-1.0171,-1.0032,-0.8496,0.0,0.0,0.0,0.0,0.0,0.0,0.0,0.0,0.0,0.0,0.0,0.0281,-0.0972,-0.7904,-1.0,-1.0017,-0.9708,-0.9801,-0.9926,-0.9686,-0.9754,-0.9822,-0.9822,-0.8141,-0.6589,-0.6446,-0.676,-0.6943,-0.6607,-0.827,-0.9825,-1.0623,-1.0006,-0.9802,-1.0571,-1.0717,-1.0717,0.0,0.0,0.0,-1.0717,-1.0717,-1.0717,-1.0717,-1.0772,-1.0846,-1.0948,-1.0995,-1.1097,-1.1246,-1.1246,-1.1274,-1.1328,-1.1423,-1.1525,-1.1619,-1.1619,-1.1619,-1.1619,-1.1619,-1.1619,-1.1619,-1.1619,-1.1619,-1.1619,-1.1907,-1.2051,-1.2051,-1.233,-1.233,-1.2437,0.0,0.0,0.0,0.0,0.0,0.0,0.0,0.0,0.0,0.0,0.0,0.0,0.0,0.0,0.0,0.0,0.0,0.0,0.0,0.0,0.0,-1.1594,-1.0525,-0.9252,-0.7967,-0.9367,-1.0115,-1.0115,-1.2341,0.0,0.0,0.0,0.0,0.0,0.0,0.0,0.0,0.0,0.0,0.0,0.0,0.0,-0.9866,-1.0031,0.0,0.0,0.0,0.0,0.0,0.0,0.0,0.0,0.0,0.0,0.0,0.0094,0.0387,-0.0699,-0.7837,-0.978,-0.9745,-0.978,-0.9834,-0.9822,-0.9822,-0.9822,-0.9815,-0.968,-0.7638,-0.6094,0.0,0.0,-0.6309,-0.6354,-0.6841,-0.8062,-1.012,-0.8943,-0.8447,0.0,0.0,0.0,0.0,0.0,0.0,-1.0717,0.0,-1.0724,-1.0731,-1.0867,-1.0955,-1.0968,-1.1104,-1.1246,-1.1402,-1.1402,-1.1477,-1.1619,-1.1619,-1.1619,-1.1619,-1.1619,-1.1619,-1.1619,-1.1619,-1.1619,-1.1619,-1.1619,-1.1619,-1.1633,-1.1633,-1.1633,-1.164,-1.164,-1.164,-1.1784,0.0,0.0,0.0,0.0,0.0,0.0,0.0,0.0,0.0,0.0,0.0,0.0,0.0,0.0,0.0,0.0,0.0,0.0,0.0,0.0,0.0,0.0,0.0,0.0,0.0,0.0,0.0,0.0,0.0,-1.0482,-1.0492,0.0,0.0,0.0,0.0,0.0,0.0,0.0,0.0,0.0,0.0,0.0,-0.54,0.0,0.0,0.0,0.0,0.0,0.0,0.0,0.0,0.0,0.0,0.0,0.0098,0.08,-0.2785,-0.7405,-0.9314,-0.976,-0.9787,-0.984,-0.9795,-0.9822,-0.9822,-0.9822,-0.9392,-0.7982,-0.6005,-0.4167,0.0,0.0,0.0,-0.3685,-0.4527,0.0,-0.735,-0.8978,0.0,-1.0578,0.0,-1.0717,-1.0717,-1.0717,0.0,0.0,-1.0717,-1.0772,-1.088,-1.0928,-1.105,-1.1274,-1.1314,-1.1409,-1.1558,-1.1558,-1.1579,-1.1619,-1.1619,-1.1619,-1.1619,-1.1619,-1.1619,-1.1619,-1.1619,-1.1619,-1.1619,-1.1619,-1.1681,-1.1775,-1.1775,-1.185,-1.1952,-1.1952,-1.1952,-1.1952,0.0,0.0,0.0,0.0,0.0,0.0,0.0,0.0,0.0,0.0,0.0,0.0,0.0,0.0,0.0,0.0,0.0,0.0,0.0,0.0,0.0,0.0,0.0,0.0,0.0,0.0,0.0,0.0,0.0,0.0,0.0,0.0,0.0,0.0,0.0,0.0,0.0,0.0,0.0,0.0,0.0,0.0,0.0,0.0,0.0,0.0,0.0,0.0,0.0,0.0,0.0,-0.3901,-0.3956,-0.4228,-0.4489,-0.3451,0.0,-0.9809,-0.9774,-0.978,-0.9847,-0.9802,-0.9822,-0.9539,-0.8809,-0.854,-0.7988,-0.6116,-0.4132,0.0,0.0,0.0,0.0,0.0,0.0,0.0,-0.8059,-0.8632,-0.9371,0.0,-1.0717,0.0,-1.0717,-1.0717,-1.0751,0.0,-1.0819,-1.086,-1.0941,-1.107,-1.1219,-1.1389,-1.1457,-1.1531,-1.1619,-1.1619,-1.1619,-1.1619,-1.1619,-1.1619,-1.1619,-1.1619,-1.1619,-1.1619,0.0,-1.1714,-1.1714,-1.1782,-1.1857,-1.1932,-1.1932,-1.1986,-1.206,-1.206,-1.206,-1.206,0.0,0.0,0.0,0.0,0.0,0.0,0.0,0.0,0.0,0.0,0.0,0.0,0.0,0.0,0.0,0.0,0.0,0.0,0.0,0.0,0.0,0.0,0.0,0.0,0.0,0.0,0.0,0.0,0.0,0.0,0.0,0.0,0.0,0.0,0.0,0.0,0.0,0.0,0.0,0.0,0.0,0.0,0.0,0.0,0.0,0.0,0.0,0.0,0.0,0.0,-1.0036,-1.0288,-0.9268,-0.9674,-1.0322,-0.9305,-0.937,-0.9781,-0.9808,-0.9847,-0.9822,-0.9822,-0.9822,-0.9258,-0.7434,-0.7031,-0.6378,-0.4129,0.0,-0.1279,-0.1624,-0.3013,-0.4214,-0.4538,0.0,-0.7692,-1.0294,-0.858,-0.793,-1.0419,-1.0717,-1.0717,-1.0717,-1.0738,-1.0806,-1.0941,-1.0989,-1.1009,-1.1009,-1.1253,-1.1402,-1.1423,-1.1552,-1.1619,-1.1619,-1.1619,-1.1619,-1.1619,-1.1619,-1.1619,-1.1619,-1.164,-1.1647,-1.1653,0.0,0.0,-1.187,-1.2006,-1.2074,-1.2094,-1.2094,-1.2101,-1.2121,-1.2121,-1.2121,-1.2121,0.0,0.0,0.0,0.0,0.0,0.0,0.0,0.0,0.0,0.0,-0.4463,0.0,0.0,0.0,0.0,0.0,0.0,0.0,0.0,0.0,0.0,0.0,0.0,0.0,0.0,0.0,0.0,0.0,0.0,0.0,0.0,0.0,0.0,0.0,0.0,0.0,0.0,0.0,0.0,0.0,0.0,0.0,0.0,0.0,0.0,0.0,0.0,0.0,0.0,0.0,-0.6802,-0.921,-0.8969,-0.9208,-0.9601,-0.9674,-0.975,-0.9815,-0.9741,-0.9802,-0.9822,-0.9822,-0.9822,-0.9258,-0.7434,-0.7031,0.0,0.0,-0.1385,-0.0743,0.0747,-0.1098,-0.3196,-0.4315,0.0,0.0,0.0,0.0,-1.0122,0.0,0.0,0.0,0.0,0.0,0.0,0.0,0.0,-1.1314,-1.1314,-1.1362,-1.145,-1.1572,-1.1606,-1.1619,-1.1619,-1.1619,-1.1619,-1.1619,-1.1619,-1.1619,-1.1619,-1.1742,-1.1796,-1.1803,-1.1959,0.0,-1.2026,-1.2054,-1.2135,-1.225,-1.225,-1.2325,-1.2427,-1.2427,-1.2427,-1.2427,0.0,0.0,0.0,0.0,0.0,0.0,0.0,0.0,0.0,0.0,-0.4519,-0.4463,0.0,0.0,0.0,0.0,0.0,0.0,0.0,0.0,0.0,0.0,0.0,0.0,0.0,0.0,0.0,0.0,0.0,0.0,0.0,0.0,0.0,0.0,0.0,0.0,0.0,0.0,0.0,0.0,0.0,0.0,0.0,0.0,0.0,0.0,0.0,0.0,0.0,0.0,-0.4591,-0.8891,-0.8913,-0.9181,-0.9387,-0.9585,-0.9662,-0.9854,-0.9802,-0.9822,-0.9822,-0.9822,-0.9822,-0.9093,-0.612,0.0,0.0,0.0,0.0313,0.0631,0.1489,-0.0331,0.0,0.0,0.0,0.0,0.0,0.0,0.0,0.0,0.0,0.0,0.0,0.0,0.0,0.0,0.0,-1.1389,-1.1389,-1.1463,-1.1545,-1.1619,-1.1619,-1.1619,-1.1619,-1.1619,-1.1619,-1.1619,-1.1619,-1.166,-1.1735,-1.1796,-1.1877,-1.1959,-1.2115,0.0,-1.2189,-1.2264,-1.2332,-1.24,-1.24,-1.244,-1.2501,-1.2501,-1.2501,-1.2501,0.0,0.0,0.0,0.0,0.0,0.0,0.0,-0.4519,-0.4519,-0.4519,-0.4463,-0.4408,-0.4408,-0.4304,-0.4301,0.0,0.0,0.0,0.0,0.0,0.0,0.0,0.0,0.0,0.0,0.0,0.0,0.0,0.0,0.0,0.0,0.0,0.0,0.0,0.0,0.0,0.0,0.0,0.0,0.0,0.0,0.0,0.0,0.0,0.0,0.0,0.0,0.0,0.0,0.0,-0.2163,-0.6785,-0.7559,-0.819,-0.8807,-0.8928,-0.902,-0.9252,-0.968,-0.9822,-0.9822,-0.9822,-0.9822,-0.8815,-0.4979,-0.4126,0.0,0.0,0.1641,0.1671,0.1699,0.0,-0.0914,0.0,0.0,0.0,0.0,0.0,0.0,0.0,0.0,0.0,0.0,0.0,0.0,0.0,0.0,0.0,-1.1443,-1.1552,-1.1619,-1.1619,-1.1619,-1.1619,-1.1619,-1.1619,-1.1633,-1.1667,-1.1667,-1.1742,-1.1877,-1.1911,-1.1993,-1.2121,-1.2271,0.0,0.0,-1.2454,-1.2501,-1.2501,-1.2501,-1.2501,-1.2501,-1.2501,-1.2501,-1.2501,0.0,0.0,0.0,0.0,0.0,0.0,0.0,-0.4519,-0.4519,-0.4519,-0.4353,-0.4193,-0.4076,-0.4298,-0.4585,0.0,0.0,0.0,0.0,0.0,0.0,0.0,0.0,0.0,0.0,0.0,0.0,0.0,0.0,0.0,0.0,0.0,0.0,0.0,0.0,0.0,0.0,0.0,0.0,0.0,0.0,0.0,0.0,0.0,0.0,0.0,0.0,0.0,0.0,0.0,0.0,-0.0096,-0.3204,-0.5417,-0.6826,-0.6943,0.0,0.0,-0.9379,-0.9822,-0.9822,-0.9822,-0.9822,-0.8815,-0.4979,0.0,0.0,0.0819,0.1641,0.1671,0.1699,0.0,0.0,0.0,0.0,-0.3982,0.0,0.0,0.0,0.0,0.0,0.0,0.0,0.0,0.0,0.0,0.0,0.0,-1.1599,-1.1613,-1.1619,-1.1619,-1.1619,-1.1619,-1.1619,-1.1619,-1.1687,-1.1809,-1.1809,-1.1891,-1.2047,-1.2182,-1.2257,-1.2277,-1.242,0.0,0.0,-1.2494,-1.2501,-1.2501,-1.2501,-1.2501,-1.2501,-1.2501,-1.2501,-1.2501,0.0,0.0,0.0,0.0,0.0,0.0,0.0,-0.4304,-0.4359,-0.4463,-0.4545,-0.4492,-0.4314,-0.4564,-0.4723,0.0,0.0,0.0,0.0,0.0,0.0,0.0,0.0,0.0,0.0,0.0,0.0,0.0,0.0,0.0,0.0,0.0,0.0,0.0,0.0,0.0,0.0,0.0,0.0,0.0,0.0,0.0,0.0,0.0,0.0,0.0,0.0,0.0,0.0,0.0,0.0,0.0,-0.0659,-0.1863,0.0,0.0,-0.6853,-0.7434,-0.9252,-0.9822,-0.9822,-0.9822,-0.896,-0.7434,-0.4732,0.0,-0.1603,0.102,0.1655,0.169,0.1703,0.0,0.0,0.0,0.0,0.0,-0.327,0.0,0.0,0.0,0.0,0.0,0.0,0.0,0.0,0.0,0.0,0.0,-1.1619,-1.1619,-1.1619,-1.1619,-1.1619,-1.1619,-1.1619,-1.1701,-1.1775,-1.183,-1.1925,-1.2054,-1.2203,-1.2264,-1.2338,-1.242,-1.2474,0.0,0.0,-1.2501,-1.2501,-1.2501,-1.2501,-1.2501,-1.2501,-1.2501,-1.2501,-1.2501,0.0,0.0,0.0,0.0,0.0,0.0,-0.4244,-0.4307,-0.4382,-0.4592,-0.4687,-0.4696,-0.4578,-0.473,-0.4729,-0.4546,0.0,0.0,0.0,0.0,0.0,0.0,0.0,0.0,0.0,0.0,0.0,0.0,0.0,0.0,0.0,0.0,0.0,0.0,0.0,0.0,0.0,0.0,0.0,0.0,0.0,0.0,0.0,0.0,0.0,0.0,0.0,0.0,0.0,0.0,0.0,0.0,0.0,0.0,0.0,0.0,-0.5673,-0.6589,-0.8515,-0.9385,-0.9822,-0.9822,-0.8396,-0.6503,0.0,0.0,-0.063,0.1221,0.1663,0.1704,0.1704,0.1753,0.0,0.0,0.0,-0.0581,-0.1173,-0.3907,0.0,0.0,0.0,0.0,0.0,0.0,0.0,0.0,0.0,0.0,0.0,-1.1619,-1.1619,-1.1619,-1.1619,-1.164,-1.1681,-1.1782,-1.1877,-1.1965,-1.2074,-1.221,-1.2352,-1.2352,-1.2406,-1.2501,0.0,0.0,0.0,-1.2501,-1.2501,-1.2501,-1.2501,-1.2501,-1.2501,-1.2501,-1.2501,-1.2501,0.0,0.0,0.0,0.0,0.0,0.0,0.0,-0.4507,-0.4624,-0.483,-0.4668,-0.4607,-0.4789,-0.4607,-0.4607,-0.4796,0.0,0.0,0.0,0.0,0.0,0.0,0.0,0.0,0.0,0.0,0.0,0.0,0.0,0.0,0.0,0.0,0.0,0.0,0.0,0.0,0.0,0.0,0.0,0.0,0.0,0.0,0.242,0.0,0.0,0.0,0.0,0.0,0.0,0.0,0.0,0.0,0.0,0.1478,0.0,0.0,-0.2717,-0.4622,-0.6479,-0.8396,-0.9822,-0.9822,-0.8396,-0.6503,0.0,0.0,-0.063,0.1221,0.1663,0.1704,0.1704,0.1753,0.1795,0.1795,0.1795,0.0,-0.1052,-0.1309,0.0,0.0,0.0,0.0,0.0,0.0,0.0,0.0,0.0,0.0,0.0,-1.1619,-1.1619,-1.1619,-1.1619,-1.1687,-1.183,-1.183,-1.1986,-1.2284,-1.2284,-1.2366,-1.2501,-1.2501,-1.2501,0.0,0.0,0.0,0.0,-1.2501,-1.2501,-1.2501,-1.2501,-1.2501,-1.2501,-1.2501,-1.2501,-1.2501,0.0,0.0,0.0,0.0,0.0,0.0,0.0,-0.4539,-0.4803,-0.5039,-0.5068,-0.513,-0.5192,-0.5155,-0.5152,-0.5223,0.0,0.0,0.0,0.0,0.0,0.0,0.0,0.0,0.0,0.0,0.0,0.0,0.0,0.0,0.0,0.0,0.0,0.0,0.0,0.0,0.0,0.0,0.0,0.0,0.0,0.2053,0.2371,0.0,0.0,0.0,0.0,0.0,0.0,0.0,0.0,0.0,0.0,0.0,0.0,0.077,-0.0712,-0.2804,-0.5613,-0.6744,-0.7612,-0.9373,-0.8009,-0.5696,-0.3353,0.0,0.0921,0.1518,0.1663,0.1704,0.1704,0.1753,0.1795,0.1795,0.1795,0.1576,0.0,0.0,0.0,0.0,0.0,0.0,0.0,0.0,0.0,0.0,0.0,0.0,0.0,-1.1619,-1.1619,-1.1619,-1.1619,-1.1687,-1.183,-1.1938,-1.2088,-1.2291,-1.2386,-1.2461,-1.2501,-1.2501,0.0,0.0,0.0,0.0,0.0,-1.2501,-1.2501,-1.2501,-1.2501,-1.2501,-1.2501,-1.2501,-1.2501,-1.2501,0.0,0.0,0.0,0.0,0.0,0.0,0.0,-0.454,-0.4833,-0.5143,-0.5297,-0.5352,-0.5288,-0.5232,-0.52,-0.5219,0.0,0.0,0.0,0.0,0.0,0.0,0.0,0.0,0.0,0.0,0.0,0.0,0.0,0.0,0.0,0.0,0.0,0.0,0.0,0.0,0.0,0.0,0.0,0.0,0.174,0.1982,0.2228,0.0,0.0,0.0,0.0,0.0,0.0,0.0,0.0,0.0,0.0,0.0,0.0,0.0,0.0597,-0.0839,0.0,-0.4312,-0.581,-0.6826,-0.5895,0.0,0.0,0.0,0.1617,0.1617,0.1663,0.1704,0.1704,0.1753,0.1795,0.1795,0.1795,0.1577,0.0798,0.0,0.0,0.0,0.0,0.0,0.0,0.0,0.0,0.0,0.0,0.0,0.0,-1.1619,-1.1619,-1.1619,-1.1674,-1.1769,-1.1918,-1.2067,-1.2223,-1.2372,-1.2461,-1.2501,-1.2501,-1.2501,0.0,0.0,0.0,0.0,0.0,-1.2501,-1.2501,-1.2501,-1.2501,-1.2501,-1.2501,-1.2501,-1.2501,-1.2501,0.0,0.0,0.0,0.0,0.0,0.0,0.0,0.0,0.0,0.0,-0.5359,-0.5292,-0.5153,-0.4882,-0.4838,0.0,0.0,0.0,0.0,0.0,0.0,0.0,0.0,0.0,0.0,0.0,0.0,-0.2753,-0.2693,-0.2357,-0.1615,0.0,0.0,0.0,0.0,0.0,0.0,0.0,0.0,0.0,0.1754,0.1855,0.0,0.0,0.0,0.0,0.0,0.0,0.0,0.0,0.0,0.0,0.0,0.0,0.0,0.0,0.0,0.0,0.0,-0.1405,0.0,0.0,0.0,0.0,0.0,0.0,0.0,0.0,0.1663,0.1704,0.1704,0.1753,0.1795,0.1795,0.1795,0.102,-0.1052,-0.155,0.0,0.0,0.0,0.0,0.0,0.0,0.0,0.0,0.0,0.0,0.0,-1.1619,-1.1626,-1.1633,-1.1775,-1.1918,-1.206,-1.221,-1.2359,-1.2501,-1.2501,-1.2501,-1.2501,-1.2501,0.0,0.0,0.0,0.0,0.0,-1.2501,-1.2501,-1.2501,-1.2501,-1.2501,-1.2501,-1.2501,-1.2501,-1.2501,0.0,0.0,0.0,0.0,0.0,0.0,0.0,0.0,0.0,0.0,-0.5292,-0.5292,-0.5153,-0.4888,-0.4749,0.0,0.0,0.0,0.0,0.0,0.0,0.0,0.0,0.0,0.0,0.0,0.0,-0.3092,-0.2693,-0.2357,-0.2018,-0.0941,0.0,0.0,0.0,0.0,0.0,0.0,0.0,0.0,0.1415,0.1734,0.0,0.0,0.0,0.0,0.25,0.2144,0.0,0.0,0.0,0.0,0.0,0.0,0.0,0.0,0.1456,0.1391,0.1525,0.0,0.0207,0.0517,0.0617,0.0613,0.0,0.0,0.0,0.0,0.0,0.1704,0.1704,0.1753,0.1795,0.1795,0.1795,0.102,-0.1052,0.0,0.0,0.0,0.0,0.0,0.0,0.0,0.0,0.0,0.0,0.0,0.0,-1.1619,-1.1667,-1.1775,-1.1932,-1.2026,-1.206,-1.221,-1.2359,-1.2501,-1.2501,-1.2501,-1.2501,-1.2501,0.0,0.0,0.0,0.0,-1.2501,-1.2501,-1.2501,-1.2501,-1.2501,-1.2501,-1.2501,-1.2501,-1.2501,-1.2501,0.0,0.0,0.0,0.0,0.0,0.0,0.0,0.0,0.0,0.0,0.0,0.0,0.0,0.0,0.0,0.0,0.0,0.0,0.0,0.0,0.0,0.0,0.0,0.0,0.0,0.0,0.0,0.0,0.0,-0.2559,0.0,0.0,0.0,0.0,0.0,0.0,0.0,0.0,0.0,0.0892,0.1356,0.0,0.0,0.0,0.0,0.0,0.1936,0.1649,0.0,0.138,0.141,0.1436,0.0,0.0,0.0,0.0,0.1557,0.1497,0.1007,0.0909,0.0909,0.0909,0.1213,0.1617,0.0,0.0,0.0,0.0,0.0,0.0,0.1722,0.0,0.0,0.1687,0.023,-0.1528,0.0,0.0,0.0,0.0,0.0,0.0,0.0,0.0,0.0,0.0,0.0,0.0,0.0,-1.1619,-1.1687,-1.1823,-1.1979,-1.2094,-1.2169,-1.2311,-1.2427,-1.2501,-1.2501,-1.2501,-1.2501,-1.2501,-1.2501,0.0,0.0,0.0,-1.2501,-1.2501,-1.2501,-1.2501,-1.2501,-1.2501,-1.2501,-1.2501,-1.2501,-1.2501,0.0,0.0,0.0,0.0,0.0,0.0,0.0,0.0,0.0,0.0,0.0,0.0,0.0,0.0,0.0,0.0,0.0,0.0,0.0,0.0,0.0,0.0,0.0,0.0,0.0,0.0,0.0,0.0,0.0,0.0,0.0,0.0,0.0,0.0,0.0,0.0,0.0,0.0,0.0372,0.0914,0.1371,0.0,0.0,0.0,0.0,0.0,0.0,0.0,0.0,0.1386,0.1414,0.1436,0.1436,0.0,0.0,0.0,0.0,0.0,0.0202,0.0,0.0,0.0101,0.0808,0.1516,0.0,0.0,0.0,0.0,0.0,0.0,0.0,0.0,0.0,0.0,0.0,0.0,0.0,0.0,0.0,0.0,0.0,0.0,0.0,0.0,0.0,0.0,0.0,0.0,0.0,-1.1619,-1.1694,-1.1864,-1.1993,-1.2149,-1.2318,-1.244,-1.2501,-1.2501,-1.2501,-1.2501,-1.2501,-1.2501,-1.2501,0.0,0.0,0.0,-1.2501,-1.2501,-1.2501,-1.2501,-1.2501,-1.2501,-1.2501,-1.2501,-1.2501,-1.2501,0.0,0.0,0.0,0.0,0.0,0.0,0.0,0.0,0.0,0.0,0.0,0.0,0.0,0.0,0.0,0.0,0.0,0.0,0.0,0.0,0.0,0.0,0.0,0.0,0.0,0.0,0.0,0.0,0.0,0.0,-0.3,-0.2232,-0.1979,0.0,0.0,0.0,0.0,0.015,0.0458,0.0547,0.1094,0.0,0.0,0.0,0.0,0.0,0.0,0.0,0.0,0.1418,0.1431,0.1436,0.1436,0.0,0.0,0.0,0.0,0.0,0.0,0.0,0.0105,0.0611,0.0808,0.1011,0.0,0.0,0.0,0.0,0.0,0.0,0.0,0.0,0.0,0.0,0.0,0.0,0.0,0.0,0.0,0.0,0.0,0.0,0.0,0.0,0.0,0.0,0.0,0.0,0.0,-1.1619,-1.1742,-1.202,-1.2047,-1.2196,-1.2467,-1.2488,-1.2501,-1.2501,-1.2501,-1.2501,-1.2501,-1.2501,-1.2501,0.0,0.0,-1.2501,-1.2501,-1.2501,-1.2501,-1.2501,-1.2501,-1.2501,-1.2501,-1.2501,-1.2501,-1.2501,0.0,0.0,0.0,0.0,0.0,0.0,0.0,0.0,0.0,0.0,0.0,0.0,0.0,0.0,0.0,0.0,0.0,0.0,0.0,0.0,0.0,0.0,0.0,0.0,0.0,0.0,0.0,0.0,0.0,-0.2931,-0.2665,-0.1565,-0.1081,-0.1167,0.0,0.0,0.0,0.0371,0.0677,0.0308,0.0,0.0,0.0,0.0,0.0,0.0,0.0,0.0,0.0,0.0,0.1436,0.1436,0.1436,0.0,0.0,0.0,0.0,0.0,0.0,0.0,-0.0828,-0.4057,-0.1789,0.0746,0.0,0.0,0.0,0.0,0.0,0.0,0.0,0.0,0.0,0.0,0.0,0.0,0.0,0.0,0.0,0.0,0.0,0.0,0.0,0.0,0.0,0.0,0.0,0.0,0.0,0.0,-1.1837,-1.2054,-1.2142,-1.2284,-1.2501,-1.2501,-1.2501,-1.2501,-1.2501,-1.2501,-1.2501,-1.2501,-1.2501,-1.2501,0.0,-1.2501,-1.2501,-1.2501,-1.2501,-1.2501,-1.2501,-1.2501,-1.2501,-1.2501,-1.2501,-1.2501,0.0,0.0,0.0,0.0,0.0,0.0,0.0,0.0,0.0,0.0,0.0,0.0,0.0,0.0,0.0,0.0,0.0,0.0,0.0,0.0,0.0,0.0,0.0,0.0,0.0,0.0,-0.3627,-0.3226,-0.3226,-0.2942,-0.2403,-0.0726,-0.0295,0.0,0.0,0.0,0.0,0.0371,0.0751,0.0458,0.0,0.0,0.0,0.0,0.0,0.0,0.0,0.0,0.0,0.0,0.0,0.0,0.0,0.0,0.0,0.0,0.0,0.0,0.0,0.0,-0.1544,0.0,0.0,0.0,0.0,0.0,0.0,0.0,0.0,0.0,0.0,0.0,0.0,0.0,0.0,0.0,0.0,0.0,0.0,0.0,0.0,0.0,0.0,0.0,0.0,0.0,0.0,0.0,0.0,0.0,-1.1904,-1.2054,-1.221,-1.2359,-1.2501,-1.2501,-1.2501,-1.2501,-1.2501,-1.2501,-1.2501,-1.2501,-1.2501,-1.2501,-1.2501,-1.2501,-1.2501,-1.2501,-1.2501,-1.2501,-1.2501,-1.2501,-1.2501,-1.2501,-1.2501,-1.2501,0.0,0.0,0.0,0.0,0.0,0.0,0.0,0.0,0.0,0.0,0.0,0.0,0.0,0.0,0.0,0.0,0.0,0.0,0.0,0.0,0.0,0.0,0.0,0.0,0.0,-0.3823,-0.3627,-0.3226,-0.3226,-0.3109,-0.298,-0.0969,-0.0993,-0.281,0.0,0.0,0.0,-0.0313,0.0548,0.1254,0.1254,0.0,0.0,0.0,0.0,0.0,0.0,0.0,0.0,0.0,0.0,0.0,0.0,0.0,0.0,0.0,0.0,0.0,0.0,0.0,-0.159,-0.8143,0.0,0.0,0.0,0.0,0.0,0.0,0.0,0.0,0.0,0.0,0.0,0.0,0.0,0.0,0.0,0.0,0.0,0.0,0.0,0.0,0.0,0.0,0.0,0.0,0.0,0.0,0.0,0.0,0.0,-1.2054,-1.221,-1.2359,-1.2501,-1.2501,-1.2501,-1.2501,-1.2501,-1.2501,-1.2501,-1.2501,-1.2501,-1.2501,-1.2501,-1.2501,-1.2501,-1.2501,-1.2501,-1.2501,-1.2501,-1.2501,-1.2501,-1.2501,-1.2501,-1.2501,0.0,0.0,0.0,0.0,0.0,0.0,0.0,0.0,0.0,0.0,0.0,0.0,0.0,0.0,0.0,0.0,0.0,0.0,0.0,0.0,0.0,0.0,0.0,-0.4266,-0.4066,-0.3929,-0.3694,-0.3364,-0.334,-0.3171,-0.2837,-0.2526,0.0,0.0,0.0,0.0,0.0,0.0,0.1021,0.1335,0.1335,0.1268,0.0,0.0,0.0,0.0,0.0,0.0,0.0,0.0,0.0717,0.063,0.1195,0.0751,0.0,0.0,0.0,0.0,0.0,-0.3008,-0.5656,0.0,0.0,0.0,0.0,0.0,0.0,0.0,0.0,0.0,0.0,0.0,0.0,0.0,0.0,0.0,0.0,0.0,0.0,0.0,0.0,0.0,0.0,0.0,0.0,0.0,0.0,0.0,0.0,0.0,0.0,-1.206,-1.2298,-1.2447,-1.2501,-1.2501,-1.2501,-1.2501,-1.2501,-1.2501,-1.2501,-1.2501,-1.2501,-1.2501,-1.2501,-1.2501,-1.2501,-1.2501,-1.2501,-1.2501,-1.2501,-1.2501,-1.2501,-1.2501,-1.2501,-1.2501,0.0,0.0,0.0,0.0,0.0,0.0,0.0,0.0,0.0,0.0,0.0,0.0,0.0,0.0,0.0,0.0,0.0,0.0,0.0,0.0,0.0,0.0,0.0,-0.4245,-0.4111,-0.3968,-0.3792,-0.3586,-0.3295,-0.3102,-0.2951,0.0,0.0,0.0,0.0,0.0,0.0,0.0,0.1335,0.1337,0.1268,0.1284,0.0,0.0,0.0,0.0,0.0,0.0,0.0,0.0,0.0721,0.0546,0.0835,0.0473,0.0,0.0,-0.1512,-0.3084,-0.3084,-0.4822,-0.6105,0.0,0.0,0.0,0.0,0.0,0.0,0.0,0.0,0.0,0.0,0.0,0.0,0.0,0.0,0.0,0.0,0.0,0.0,0.0,0.0,0.0,0.0,0.0,0.0,0.0,0.0,0.0,0.0,0.0,0.0,0.0,-1.2305,-1.2454,-1.2501,-1.2501,-1.2501,-1.2501,-1.2501,-1.2501,-1.2501,-1.2501,-1.2501,-1.2501,-1.2501,-1.2501,-1.2501,-1.2501,-1.2501,-1.2501,-1.2501,-1.2501,-1.2501,-1.2501,-1.2501,-1.2501,0.0,0.0,0.0,0.0,0.0,0.0,0.0,0.0,0.0,0.0,0.0,0.0,0.0,0.0,0.0,0.0,0.0,0.0,0.0,0.0,0.0,0.0,0.0,-0.4225,-0.4003,-0.3858,-0.3785,-0.3785,-0.2983,-0.2955,-0.3563,-0.1893,0.0,0.0,0.0,0.0,0.0,0.0,0.1257,0.134,0.1291,0.1303,0.131,0.0,0.0,0.0,0.0,0.0,0.0,0.0,0.0636,0.1207,0.0284,0.0,0.0,0.0,-0.4568,-0.9686,-0.9792,-0.501,0.0,0.0,0.0,0.0,0.0,0.0,0.0,0.0,0.0,0.0,0.0,0.0,0.0,0.0,0.0,0.0,0.0,0.0,0.0,0.0,0.0,0.0,0.0,0.0,0.0,0.0,0.0,0.0,0.0,0.0,0.0,0.0,-1.221,-1.2359,-1.2501,-1.2501,-1.2501,-1.2501,-1.2501,-1.2501,-1.2501,-1.2501,-1.2501,-1.2501,-1.2501,-1.2501,-1.2501,-1.2501,-1.2501,-1.2501,-1.2501,-1.2501,-1.2501,-1.2501,-1.2501,-1.2501,0.0,0.0,0.0,0.0,0.0,0.0,0.0,0.0,0.0,0.0,0.0,0.0,0.0,0.0,0.0,0.0,0.0,0.0,0.0,0.0,0.0,0.0,0.0,0.0,0.0,0.0,-0.3583,-0.3216,-0.2691,-0.2576,0.0,0.0,0.0,-0.11,0.0,0.0,0.0,0.0,0.0725,0.1292,0.1322,0.1346,0.1366,0.0,0.0,0.0,0.0,0.0,0.0,0.0,0.0,0.0,0.0095,0.0,0.0,0.0,-0.1426,-0.3908,-0.8501,-0.8355,0.0,0.0,0.0,0.0,0.0,0.0,0.0,0.0,0.0,0.0,0.0,0.0,0.0,0.0,0.0,0.0,0.0,0.0,0.0,0.0,0.0,0.0,0.0,0.0,0.0,0.0,0.0,0.0,0.0,0.0,0.0,0.0,-1.221,-1.2359,-1.2501,-1.2501,-1.2501,-1.2501,-1.2501,-1.2501,-1.2501,-1.2501,-1.2501,-1.2501,-1.2501,-1.2501,-1.2501,-1.2501,-1.2501,-1.2501,-1.2501,-1.2501,-1.2501,-1.2501,-1.2501,-1.2501,0.0,0.0,0.0,0.0,0.0,0.0,0.0,0.0,0.0,0.0,0.0,0.0,0.0,0.0,0.0,0.0,0.0,0.0,0.0,0.0,0.0,0.0,0.0,0.0,0.0,-0.3507,-0.3119,0.0,0.0,0.0,0.0,0.0,0.0,0.0,0.0,0.0,0.0,0.0,0.0491,0.1324,0.1354,0.1376,0.1479,0.0,0.0,0.0,0.0,0.0,0.0,0.0,0.0,0.0,0.0,0.0,-0.0499,-0.3178,-0.2063,-0.1452,-0.8056,0.0,0.0,0.0,0.0,0.0,0.0,0.0,0.0,0.0,0.0,0.0,0.0,0.0,0.0,0.0,0.0,0.0,0.0,0.0,0.0,0.0,0.0,0.0,0.0,0.0,0.0,0.0,0.0,0.0,0.0,0.0,0.0,0.0,-1.2149,-1.2298,-1.2501,-1.2501,-1.2501,-1.2501,-1.2501,-1.2501,-1.2501,-1.2501,-1.2501,-1.2501,-1.2501,-1.2501,-1.2501,-1.2501,-1.2501,-1.2501,-1.2501,-1.2501,-1.2501,-1.2501,-1.2501,-1.2501,0.0,0.0,0.0,0.0,0.0,0.0,0.0,0.0,0.0,0.0,0.0,0.0,0.0,0.0,0.0,0.0,0.0,0.0,0.0,0.0,0.0,0.0,0.0,0.0,0.0,0.0,0.0,0.0,0.0,0.0,0.0,0.0,-0.0864,0.0,0.0,0.0,0.0,0.0,0.0498,0.127,0.1385,0.1396,0.1485,0.2405,0.0,0.0,0.0,0.0,0.0,0.0,0.0,0.0,0.0,0.0099,-0.1017,-0.7078,-0.5104,-0.2154,-0.8148,0.0,0.0,0.0,0.0,0.0,0.0,0.0,0.0,0.0,0.0,0.0,0.0,0.0,0.0,0.0,0.0,0.0,0.0,0.0,0.0,0.0,0.0,0.0,0.0,0.0,0.0,0.0,0.0,0.0,0.0,0.0,0.0,-1.2054,-1.206,-1.2203,-1.2501,-1.2501,-1.2501,0.0,-1.2501,-1.2501,-1.2501,-1.2501,-1.2501,-1.2501,-1.2501,-1.2501,-1.2501,-1.2501,-1.2501,-1.2501,-1.2501,-1.2501,-1.2501,-1.2501,-1.2501,-1.2501,0.0,0.0,0.0,0.0,0.0,0.0,0.0,0.0,0.0,0.0,0.0,0.0,0.0,0.0,0.0,0.0,0.0,0.0,0.0,0.0,0.0,0.0,0.0,0.0,0.0,0.0,0.0,0.0,0.0,0.0,0.0,0.0,0.0,0.0,0.0,0.0,0.0,0.0,0.0086,0.0346,0.106,0.1426,0.1426,0.1612,0.1615,0.0,0.0,0.0,0.0,0.0,0.0,0.0,0.0,0.0597,0.0809,-0.1427,-0.4798,-0.8049,0.0,0.0,0.0,0.0,0.0,0.0,0.0,0.0,0.0,0.0,0.0,0.0,0.0,0.0,0.0,0.0,0.0,0.0,0.0,0.0,0.0,0.0,0.0,0.0,0.0,0.0,0.0,0.0,0.0,0.0,0.0,0.0,0.0,-1.2054,-1.206,-1.2203,-1.2501,-1.2501,-1.2501,0.0,-1.2501,-1.2501,-1.2501,-1.2501,-1.2501,-1.2501,-1.2501,-1.2501,-1.2501,-1.2501,-1.2501,-1.2501,-1.2501,-1.2501,-1.2501,-1.2501,-1.2501,-1.2501,0.0,0.0,0.0,0.0,0.0,0.0,0.0,0.0,0.0,0.0,0.0,0.0,0.0,0.0,0.0,0.0,0.0,0.0,0.0,0.0,0.0,0.0,0.0,0.0,0.0,0.0,0.0,0.0,0.0,0.0,0.0,0.0,0.0,0.0,0.0,0.0,0.0,0.0,0.0,0.0088,0.0982,0.1436,0.1437,0.1361,0.1457,0.1461,0.1398,0.0,0.0,0.0,0.0,0.0,0.0,0.0,0.0811,0.0824,-0.4257,-0.9766,0.0,0.0,0.0,0.0,0.0,0.0,0.0,0.0,0.0,0.0,0.0,0.0,0.0,0.0,0.0,0.0,0.0,0.0,0.0,0.0,0.0,0.0,0.0,0.0,0.0,0.0,0.0,0.0,0.0,0.0,0.0,-1.1619,-1.1721,-1.1945,-1.202,-1.2169,-1.24,-1.2467,-1.2501,-1.2501,-1.2501,-1.2501,-1.2501,-1.2501,-1.2501,-1.2501,-1.2501,-1.2501,-1.2501,-1.2501,-1.2501,-1.2501,-1.2501,-1.2501,-1.2501,-1.2501,-1.2501,-1.2501,0.0,0.0,0.0,0.0,0.0,0.0,0.0,0.0,0.0,0.0,0.0,0.0,0.0,0.0,0.0,0.0,0.0,0.0,0.0,0.0,0.0,0.0,0.0,0.0,0.0,0.0,0.0,0.0,0.0,0.0,0.0,0.0,0.0,0.0,0.0,0.0,0.0,0.0175,0.0265,0.0269,0.1077,0.1438,0.1355,0.1379,0.1483,0.1586,0.1428,0.155,0.1572,0.1577,0.0,0.0,0.0,0.0,0.0406,0.1255,-0.3011,-0.828,0.0,0.0,0.0,0.0,0.0,0.0,0.0,0.0,0.0,0.0,0.0,0.0,0.0,0.0,0.0,0.0,0.0,0.0,0.0,0.0,0.0,0.0,0.0,0.0,0.0,0.0,0.0,0.0,0.0,0.0,-1.1619,-1.1619,-1.1687,-1.1823,-1.1979,-1.2135,-1.2291,-1.2433,-1.2501,-1.2501,-1.2501,-1.2501,-1.2501,-1.2501,-1.2501,-1.2501,-1.2501,-1.2501,-1.2501,-1.2501,-1.2501,-1.2501,-1.2501,-1.2501,-1.2501,-1.2501,-1.2501,-1.2501,0.0,0.0,0.0,0.0,0.0,0.0,0.0,0.0,0.0,0.0,0.0,0.0,0.0,0.0,0.0,0.0,0.0,0.0,0.0,0.0,0.0,0.0,0.0,0.0,0.0,0.0,0.0,0.0,0.0,0.0,0.0,0.0,0.0,0.0,0.0,0.0,0.0,0.0887,0.1253,0.1256,0.1346,0.136,0.1383,0.1387,0.1497,0.1619,0.1554,0.1568,0.1576,0.1602,0.131,0.0,0.0,0.0,0.1315,0.1016,0.0207,-0.2015,0.0,0.0,0.0,0.0,0.0,0.0,0.0,0.0,0.0,0.0,0.0,0.0,0.0,0.0,0.0,0.0,0.0,0.0,0.0,0.0,0.0,0.0,0.0,0.0,0.0,0.0,0.0,0.0,0.0,0.0,-1.1619,-1.1619,-1.1687,-1.1823,-1.1979,-1.2135,-1.2291,-1.2433,-1.2501,-1.2501,-1.2501,-1.2501,-1.2501,-1.2501,-1.2501,-1.2501,-1.2501,-1.2501,-1.2501,-1.2501,-1.2501,-1.2501,-1.2501,-1.2501,-1.2501,-1.2501,-1.2501,-1.2501,0.0,0.0,0.0,0.0,0.0,0.0,0.0,0.0,0.0,0.0,0.0,0.0,0.0,0.0,0.0,-0.4073,-0.4311,-0.4467,-0.4467,-0.3999,0.0,0.0,0.0,0.0,0.0,0.0,0.0,0.0,0.0,0.0,0.0,-0.1261,-0.0845,0.0,0.0,0.0,0.0,0.0,0.0,0.1461,0.146,0.0094,-0.1454,0.0672,0.0682,-0.03,0.0,0.0,0.0,0.1613,0.1415,0.1314,0.1516,0.0,0.0,0.0,0.0,0.0,0.0,0.0,0.0,0.0,0.0,0.0,0.0,0.0,0.0,0.0,0.0,0.0,0.0,0.0,0.0,0.0,0.0,0.0,0.0,0.0,0.0,0.0,0.0,0.0,0.0,0.0,0.0,0.0,-1.1619,-1.1619,-1.1619,-1.1619,-1.1647,-1.1708,-1.1857,-1.2006,-1.2162,-1.2311,-1.242,-1.2501,-1.2501,-1.2501,-1.2501,-1.2501,-1.2501,-1.2501,-1.2501,-1.2501,-1.2501,-1.2501,-1.2501,-1.2501,-1.2501,-1.2501,-1.2501,-1.2501,-1.2501,-1.2501,0.0,0.0,0.0,0.0,0.0,0.0,0.0,0.0,0.0,0.0,0.0,0.0,0.0,0.0,0.0,0.0,-0.4233,-0.4467,-0.4467,-0.4077,0.0,0.0,0.0,0.0,0.0,0.0,0.0,0.0,0.0,0.0,-0.1359,-0.1296,-0.096,0.0,0.0175,0.0,0.0,0.0,0.0,0.0,0.0,-0.1654,-0.3957,0.0,0.0,-0.2842,-0.0309,0.0,0.0,0.0,0.0,0.0,0.0,0.0,0.0,0.0,0.0,0.0,0.0,0.0,0.0,0.0,0.0,0.0,0.0,0.0,0.0,0.0,0.0,0.0,0.0,0.0,0.0,0.0,0.0,0.0,0.0,0.0,0.0,0.0,0.0,0.0,0.0,0.0,0.0,0.0,-1.1619,-1.1619,-1.1619,-1.1619,-1.1619,-1.1619,-1.1755,-1.1884,-1.1999,-1.2196,-1.2359,-1.2501,-1.2501,-1.2501,-1.2501,-1.2501,-1.2501,-1.2501,-1.2501,-1.2501,-1.2501,-1.2501,-1.2501,-1.2501,-1.2501,-1.2501,-1.2501,-1.2501,-1.2501,-1.2501,0.0,0.0,0.0,0.0,0.0,0.0,0.0,0.0,0.0,0.0,0.0,0.0,0.0,-0.3839,-0.3843,-0.3765,-0.3843,-0.3843,-0.3843,-0.3843,-0.3921,-0.4077,0.0,0.0,0.0,0.0,0.0,0.0,0.0,0.0,-0.1391,-0.1391,-0.1406,-0.1254,0.0537,0.0896,0.0179,0.0,0.0,0.0,0.0,0.0,0.0,0.0,0.0,0.0,0.0,0.0,0.0,0.0,0.0,0.0,0.0,0.0,0.0,0.0,0.0,0.0,0.0,0.0,0.0,0.0,0.0,0.0,0.0,0.0,0.0,0.0,0.0,0.0,0.0,0.0,0.0,0.0,0.0,0.0,0.0,0.0,0.0,0.0,0.0,0.0,0.0,0.0,0.0,0.0,-1.1619,-1.1619,-1.1619,-1.1619,-1.1619,-1.1619,-1.1755,-1.1837,-1.1843,-1.2142,-1.2359,-1.2501,-1.2501,-1.2501,-1.2501,-1.2501,-1.2501,-1.2501,-1.2501,-1.2501,-1.2501,-1.2501,-1.2501,-1.2501,-1.2501,-1.2501,-1.2501,-1.2501,-1.2501,-1.2501,0.0,0.0,0.0,0.0,0.0,0.0,0.0,0.0,0.0,0.0,0.0,0.0,0.0,-0.3765,-0.3765,-0.3765,-0.3765,-0.3843,-0.3999,-0.3843,-0.3843,-0.3921,0.0,0.0,0.0,0.0,0.0,0.0,0.0,-0.1651,-0.1421,-0.1419,-0.1425,-0.1346,-0.009,0.0628,0.0898,0.1284,0.0,0.0,0.0,0.0,0.0,0.0,0.0,0.0,0.0,0.0,0.0,0.0,0.0,0.0,0.0,0.0,0.0,0.0,0.0,0.0,0.0,0.0,0.0,0.0,0.0,0.0,0.0,0.0,0.0,0.0,0.0,0.0,0.0,0.0,0.0,0.0,0.0,0.0,0.0,0.0,0.0,0.0,0.0,0.0,0.0,0.0,0.0,0.0,0.0,-1.1619,-1.1619,-1.1619,-1.1619,-1.1619,-1.1667,-1.1789,-1.1979,-1.2189,-1.2359,-1.2501,-1.2501,-1.2501,-1.2501,-1.2501,-1.2501,-1.2501,-1.2501,-1.2501,-1.2501,-1.2501,-1.2501,-1.2501,-1.2501,-1.2501,-1.2501,-1.2501,-1.2501,-1.2501,0.0,0.0,0.0,0.0,0.0,0.0,0.0,0.0,0.0,0.0,0.0,0.0,0.0,0.0,-0.353,-0.337,-0.337,-0.3463,-0.3572,-0.3493,-0.3425,-0.3531,-0.3014,0.0,0.0,0.0,0.0,0.0,0.0,0.0,0.0,0.0,-0.1183,-0.0824,-0.0275,0.0,0.0,0.0,0.0,0.1066,0.0,0.0,-0.4724,0.0,0.0,0.0,0.0,0.0,0.0,0.0,0.0,0.0,0.0,0.0,0.0,0.0,0.0,0.0,0.0,0.0,0.0,0.0,0.0,0.0,0.0,0.0,0.0,0.0,0.0,0.0,0.0,0.0,0.0,0.0,0.0,0.0,0.0,0.0,0.0,0.0,0.0,0.0,0.0,0.0,0.0,0.0,0.0,0.0,-1.1619,-1.1619,-1.1619,-1.1619,-1.1619,-1.1735,-1.1979,-1.2135,-1.2284,-1.2433,-1.2481,-1.2501,-1.2501,-1.2501,-1.2501,-1.2501,-1.2501,-1.2501,-1.2501,-1.2501,-1.2501,-1.2501,-1.2501,-1.2501,-1.2501,-1.2501,-1.2501,-1.2501,0.0,0.0,0.0,0.0,0.0,0.0,0.0,0.0,0.0,0.0,0.0,0.0,0.0,0.0,0.0,-0.2512,-0.2515,-0.2542,-0.26,-0.2605,-0.2712,-0.2851,-0.2354,0.0,0.0,0.0,0.0,0.0,0.0,0.0,0.0,0.0,-0.0842,0.0,0.0191,0.0661,0.158,0.0,0.1474,0.1385,0.0,-0.2295,-0.2677,0.0,0.0,0.0,-0.4158,-0.4173,0.0,0.0,0.0,0.0,0.0,0.0,0.0,0.0,0.0,0.0,0.0,0.0,0.0,0.0,0.0,0.0,-0.904,0.0,0.0,0.0,0.0,0.0,0.0,0.0,0.0,0.0,0.0,0.0,0.0,0.0,0.0,0.0,0.0,0.0,0.0,0.0,0.0,0.0,-1.1619,-1.1619,-1.1619,-1.1619,-1.1619,-1.1619,-1.1619,-1.1687,-1.183,-1.1986,-1.2142,-1.2291,-1.2433,-1.2501,-1.2501,-1.2501,-1.2501,-1.2501,-1.2501,-1.2501,-1.2501,-1.2501,-1.2501,-1.2501,-1.2501,-1.2501,-1.2501,-1.2501,-1.2501,-1.2501,0.0,0.0,0.0,0.0,0.0,0.0,0.0,0.0,0.0,0.0,0.0,0.0,0.0,0.0,0.0,-0.2575,-0.2534,-0.2566,-0.2582,-0.2751,-0.2843,-0.2689,-0.2304,-0.217,0.0,0.0,0.0,0.0,0.0,0.0,0.0,0.0,0.0,0.0,0.1162,0.136,0.1644,0.1565,0.0,0.0,-0.3129,-0.4997,0.0,0.0,0.0,0.0,0.0,-0.5873,0.0,0.0,-0.5326,-0.3458,0.0,0.0,0.0,0.0,0.0,0.0,0.0455,0.0,0.0,0.0,0.0,0.0,-0.1223,-0.5835,-1.0,0.0,0.0,0.0,0.0,0.0,0.0,0.0,0.0,0.0,0.0,0.0,0.0,0.0,0.0,0.0,0.0,0.0,0.0,0.0,-1.1619,-1.1619,-1.1619,-1.1619,-1.1619,-1.1619,-1.1619,-1.1687,-1.183,-1.1986,-1.2142,-1.2291,-1.2433,-1.2501,-1.2501,-1.2501,-1.2501,-1.2501,-1.2501,-1.2501,-1.2501,-1.2501,-1.2501,-1.2501,-1.2501,-1.2501,-1.2501,-1.2501,-1.2501,-1.2501,0.0,0.0,0.0,0.0,0.0,0.0,0.0,0.0,0.0,0.0,0.0,0.0,0.0,0.0,0.0,-0.2063,-0.2089,-0.2121,-0.2073,-0.2248,-0.2265,-0.213,-0.1977,-0.1911,0.0,0.0,0.0,0.0,0.0,0.0,0.0,0.0,0.0,0.0,0.0,0.0,0.0,0.0,0.0,0.0,-0.3941,0.0,0.0,-0.635,-0.7199,0.0,0.0,0.0,-0.6631,-0.7878,-0.6598,0.0,0.0,0.0,0.0,0.0,0.0,0.0,0.0,0.0,0.0,0.0,0.0,0.0,-0.0367,-0.4164,-0.8091,0.0,0.0,0.0,0.0,0.0,0.0,0.0,0.0,0.0,0.0,0.0,0.0,0.0,0.0,0.0,0.0,-1.1586,-1.1619,-1.1619,-1.1619,-1.1619,-1.1619,-1.1619,-1.1619,-1.1619,-1.1619,-1.166,-1.1742,-1.1891,-1.2047,-1.2196,-1.2345,-1.2447,-1.2501,-1.2501,-1.2501,-1.2501,-1.2501,-1.2501,-1.2501,-1.2501,-1.2501,-1.2501,-1.2501,-1.2501,-1.2501,-1.2501,-1.2501,-1.2501,0.0,0.0,0.0,0.0,0.0,0.0,0.0,0.0,0.0,0.0,0.0,0.0,0.0,0.0,0.0,0.0,-0.1281,-0.1389,-0.1442,-0.1445,-0.147,-0.1524,-0.1525,-0.1528,-0.1531,0.0,0.0,0.0,0.0,0.0,0.0,0.0,0.0,0.0,0.0,0.0,0.0,0.0,0.0,0.0947,-0.357,-0.4155,0.0,0.0,-0.6067,0.0,-0.6696,-0.7334,-0.776,-0.949,-0.8022,0.0,0.0,0.0,0.0,0.0,0.0,0.0,0.0,0.0,0.0,0.0,0.0,0.0,-0.2983,-0.3794,-0.4897,-0.9133,0.0,0.0,0.0,0.0,0.0,0.0,0.0,0.0,0.0,0.0,0.0,0.0,0.0,0.0,-1.1389,-1.1511,-1.1599,-1.1619,-1.1619,-1.1619,-1.1619,-1.1619,-1.1619,-1.1619,-1.1619,-1.1619,-1.1619,-1.1762,-1.1911,-1.206,-1.2216,-1.2366,-1.2501,-1.2501,-1.2501,-1.2501,-1.2501,-1.2501,-1.2501,-1.2501,-1.2501,-1.2501,-1.2501,-1.2501,-1.2501,-1.2501,-1.2501,-1.2501,0.1334,0.0,0.0,0.0,0.0,0.0,0.0,0.0,0.0,0.0,0.0,0.0,0.0,0.0,0.0,0.0,-0.0831,-0.1028,-0.1414,-0.1414,-0.1419,-0.1525,-0.1525,-0.1538,-0.1465,-0.1465,0.0,0.0,0.0,0.0,0.0,0.0,0.0,0.0,0.0,0.0,0.0,0.0,0.0,-0.0772,-0.1676,0.0,-0.3981,-0.6129,-0.7747,-0.8885,-0.9284,-0.9471,-0.9647,0.0,-1.017,-0.8568,0.0,0.0,0.0,0.0,0.0,0.0,0.0,0.0,0.0,0.0,0.0,0.0,0.0244,-0.4843,-0.8523,0.0,0.0,0.0,0.0,0.0,0.0,0.0,0.0,0.0,0.0,0.0,0.0,0.0,0.0,0.0,-1.1369,-1.1416,-1.1484,-1.1613,-1.1619,-1.1619,-1.1619,-1.1619,-1.1619,-1.1619,-1.1619,-1.1619,-1.1619,-1.1762,-1.1911,-1.206,-1.2216,-1.2366,-1.2501,-1.2501,-1.2501,-1.2501,-1.2501,-1.2501,-1.2501,-1.2501,-1.2501,-1.2501,-1.2501,-1.2501,-1.2501,-1.2501,-1.2501,-1.2501,0.1544,0.0,0.0,0.0,0.0,0.0,0.0,0.0,0.0,0.0,0.0,0.0,0.0,0.0,0.0,0.0,0.0,0.0,0.0,0.0,-0.1361,-0.1178,-0.1178,-0.1184,-0.1195,-0.1395,-0.1602,0.0,0.0,0.0,0.0,0.0,0.0,0.0,0.0,0.0,0.0,0.0,0.1219,0.0113,-0.1825,0.0,-0.576,-0.7643,-0.9051,-1.0059,-1.0134,-1.0215,-1.029,-1.0565,-0.9742,0.0,0.0,-0.538,-0.5331,0.0,-0.2751,0.0243,0.0,0.0,0.0,0.1954,0.0,0.0,0.0,-0.3489,-0.7084,-0.521,-0.4855,0.0,0.0,0.0,0.0,0.0,0.0,0.0,0.0,0.0,0.0,0.0,0.0,0.0,-1.1158,-1.1233,-1.1341,-1.1497,-1.1572,-1.1619,-1.1619,-1.1619,-1.1619,-1.1619,-1.1619,-1.1619,-1.1619,-1.1687,-1.1796,-1.1945,-1.2101,-1.225,-1.24,-1.2467,-1.2501,-1.2501,-1.2501,-1.2501,-1.2501,-1.2501,-1.2501,-1.2501,-1.2501,-1.2501,-1.2501,-1.2501,-1.2501,-1.2501,0.1685,0.0,0.0,0.0,0.0,0.0,0.0,0.0,0.0,0.0,0.0,0.0,0.0,0.0,0.0,0.0,0.0,0.0,0.0,0.0,0.0,-0.1734,-0.1014,-0.0608,-0.0612,-0.1115,-0.1314,0.0,0.0,0.0,0.0,0.0,0.0,0.0,0.0,0.0,0.0,0.0,0.0,0.0348,0.0,-0.4746,-0.5988,-0.8127,-0.9119,-0.9568,-1.0163,-1.0439,-1.0555,-1.0649,0.0,-0.7617,-0.9058,-0.803,0.0,0.0,0.0,0.0,0.0,0.0,0.0,0.0,0.0,0.1733,0.0,0.0,0.0,-0.3941,0.0,0.0,0.0,0.0,0.0,0.0,0.0,0.0,0.0,0.0,0.0,0.0,0.0,0.0,0.0,-1.0483,-1.077,-1.1375,-1.1186,-1.1123,-1.1613,-1.1619,-1.1619,-1.1619,-1.1619,-1.1619,-1.1619,-1.1619,-1.1687,-1.183,-1.1959,-1.2115,-1.2291,-1.2406,-1.2474,-1.2501,-1.2501,-1.2501,-1.2501,-1.2501,-1.2501,-1.2501,-1.2501,-1.2501,-1.2501,-1.2501,-1.2501,-1.2501,0.1443,0.0,0.0,0.0,0.0,0.0,0.0,0.0,0.0,0.0,0.0,0.0,0.0,0.0,0.0,0.0,0.0,0.0,-0.4644,0.0,0.0,0.0,-0.1848,-0.0102,-0.0106,-0.0103,-0.0202,-0.0202,0.0,0.0,0.0,0.0,0.0,0.0,-0.5722,0.0,0.0,0.0,-0.188,0.0,-0.4001,-0.3247,0.0,-0.407,-0.6002,-0.7948,-0.9993,-1.0677,-1.0683,0.0,-1.0514,-0.9626,0.0,-0.735,0.0,0.0,0.0,0.0,0.0,0.0,0.0,0.0,0.173,0.0,0.0,0.0,-0.0124,0.0992,0.0,0.0,0.0,0.0,0.0,0.0,0.0,0.0,0.0,0.0,0.0,0.0,0.0,0.0,0.0,-0.8288,-0.9274,-1.1228,-0.9719,-0.9479,-1.1456,-1.1619,-1.1619,-1.1619,-1.1619,-1.1619,-1.1619,-1.1619,-1.1687,-1.183,-1.185,-1.2006,-1.2291,-1.2305,-1.2386,-1.2501,-1.2501,-1.2501,-1.2501,-1.2501,-1.2501,-1.2501,-1.2501,-1.2501,-1.2501,-1.2501,-1.2501,-1.2501,0.1846,0.0,0.0,0.0,0.0,0.0,0.0,0.0,0.0,0.0,0.0,0.0,0.0,0.0,0.0,0.0,0.0,-0.7541,0.0,0.0,0.0,0.0,-0.453,0.0,-0.0106,0.0,0.0,0.0,0.0,0.0,0.0,0.0,0.0,0.0,-0.3895,0.0,-0.48,0.0,0.0,0.0,0.0,0.0,0.0,-0.6213,-0.8447,-0.941,-1.0386,-1.0717,-1.0711,0.0,-0.9068,0.0,0.0,0.0,0.0,0.0,0.0,0.0,0.0,0.0,0.0,0.0,0.0,0.0,0.0,0.0,0.0864,0.0,0.0,0.0,0.0,0.0,0.0,0.0,0.0993,0.0,0.0,0.0,0.0,0.0,0.0,0.0,0.0,0.0,0.0,0.0,-1.0525,-1.0492,-1.1477,-1.1572,-1.1619,-1.1619,-1.1619,-1.1619,-1.1619,-1.1619,-1.1647,-1.1708,-1.1789,-1.1945,-1.2162,-1.225,-1.2366,-1.2501,-1.2501,-1.2501,-1.2501,-1.2501,-1.2501,-1.2501,-1.2501,-1.2501,-1.2501,-1.2501,-1.2501,-1.2501,0.0,0.0,0.0,0.0,0.0,0.0,0.0,0.0,0.0,0.0,0.0,0.0,0.1126,-0.4313,0.0,0.0,0.0,-0.9471,0.0,0.0,-0.1642,0.0,-0.5513,0.0,0.0,0.0,0.0533,0.0533,0.0,0.0,0.0,0.0,0.0,0.0,0.0,-0.2985,-0.7311,0.0,0.0,-0.3013,-0.4697,-0.4726,-0.4345,-0.8225,-1.0149,-1.0717,-1.0717,-1.0717,-1.0717,-1.0683,-0.8671,0.0,-0.7641,0.0,0.0,0.0,0.0,0.0,0.0624,0.0,0.0,0.0,0.0,0.0,0.0,0.0,0.0,0.0,0.0,0.0,0.0,0.0,0.0,0.0,0.0,0.0,0.0,0.0,0.0,0.0,0.0,0.0,0.0,0.0,0.0,-1.0059,-1.0247,-1.0696,-1.1382,-1.1497,-1.1572,-1.1619,-1.1619,-1.1619,-1.1619,-1.1619,-1.1619,-1.1619,-1.1721,-1.185,-1.2006,-1.2155,-1.2305,-1.2447,-1.2481,-1.2501,-1.2501,-1.2501,-1.2501,-1.2501,-1.2501,-1.2501,-1.2501,-1.2501,-1.2501,-1.2501,0.2,0.1715,0.0,0.0,0.0,0.0,0.0,0.0,0.0,0.0,0.0,0.0,0.0,0.0,0.0,0.0,0.0,-0.9428,-0.9525,0.0,-0.5886,0.0,0.0,-0.1744,0.0,0.0,0.0,0.1708,0.0,0.0,0.0,0.0,0.0,0.0,0.0,0.0586,-0.1649,-0.3444,-0.5426,-0.7419,-0.7403,-0.8568,-1.0247,0.0,-0.888,-1.0717,-1.0717,0.0,0.0,-1.0713,-1.0664,0.0,0.0,0.0,0.0,0.0,0.0,0.0,0.0,0.0,0.0,-0.1612,0.0,0.0,0.0,0.0,0.1606,0.0,0.0,0.0,0.0,0.0,0.0,0.0,0.0,0.0,0.0,0.0,0.0,0.0,0.0,0.0,0.0,0.0,0.0,-0.7749,-0.7907,-0.8872,-1.1228,-1.1396,-1.1463,-1.1613,-1.1619,-1.1619,-1.1619,-1.1619,-1.1619,-1.1619,-1.1626,-1.1701,-1.1843,-1.1999,-1.2155,-1.2305,-1.244,-1.2501,-1.2501,-1.2501,-1.2501,-1.2501,-1.2501,-1.2501,-1.2501,-1.2501,-1.2501,-1.2501,0.0,0.0,0.0,0.0,0.0,0.0,0.0,0.1602,0.0,0.0,0.0,0.0,0.0,0.0,-0.5602,0.0,0.0,-0.9614,-0.947,-0.8602,0.0,0.0,0.0,-0.4812,0.0,0.0,0.0,0.0,0.0,0.0,0.0,0.0,0.0,0.0,0.0,-0.0117,0.0,0.0,0.0,0.0,0.0,-0.7946,-0.871,0.0,0.0,-1.0717,-1.0717,-1.0717,0.0,-1.067,-0.9789,-0.853,-0.8049,-0.6549,-0.4671,-0.2735,-0.1952,0.0,0.0,0.0,-0.1547,-0.0504,0.0,0.0,0.0,0.0,0.0,0.0,0.0,0.0,0.0,0.0,0.0,0.0,0.0,0.0,0.0,0.0,0.0,0.0,0.0,0.0,0.0,0.0,0.0,-0.7515,-0.9001,-1.0289,-1.1226,-1.1335,-1.1463,-1.1613,-1.1619,-1.1619,-1.1619,-1.1619,-1.1619,-1.1619,-1.1619,-1.1694,-1.1837,-1.1993,-1.2149,-1.2298,-1.244,-1.2501,-1.2501,-1.2501,-1.2501,-1.2501,-1.2501,-1.2501,-1.2501,-1.2501,-1.2501,-1.2501,0.1814,0.0,0.0,0.0,0.0,0.0,0.0,0.0,0.0,0.0,-0.5082,0.0,-0.7214,0.0,-0.699,0.0,-0.9078,-0.9772,-0.9628,-0.9752,0.0,-0.5676,-0.825,0.0,0.0,0.0,0.0,0.0,0.0,0.1688,0.0,0.0,0.0,0.0,0.0,0.0,0.0,0.0,-0.7253,0.0,0.0,-0.8643,0.0,0.0,-1.028,-0.9707,0.0,-1.0717,-1.0717,-1.0717,-0.9714,-0.8596,-0.8546,-0.6749,-0.4446,-0.3831,-0.2504,-0.1177,-0.0651,-0.1438,0.0,0.0,-0.0128,0.0,0.15,0.0,0.0,0.0,0.0,0.0,0.0,0.0,0.0,0.0,0.0,0.0,0.0,0.4561,0.0,0.0,0.0,0.0,0.0,0.0,-0.5566,-0.7326,-0.8795,-1.0053,0.0,0.0,-1.1382,-1.1531,-1.1592,-1.1619,-1.1619,-1.1619,-1.1619,-1.1619,-1.1619,-1.1667,-1.1762,-1.1911,-1.206,-1.2216,-1.2366,-1.2454,-1.2501,-1.2501,-1.2501,-1.2501,-1.2501,-1.2501,-1.2501,-1.2501,-1.2501,-1.2501,0.0,0.0,0.0,0.0,0.162,0.0,0.0,0.0,0.0,0.0,-0.6911,-0.98,-0.9824,-0.9863,-0.9786,-0.9786,-0.9774,0.0,-0.9806,-0.9666,0.0,0.0,-0.8679,-0.8784,-0.6712,0.0,0.0,0.0,0.0,0.0,0.0,0.0,0.0,0.0,0.1885,0.0,-0.4521,-0.4458,-0.6774,-1.0717,-1.0717,-1.0585,-1.0571,-1.0717,-0.9419,-0.7742,-0.9996,-1.0717,-1.0717,-1.0717,-1.0585,-1.0319,-0.8978,-0.7503,-0.6034,-0.4699,-0.3362,-0.2014,-0.1324,-0.1187,-0.1052,-0.0259,0.0,0.0,0.0,0.0,0.4046,0.0,0.0,0.0,0.0,0.0,0.0,0.0,0.0,0.0,0.0,0.0,0.0,0.0,0.0,0.0,0.0,-0.0251,-0.2285,-0.6918,-0.7461,-0.8486,0.0,0.0,-1.1087,-1.1389,-1.1538,-1.1619,-1.1619,-1.1619,-1.1619,-1.1619,-1.1619,-1.1619,-1.1626,-1.1769,-1.1918,-1.2074,-1.2223,-1.2372,-1.2501,-1.2501,-1.2501,-1.2501,-1.2501,-1.2501,-1.2501,-1.2501,-1.2501,-1.2501,0.2221,0.1941,0.1651,0.0,0.1651,0.1654,0.0,0.0,0.0,0.0,-0.7823,-0.9764,-0.9765,-0.9836,-0.9944,-0.9944,-1.008,0.0,0.0,0.0,0.0,-0.9057,-0.9506,-0.8908,-0.6836,-0.7814,0.0,-0.0117,0.0,0.0,0.1874,0.0,0.0,0.0,0.0,0.0,-0.5906,-0.4791,-0.6841,-1.0717,-1.0717,-0.9714,0.0,0.0,-0.9419,-0.7742,-0.9996,-1.0717,-1.0717,-1.0717,-1.0047,-0.9111,-0.8706,-0.6836,-0.4833,-0.4434,-0.3362,-0.2153,-0.201,-0.1875,-0.1735,-0.1052,-0.0524,-0.0131,0.0,0.0,0.0,0.0,0.0,0.0,0.0,0.0,0.0,0.0,0.0,0.0,0.0,0.0,0.0,0.5916,0.0,0.0,0.3589,-0.0126,-0.3065,-0.4374,-0.6373,-0.8486,-1.0792,0.0,0.0,-1.1382,-1.1538,-1.1619,-1.1619,-1.1619,-1.1619,-1.1619,-1.1619,-1.1619,-1.1626,-1.1769,-1.1918,-1.2074,-1.2223,-1.2372,-1.2501,-1.2501,-1.2501,-1.2501,-1.2501,-1.2501,-1.2501,-1.2501,-1.2501,-1.2501,0.2143,0.0,0.0,0.1681,0.0,0.0,0.0429,0.0,0.0,-0.4718,-0.6453,0.0,-0.8569,-0.9516,-1.0148,-1.0148,-1.0229,0.0,0.0,0.0,0.0,-1.0066,-1.0033,-0.947,-0.8407,-0.9431,0.0,-0.0359,0.0,0.0,0.1906,0.0,0.0,0.0,0.0,0.0121,0.0,-0.4959,-0.7131,-0.9425,-1.0287,0.0,0.0,-1.028,-0.9996,-0.9001,-1.0287,-1.0717,-1.0717,-1.0717,-0.9782,-0.844,-0.7902,-0.6038,-0.4166,-0.3497,-0.2827,-0.2155,-0.2155,-0.2155,-0.215,-0.1732,-0.1463,-0.106,-0.0261,0.013,0.026,0.0,0.0,0.0,0.0,0.0,0.0,0.0,0.0,0.0,0.0,0.0,0.0,0.0,0.5211,0.0,0.5302,0.063,-0.2561,-0.2941,-0.4904,-0.6532,0.0,0.0,0.0,-0.9926,-1.0972,-1.1552,-1.1619,-1.1619,-1.1619,-1.1619,-1.1619,-1.1619,-1.1619,-1.1701,-1.1857,-1.2067,-1.2155,-1.2311,-1.2501,-1.2501,-1.2501,-1.2501,-1.2501,-1.2501,-1.2501,-1.2501,-1.2501,-1.2501,0.0,0.0,0.0,0.0,0.0,0.0,0.0,-0.0334,0.0,-0.3983,0.0,-0.5577,-0.7388,-0.9243,-1.031,-1.031,0.0,-1.0417,-1.0433,-1.0383,-1.039,-1.0406,-1.0355,-1.0283,-1.0283,-1.0175,0.0,0.0,0.0,0.0,0.0,0.0,0.0,0.0,0.0,0.0,0.0,-0.5042,-0.7601,0.0,-0.9996,-1.0717,-1.0717,-1.0717,-1.0717,-1.0717,-1.0717,-1.0585,-1.0452,-1.0452,-0.9377,-0.7774,-0.6569,-0.5101,-0.3765,-0.2558,-0.2155,-0.2155,-0.2155,-0.2155,-0.2155,-0.2155,-0.2155,-0.2013,-0.106,-0.0528,-0.0396,-0.0793,0.0131,0.0391,0.0,0.0,0.0,0.0,0.0,0.0,0.0,0.0,0.0,0.0,0.0,0.0,0.5921,0.1889,-0.115,-0.1783,-0.3065,-0.384,0.0,0.0,0.0,-0.8355,-1.0398,-1.1463,-1.1619,0.0,-1.1619,-1.1619,-1.1619,-1.1619,-1.1619,-1.1619,-1.1782,-1.206,-1.206,-1.223,-1.2501,-1.2501,-1.2501,-1.2501,-1.2501,-1.2501,-1.2501,-1.2501,-1.2501,-1.2501,0.0,0.0,0.0,0.0,0.0,-0.2292,-0.3364,-0.4571,-0.5704,-0.6431,-0.7894,-0.9019,-0.9671,-1.0088,-1.0453,-1.0453,-1.0568,0.0,0.0,0.0,0.0,-1.0426,-1.0331,-1.0283,-1.0283,-1.0276,-0.8265,0.0,0.0,0.0,0.0,0.0,0.0,0.0,0.0,0.0,-0.3454,-0.6239,0.0,-1.0148,-1.0571,-1.0717,-1.0717,-1.0717,-1.0717,-1.0717,-1.0717,-0.9915,-0.8972,-0.8972,-0.724,-0.497,-0.4702,-0.3765,-0.2558,-0.2289,-0.2155,-0.2155,-0.2155,-0.2155,-0.2155,-0.2155,-0.2155,-0.2153,-0.2013,-0.1878,-0.1878,-0.1878,-0.174,-0.1333,-0.0661,0.0,0.0,0.0,0.0,0.0,0.0,0.0,0.0,0.0,0.0,0.3417,0.0,0.3118,0.1258,0.1131,-0.0126,-0.2415,0.0,0.0,0.0,0.0,-1.1154,0.0,0.0,0.0,-1.1619,-1.1619,-1.1619,-1.1619,-1.1619,-1.1619,-1.1782,-1.206,-1.206,-1.223,-1.2501,-1.2501,-1.2501,-1.2501,-1.2501,-1.2501,-1.2501,-1.2501,-1.2501,-1.2501,0.0,0.0,0.0,0.0,0.0,0.0,0.0,-0.6928,0.0,-0.7235,-0.763,-0.8138,-0.8325,-0.9682,-1.0609,-1.0609,-1.0677,-1.0717,-1.0717,-1.0649,-1.0609,-1.0609,-1.0541,0.0,-1.0507,-1.0521,-0.884,-0.5336,0.0,0.0,0.0,0.0,0.0,0.0,0.0,-0.1129,0.0,0.0,0.0,-0.8601,-1.0148,-1.0717,-1.0717,-1.0717,-1.0717,-1.0717,-1.0717,-0.9649,-0.8312,-0.8573,-0.6706,-0.43,-0.43,-0.3362,-0.2155,-0.2155,-0.2155,-0.2155,-0.2155,-0.2155,-0.2155,-0.2155,-0.2155,-0.2155,-0.2155,-0.2155,-0.2155,-0.2155,-0.2155,-0.1742,-0.0396,0.104,0.0,0.0,0.0,0.0,0.0,0.0,0.0,0.0,0.0,0.0,0.0,0.0,0.0,0.0,0.0,-0.1645,0.0,0.0,0.0,0.0,0.0,0.0,0.0,0.0,0.0,-1.1619,-1.1619,-1.1619,-1.1619,-1.1619,-1.1782,-1.206,-1.206,-1.223,-1.2501,-1.2501,-1.2501,-1.2501,-1.2501,-1.2501,-1.2501,-1.2501,-1.2501,-1.2501,0.0,0.1679,0.0,0.0,-0.1287,0.0,-0.551,-0.8256,-0.9337,-0.7975,-0.7481,-0.7335,-0.736,-0.9377,-1.0717,-1.0717,-1.0717,-1.0717,-1.0717,-1.0717,-1.0717,-1.0717,-1.0717,-1.0717,-1.0717,-1.0717,-0.9664,0.0,0.0,0.0,0.0,0.0,0.0,0.0,0.0,0.0,0.0,0.0,-0.7075,-0.7631,-0.9864,-1.0717,-1.0717,-1.0717,-1.0717,-1.0724,-1.0758,-0.9564,-0.7957,-0.8381,-0.6484,-0.3917,-0.3917,-0.3115,-0.2174,-0.2174,-0.2174,-0.2174,-0.2174,-0.2174,-0.2174,-0.2174,-0.2174,-0.2174,-0.2174,-0.2174,-0.2174,-0.2174,-0.2169,-0.1748,-0.0396,0.0523,0.0,0.0,0.0,0.0,0.0,0.0,0.0,0.0,0.0,0.0,0.0,0.0,0.0,0.0,0.0,-0.0883,-0.3069,-0.3973,-0.5497,0.0,0.0,-1.0696,-1.0843,0.0,-1.1619,-1.1619,-1.1619,-1.1619,-1.1619,-1.1619,-1.1782,-1.206,-1.206,-1.223,-1.2656,-1.2656,-1.2656,-1.2656,-1.2656,-1.2656,-1.2501,-1.2501,-1.2501,-1.2501,0.0,0.0,0.0,0.0,0.0,0.0,0.0,-0.8458,-1.0181,-1.0032,-0.9922,-0.9993,-1.0261,-1.0565,-1.0717,-1.0717,-1.0717,-1.0717,-1.0717,-1.0717,-1.0717,-1.0717,-1.0717,-1.0717,-1.0717,-1.0717,-1.0518,0.0,0.0,0.0,0.0,0.0,0.0,0.0,0.0,0.0,0.0,-0.5086,-0.6845,-1.0293,-1.0578,-1.0717,-1.0717,-1.0717,-1.0717,-1.0738,-1.088,-0.9703,-0.7952,-0.8188,-0.567,-0.2332,-0.2332,-0.2352,-0.2237,-0.2237,-0.2237,-0.2237,-0.2237,-0.2237,-0.2237,-0.2237,-0.2237,-0.2237,-0.2237,-0.2237,-0.2237,-0.2237,-0.2215,-0.1769,-0.0397,-0.1064,-0.1334,0.0,0.0,0.0,0.0,0.0,0.0,0.0,0.0,0.0,0.0,0.2181,0.0,0.0,0.0379,-0.0252,-0.2425,-0.3715,-0.5363,-0.7641,0.0,-0.8321,-0.854,-1.0531,-1.1619,-1.1619,-1.1619,-1.1619,-1.1619,-1.1619,-1.1782,-1.206,-1.206,-1.2532,-1.312,-1.3112,-1.3274,-1.3281,-1.3281,-1.2972,-1.2501,-1.2501,-1.2501,-1.2501,0.0,0.0,0.0,0.0,0.0,0.0,0.0,-0.9755,-1.0527,-1.0484,-1.0498,-1.0518,-1.0711,-1.0717,-1.0717,-1.0717,-1.0717,-1.0717,-1.0717,-1.0717,-1.0717,-1.0717,-1.0717,-1.0717,-1.0717,-1.0717,-1.0656,0.0,0.0,0.0,0.0,0.0,0.0,0.0,0.0,-0.4788,-0.6541,-0.7656,-0.918,-1.0717,-1.0717,-1.0717,-1.0731,-1.096,-1.0994,-1.088,-1.1166,-1.0685,-0.9745,-0.8526,-0.558,-0.2228,-0.2228,-0.2236,-0.2245,-0.2245,-0.2245,-0.2245,-0.2245,-0.2245,-0.2245,-0.2245,-0.2245,-0.2245,-0.2245,-0.2245,-0.2245,-0.2245,-0.2236,-0.2081,-0.1508,-0.122,-0.1077,0.0,0.0,0.0,0.0,0.0,0.0,0.0,0.0,0.0,0.0,0.0,0.0,0.0,0.0,-0.0128,-0.2299,-0.4166,-0.5723,-0.7224,0.0,-1.0174,-1.0221,-1.1149,-1.1619,-1.1619,-1.1619,-1.1619,-1.1619,-1.1619,-1.1928,-1.2522,-1.2856,-1.3159,-1.3428,-1.3583,-1.359,-1.3752,-1.3281,-1.2965,-1.2494,-1.2501,-1.2501,-1.2501,-0.9144,0.0,-1.0689,0.0,-1.0468,-1.0545,-1.039,-1.0595,-1.067,-1.0638,-1.0826,-1.0839,-1.0658,-1.0785,-1.0806,-1.0705,-1.0846,-1.0853,-1.0846,-1.0812,-1.0785,-1.0785,-1.0744,0.0,-1.0717,-1.0717,-1.0677,-1.0719,-0.8733,0.0,0.0,0.0,0.0,0.0,-0.6645,-0.7345,-0.7908,-0.9864,-1.0717,-1.0717,-1.0717,-1.0744,-1.0799,-1.1049,-1.1118,-1.1173,-1.1317,-1.1267,-1.0888,-0.863,-0.5379,-0.227,-0.2262,-0.2264,-0.2271,-0.2271,-0.2271,-0.2271,-0.2271,-0.2271,-0.2271,-0.2271,-0.2271,-0.2271,-0.2271,-0.2271,-0.2268,-0.226,-0.2259,-0.2256,-0.2247,-0.138,-0.1093,-0.2072,0.0,0.0,0.0,0.0,0.0,0.0,-0.0927,-0.0658,-0.2106,-0.013,0.0,0.0,0.0,0.0,-0.2978,-0.4631,0.0,0.0,0.0,0.0,0.0,-1.1305,-1.1619,-1.1619,-1.1619,-1.1619,-1.1626,-1.1852,-1.2157,-1.2678,-1.3603,-1.3898,-1.3898,-1.4045,-1.4214,-1.4376,-1.359,-1.312,-1.2958,-1.2656,-1.2501,-1.2656,-0.9824,-1.0321,-1.0728,-1.0732,-1.0487,-1.0404,-1.069,-1.0712,-1.0664,-1.067,-1.1214,-1.1386,-1.0819,-1.0941,-1.0866,-1.0718,-1.1013,-1.1158,-1.1013,-1.0886,-1.0948,0.0,0.0,-1.0717,-1.0717,-1.0717,-1.0717,-1.0717,0.0,0.0,-0.4302,0.0,-0.6855,-0.7461,-0.6801,-0.8044,-1.0585,-1.0717,-1.0717,-1.0717,-1.0717,-1.0812,-1.0948,-1.0955,-1.1173,-1.1324,-1.1482,-1.1423,-1.0766,-0.7958,-0.4942,-0.2327,-0.2155,-0.2309,-0.2331,-0.2331,-0.2331,-0.2331,-0.2331,-0.2331,-0.2331,-0.2331,-0.2331,-0.2331,-0.2331,-0.2331,-0.2323,-0.2296,-0.229,-0.2281,-0.2251,-0.2245,-0.2244,-0.2245,0.0,0.0,0.0,0.0,0.0,0.0,-0.0921,-0.0658,-0.2106,-0.0921,0.0,0.0,0.0,0.0,0.0,0.0,0.0,-0.7802,-0.8085,0.0,-0.8242,-1.0525,-1.1619,-1.1619,-1.1619,-1.1619,-1.1626,-1.2367,-1.2657,-1.2827,-1.3908,-1.4368,-1.4361,-1.4814,-1.4984,-1.4846,-1.406,-1.3906,-1.4068,-1.2972,-1.2811,-1.2965,-1.0472,-1.0534,-1.0644,-1.0758,-1.0665,-1.0578,-1.0717,-1.0639,-1.0809,-1.0953,-1.0993,-1.0902,-1.067,-1.1013,-1.1118,0.0,-1.1303,-1.1303,0.0,-1.1118,-1.1097,-1.1097,-1.1043,-1.0839,-1.088,-1.0739,-1.0692,-1.0717,0.0,0.0,0.0,-0.6909,-0.8133,-0.9707,-0.9438,-0.9864,-1.0717,-1.0717,-1.0717,-1.0731,-1.0974,-1.1042,-1.0975,-1.1172,-1.128,-1.1341,-1.1491,-1.1579,-1.1038,-0.7982,-0.4944,-0.2331,-0.2322,-0.2326,-0.2333,-0.2333,-0.2333,-0.2333,-0.2333,-0.2333,-0.2333,-0.2333,-0.2333,-0.2333,-0.2333,-0.2333,-0.233,-0.2322,-0.2319,-0.2316,-0.2307,-0.2289,-0.2277,-0.2277,-0.2259,0.0,0.0,0.0,0.0,0.0,-0.0138,0.11,0.0,-0.0688,0.0,0.0,0.0,0.0,0.0,0.0,0.0,0.0,-0.9507,0.0,-1.0531,-1.1299,-1.1619,-1.1619,-1.1619,-1.1818,-1.2212,-1.286,-1.3319,-1.3732,-1.4412,-1.4814,-1.4814,-1.4968,-1.4968,-1.4976,-1.4361,-1.4214,-1.4214,-1.359,-1.3274,-1.312,-1.0717,-1.0744,-1.0665,-1.0717,-1.075,-1.0639,-1.0718,-1.0922,-1.1107,-1.1392,-1.1154,-1.108,-1.1031,-1.1248,0.0,-1.1622,-1.1482,-1.1475,-1.1475,-1.128,-1.1246,-1.1392,-1.1192,-1.1118,-1.1029,0.0,0.0,-1.0887,-0.9111,-0.836,-0.8716,-0.8716,-0.9425,-1.0717,-1.0717,-1.0717,-1.0717,-1.0717,-1.0751,-1.0678,-1.1049,-1.1159,-1.1138,-1.1321,-1.1423,-1.1491,-1.1586,-1.1647,-1.1083,-0.7991,-0.4942,-0.233,-0.2333,-0.2333,-0.2333,-0.2333,-0.2333,-0.2333,-0.2333,-0.2333,-0.2333,-0.2333,-0.2333,-0.2333,-0.2333,-0.2333,-0.2333,-0.2333,-0.2333,-0.2333,-0.2333,-0.2319,-0.2307,-0.2307,-0.229,-0.2274,-0.2264,0.0,0.0,0.0,0.0,0.0,0.0,-0.25,-0.3326,0.0,0.0,0.0,0.0,0.0,0.0,-0.8765,-1.0649,0.0,-1.1619,-1.1619,-1.1619,-1.1619,-1.1619,-1.1983,-1.2575,-1.303,-1.3641,-1.4111,-1.4734,-1.4968,-1.4968,-1.4968,-1.4968,-1.4968,-1.4515,-1.4515,-1.4515,-1.3898,-1.359,-1.359,-1.0711,-1.0737,0.0,0.0,-1.075,0.0,-1.0763,-1.1174,-1.155,-1.155,-1.1531,-1.1619,-1.1619,-1.1619,-1.1619,-1.1619,0.0,0.0,0.0,-1.1484,-1.1409,-1.155,-1.1413,-1.1331,-1.1317,-1.1317,-1.1317,-1.1303,-1.1029,-1.0894,-1.0751,-1.0751,-1.0744,-1.0738,-1.0738,-1.0738,-1.0738,-1.0738,-1.0685,-1.069,-1.1118,-1.1289,-1.1248,-1.1402,-1.1497,-1.1619,-1.1619,-1.1633,-1.1214,-0.828,-0.5084,-0.2326,-0.2331,-0.2333,-0.2333,-0.2333,-0.2333,-0.2333,-0.2333,-0.2333,-0.2333,-0.2333,-0.2333,-0.2333,-0.2333,-0.2333,-0.2333,-0.2333,-0.2333,-0.2333,-0.2333,-0.2333,-0.2333,-0.2333,-0.2478,-0.2468,-0.2297,0.0,0.0,0.0,0.0,0.0,0.0,-0.6047,-0.6199,0.0,0.0,0.0,0.0,0.0,-0.6915,-1.1462,-1.1619,-1.1619,-1.1619,-1.1619,-1.1619,-1.1619,-1.1633,-1.1997,-1.259,-1.3052,-1.3656,-1.4127,-1.4742,-1.4968,-1.4968,-1.4968,-1.4968,-1.4968,-1.4515,-1.4669,-1.4968,-1.4045,-1.4053,-1.4207,0.0,0.0,-1.1344,-1.1461,-1.1335,-1.1375,-1.1348,-1.1538,-1.1565,-1.1565,-1.1599,-1.1619,-1.1619,-1.1619,-1.1619,-1.1619,-1.1619,-1.1619,-1.1619,-1.1586,-1.1565,-1.1565,-1.1531,-1.1457,-1.1341,-1.1335,-1.128,-1.1165,-1.1131,-1.109,-1.1056,-1.1056,-1.1002,-1.0894,-1.0894,-1.0759,-1.0752,-1.0752,-1.0697,-1.0698,-1.124,-1.1475,-1.1261,-1.1518,-1.1586,-1.1619,-1.1619,-1.1633,-1.1509,-1.0768,-0.6829,-0.2326,-0.2327,-0.233,-0.2333,-0.2333,-0.2333,-0.2333,-0.2333,-0.2333,-0.2333,-0.2333,-0.2333,-0.2333,-0.2333,-0.2333,-0.2333,-0.2333,-0.2333,-0.2333,-0.2333,-0.2333,-0.2333,-0.2333,-0.3641,-0.4073,-0.2464,-0.2313,0.0,0.0,-0.688,-1.0221,-1.0513,-0.8754,-0.714,0.0,0.0,0.0,0.0,-0.7068,-0.8111,-1.1469,-1.1619,-1.1619,-1.1619,-1.1619,-1.1619,-1.1619,-1.1728,-1.2304,-1.3052,-1.3364,-1.3976,-1.475,-1.4944,-1.4968,-1.4968,-1.4968,-1.4968,-1.4968,-1.4968,-1.4968,-1.4968,-1.4814,-1.4515,-1.4361,-1.1516,-1.1664,-1.1543,-1.1626,-1.164,-1.1667,-1.1606,-1.1619,-1.1619,-1.1619,-1.1619,-1.1619,-1.1619,-1.1619,-1.1619,-1.1619,-1.1619,-1.1619,-1.1619,-1.1619,-1.1619,-1.1619,-1.1619,-1.1579,-1.1497,-1.1491,-1.1423,-1.1267,-1.1267,-1.1233,-1.1165,-1.1165,-1.1124,-1.105,-1.105,-1.0906,-1.0906,-1.0906,-1.0987,-1.0988,-1.1362,-1.1578,-1.1504,-1.1586,-1.1619,-1.1619,-1.1619,-1.1626,-1.164,-1.1653,-0.9307,-0.6098,-0.3192,-0.2323,-0.2326,-0.2328,-0.2331,-0.2333,-0.2333,-0.2333,-0.2333,-0.2333,-0.2333,-0.2333,-0.2333,-0.2333,-0.2333,-0.2333,-0.2333,-0.2478,-0.3205,-0.335,-0.3641,-0.4364,-0.4196,-0.4044,-0.4353,-0.564,0.0,-0.6528,-0.9602,-1.1529,-1.1529,-1.0624,-0.9407,-0.8036,0.0,0.0,-0.9171,-0.9171,-0.9929,-1.1619,-1.1619,-1.1619,-1.1619,-1.1619,-1.1619,-1.1619,-1.1907,-1.2507,-1.3267,-1.3574,-1.4189,-1.4968,-1.4968,-1.4968,-1.4968,-1.4968,-1.4968,-1.4968,-1.4968,-1.4968,-1.4968,-1.4968,-1.4814,-1.4669,-1.1476,-1.1633,-1.1619,-1.1619,-1.1619,-1.1619,-1.1619,-1.1619,-1.1619,-1.1619,-1.1619,-1.1619,-1.1619,-1.1619,-1.1619,-1.1619,-1.1619,-1.1619,-1.1619,-1.1619,-1.1619,-1.1619,-1.1619,-1.1619,-1.1619,-1.1619,-1.1558,-1.1423,-1.1423,-1.1362,-1.1233,-1.1233,-1.1219,-1.1199,-1.1199,-1.1199,-1.106,-1.1192,-1.1287,-1.1281,-1.1571,-1.1646,-1.1619,-1.1619,-1.1619,-1.1619,-1.1619,-1.1619,-1.1619,-1.164,-1.1653,-1.0624,-0.5358,-0.3763,-0.3622,-0.3341,-0.3056,-0.2914,-0.2478,-0.2333,-0.2333,-0.2333,-0.2333,-0.2333,-0.2333,-0.2333,-0.2333,-0.2333,-0.2478,-0.3059,-0.4511,-0.4947,-0.5377,-0.6228,-0.4597,-0.3868,-0.5633,0.0,-1.1565,-1.1667,-1.166,-1.1647,-1.1647,-1.1633,-1.1619,-1.1619,-1.1619,-1.1619,-1.1619,-1.1619,-1.1619,-1.1619,-1.1619,-1.1619,-1.1619,-1.1619,-1.1633,-1.1653,-1.224,-1.2691,-1.3297,-1.3763,-1.4365,-1.4968,-1.4968,-1.4968,-1.4968,-1.4968,-1.4968,-1.4968,-1.4968,-1.4968,-1.4968,-1.4968,-1.4968,-1.4968,-1.1057,-1.1633,-1.1619,-1.1619,-1.1619,-1.1619,-1.1619,-1.1619,-1.1619,-1.1619,-1.1619,-1.1619,-1.1619,-1.1619,-1.1619,-1.1619,-1.1619,-1.1619,-1.1619,-1.1619,-1.1619,-1.1619,-1.1619,-1.1619,-1.1619,-1.1619,-1.1606,-1.1586,-1.1586,-1.1572,-1.1552,-1.1552,-1.1477,-1.1355,-1.1355,-1.1221,-1.1235,-1.1221,-1.1308,-1.1613,-1.1592,-1.1599,-1.1619,-1.1619,-1.1619,-1.1619,-1.1619,-1.1619,-1.1619,-1.1619,-1.164,-1.1358,-1.0474,-1.0191,-0.9763,-0.8,-0.6974,-0.5667,-0.3059,-0.2333,-0.2333,-0.2333,-0.2333,-0.2333,-0.2333,-0.2333,-0.2333,-0.2333,-0.335,-0.4366,-0.4657,-0.5815,-0.5932,-0.3575,-0.5603,-0.6044,-0.171,0.0,-1.1613,-1.1626,-1.1626,-1.1626,-1.1626,-1.1619,-1.1619,-1.1619,-1.1619,-1.1619,-1.1619,-1.1619,-1.1619,-1.1619,-1.1619,-1.1619,-1.1619,-1.1619,-1.1681,-1.1796,-1.21,-1.255,-1.3461,-1.3625,-1.4176,-1.4968,-1.4968,-1.4968,-1.4968,-1.4968,-1.4968,-1.4968,-1.4968,-1.4968,-1.4968,-1.4968,-1.4968,-1.4968,-0.9163,-0.9879,-1.0299,-1.1469,-1.1619,-1.1647,-1.1721,-1.1735,-1.1762,-1.185,-1.1857,-1.1857,-1.1857,-1.1857,-1.1857,-1.1557,-1.163,-1.1583,-1.1583,-1.166,-1.1619,-1.1619,-1.1619,-1.1619,-1.1619,-1.1619,-1.1619,-1.1619,-1.1619,-1.1619,-1.1619,-1.1619,-1.1586,-1.1511,-1.1511,-1.1525,-1.1402,-1.1382,-1.1422,-1.1653,-1.1626,-1.1619,-1.1619,-1.1619,-1.1619,-1.1619,-1.1619,-1.1619,-1.1619,-1.1619,-1.1626,-1.1633,-1.1633,-1.164,-1.1358,-1.048,-0.828,-0.5805,-0.4366,-0.3932,-0.3641,-0.2621,-0.2331,-0.2333,-0.233,-0.3203,-0.3932,-0.3641,-0.4799,-0.625,-0.6974,-0.7697,-0.8112,-0.7478,-0.717,0.0,0.0,-0.9336,-1.1545,-1.1613,-1.1619,-1.1619,-1.1619,-1.1619,-1.1619,-1.1619,-1.1619,-1.1619,-1.1619,-1.1619,-1.1619,-1.1619,-1.1619,-1.1619,-1.1619,-1.1694,-1.1769,-1.1837,-1.2366,-1.2813,-1.3498,-1.3976,-1.4361,-1.4968,-1.4968,-1.4968,-1.4968,-1.4968,-1.4968,-1.4968,-1.4968,-1.4968,-1.4968,-1.4968,-1.4968,-1.4968,-0.7851,-0.8569,-0.9291,-1.1365,-1.1667,-1.1721,-1.1864,-1.1884,-1.1925,-1.2047,-1.206,-1.206,-1.206,-1.206,-1.206,-1.1755,-1.1797,-1.1717,-1.1683,-1.1583,-1.1653,-1.1619,-1.1619,-1.1619,-1.1619,-1.1619,-1.1619,-1.1619,-1.1619,-1.1619,-1.1619,-1.1619,-1.1619,-1.1619,-1.1626,-1.164,-1.166,-1.1633,-1.164,-1.166,-1.1633,-1.1619,-1.1619,-1.1619,-1.1619,-1.1619,-1.1619,-1.1619,-1.1619,-1.1619,-1.1619,-1.1619,-1.1619,-1.1619,-1.1619,-1.164,-0.9296,-0.6673,-0.6253,-0.5822,-0.4944,-0.3486,-0.3199,-0.3348,-0.3052,-0.3923,-0.4799,-0.509,-0.6391,-0.7693,-0.8997,-0.9579,-0.9862,-1.0108,0.0,0.0,0.0,-1.0779,-1.1653,-1.1606,-1.1619,-1.1619,-1.1619,-1.1619,-1.1619,-1.1619,-1.1619,-1.1619,-1.1619,-1.1619,-1.1619,-1.1619,-1.1619,-1.1619,-1.1619,-1.1762,-1.185,-1.1891,-1.2456,-1.3058,-1.3398,-1.3992,-1.4515,-1.4814,-1.4968,-1.4968,-1.4968,-1.4968,-1.4968,-1.4968,-1.4968,-1.4968,-1.4968,-1.4968,-1.4968,-1.4968,-0.8,-0.8863,-0.9757,-1.1497,-1.1816,-1.1864,-1.202,-1.2047,-1.2047,-1.206,-1.206,-1.206,-1.206,-1.221,-1.2216,-1.221,-1.2359,-1.2141,-1.169,-1.167,-1.161,-1.1626,-1.1619,-1.1619,-1.1619,-1.1619,-1.1619,-1.1619,-1.1619,-1.1619,-1.1619,-1.1619,-1.1619,-1.1619,-1.164,-1.1667,-1.1543,-1.166,-1.1667,-1.1536,-1.1633,-1.1619,-1.1619,-1.1619,-1.1619,-1.1619,-1.1619,-1.1619,-1.1619,-1.1619,-1.1619,-1.1619,-1.1619,-1.1619,-1.1619,-1.1619,-1.1332,-1.0743,-0.8724,-0.6825,-0.5364,-0.5219,-0.5949,-0.6387,-0.5364,-0.3767,-0.3331,-0.6239,-0.7688,-0.8559,-0.9141,-1.0455,-1.0257,-0.6677,0.0,0.0,-0.3968,-0.8026,-1.1606,-1.1619,-1.1619,-1.1619,-1.1619,-1.1619,-1.1619,-1.1619,-1.1619,-1.1619,-1.1619,-1.1619,-1.1619,-1.1619,-1.1619,-1.1619,-1.1619,-1.1762,-1.1904,-1.2047,-1.221,-1.2665,-1.3105,-1.3583,-1.4053,-1.4515,-1.4814,-1.4968,-1.4968,-1.4968,-1.4968,-1.4968,-1.4968,-1.4968,-1.4968,-1.4968,-1.4968,-1.4968,-0.5733,-0.765,-0.9302,-1.031,-1.1224,-1.2026,-1.2182,-1.2203,-1.2237,-1.2325,-1.2332,-1.2332,-1.2332,-1.2338,-1.2338,-1.2338,-1.2409,-1.2333,-1.2121,-1.1784,-1.1616,-1.1626,-1.1619,-1.1619,-1.1619,-1.1619,-1.1619,-1.1619,-1.1619,-1.1619,-1.1619,-1.1619,-1.1619,-1.1619,-1.1647,-1.048,-0.8874,-1.0775,-1.1667,-1.1543,-1.164,-1.1619,-1.1619,-1.1619,-1.1619,-1.1619,-1.1619,-1.1619,-1.1619,-1.1619,-1.1619,-1.1619,-1.1619,-1.1619,-1.1619,-1.1619,-1.1619,-1.1476,-1.0606,-0.9147,-0.7539,-0.6665,-0.711,-0.7697,-0.6665,-0.7246,-0.7982,-0.7977,-0.9285,-1.0449,-1.0743,-1.1181,-1.1155,-0.9638,0.0,-1.0862,-0.8479,-1.0114,-1.1619,-1.1619,-1.1619,-1.1619,-1.1619,-1.1619,-1.1619,-1.1619,-1.1619,-1.1619,-1.1619,-1.1619,-1.1619,-1.1619,-1.1701,-1.1748,-1.1748,-1.1898,-1.2054,-1.2203,-1.2352,-1.2601,-1.312,-1.3274,-1.3744,-1.4368,-1.4515,-1.4814,-1.4968,-1.4968,-1.4968,-1.4968,-1.4968,-1.4968,-1.4968,-1.4968,-1.4968,-1.4968,-0.4322,-0.6712,-0.8527,-0.9537,-1.107,-1.2182,-1.2332,-1.2359,-1.2393,-1.2488,-1.2501,-1.2501,-1.2501,-1.2501,-1.2501,-1.2501,-1.2567,-1.2498,-1.245,-1.1999,-1.1616,-1.1626,-1.1619,-1.1619,-1.1619,-1.1619,-1.1619,-1.1619,-1.1619,-1.1619,-1.1619,-1.1619,-1.1619,-1.1619,-1.1647,-1.048,-0.8579,-1.063,-1.1667,-1.1543,-1.164,-1.1619,-1.1619,-1.1619,-1.1619,-1.1619,-1.1619,-1.1619,-1.1619,-1.1619,-1.1619,-1.1619,-1.1619,-1.1619,-1.1619,-1.1619,-1.1619,-1.1619,-1.1619,-1.0887,-0.9723,-0.8693,-0.8997,-0.9296,-0.8549,-1.0017,-1.1201,-0.9723,-1.0593,-1.1619,-1.1619,-1.1619,-1.1619,-1.1619,-1.1619,-1.1619,-1.1619,-1.1619,-1.1619,-1.1619,-1.1619,-1.1619,-1.1619,-1.1619,-1.1619,-1.1619,-1.1619,-1.1619,-1.1619,-1.1619,-1.164,-1.1687,-1.1782,-1.1877,-1.1972,-1.2081,-1.2189,-1.2291,-1.2433,-1.2656,-1.2965,-1.2965,-1.3436,-1.4207,-1.4368,-1.4669,-1.4968,-1.4968,-1.4968,-1.4968,-1.4968,-1.4968,-1.4968,-1.4968,-1.4968,-1.4968,-0.4386,-0.604,-0.7725,-0.9497,-1.1213,-1.2338,-1.2481,-1.2501,-1.2501,-1.2501,-1.2501,-1.2501,-1.2501,-1.2501,-1.2501,-1.2501,-1.2501,-1.244,-1.2457,-1.1999,-1.1623,-1.1626,-1.1619,-1.1619,-1.1619,-1.1619,-1.1619,-1.1619,-1.1619,-1.1619,-1.1619,-1.1619,-1.1619,-1.1619,-1.1647,-1.1523,-1.1543,-1.1516,-1.1523,-1.1536,-1.164,-1.1619,-1.1619,-1.1619,-1.1619,-1.1619,-1.1619,-1.1619,-1.1619,-1.1619,-1.1619,-1.1619,-1.1619,-1.1619,-1.1619,-1.1619,-1.1619,-1.1619,-1.1619,-1.1619,-1.1619,-1.1619,-1.1619,-1.1619,-1.1619,-1.1619,-1.1619,-1.1619,-1.1619,-1.1619,-1.1619,-1.1619,-1.1619,-1.1619,-1.1619,-1.1619,-1.1619,-1.1619,-1.1619,-1.1619,-1.1619,-1.1619,-1.1619,-1.1619,-1.1619,-1.1619,-1.1619,-1.1619,-1.1619,-1.1619,-1.1687,-1.1823,-1.183,-1.1979,-1.2284,-1.2291,-1.2291,-1.2291,-1.2433,-1.2501,-1.2501,-1.2965,-1.3274,-1.3744,-1.4207,-1.4669,-1.4968,-1.4968,-1.4968,-1.4968,-1.4968,-1.4968,-1.4968,-1.4968,-1.4968,-1.4968,-0.3062,-0.6125,-0.8449,-0.8234,-1.0572,-1.2454,-1.2494,-1.2501,-1.2501,-1.2501,-1.2501,-1.2501,-1.2501,-1.2501,-1.2501,-1.2501,-1.2501,-1.244,-1.2457,-1.2203,-1.1884,-1.1782,-1.1674,-1.1619,-1.1619,-1.1619,-1.1619,-1.1619,-1.1619,-1.1619,-1.1619,-1.1619,-1.1619,-1.1619,-1.166,-1.0348,-0.8435,-0.843,-0.8724,-0.9607,-1.1044,-1.1619,-1.1619,-1.1619,-1.1619,-1.1619,-1.1619,-1.1619,-1.1619,-1.1619,-1.1619,-1.1619,-1.1619,-1.1619,-1.1619,-1.1619,-1.1619,-1.1619,-1.1619,-1.1619,-1.1619,-1.1619,-1.1619,-1.1619,-1.1619,-1.1619,-1.1619,-1.1619,-1.1619,-1.1619,-1.1619,-1.1619,-1.1619,-1.1619,-1.1619,-1.1619,-1.1619,-1.1619,-1.1619,-1.1619,-1.1619,-1.1619,-1.1619,-1.1619,-1.1619,-1.1619,-1.1619,-1.1619,-1.1619,-1.1714,-1.1789,-1.183,-1.204,-1.2196,-1.2291,-1.2291,-1.2338,-1.244,-1.2481,-1.2501,-1.2501,-1.2656,-1.312,-1.3744,-1.3898,-1.4353,-1.4968,-1.4968,-1.4968,-1.4968,-1.4968,-1.4968,-1.4968,-1.4968,-1.4968,-1.4968,-0.2484,-0.5274,-0.7456,-0.7505,-0.9692,-1.1721,-1.2347,-1.2501,-1.2501,-1.2501,-1.2501,-1.2501,-1.2501,-1.2501,-1.2501,-1.2501,-1.2501,-1.2467,-1.2539,-1.2325,-1.221,-1.202,-1.1809,-1.1529,-1.1619,-1.1619,-1.1619,-1.1619,-1.1619,-1.1619,-1.1619,-1.1619,-1.1619,-1.1619,-1.0323,-0.7986,-0.5219,-0.6962,-0.7986,-0.8724,-1.075,-1.1619,-1.1619,-1.1619,-1.1619,-1.1619,-1.1619,-1.1619,-1.1619,-1.1619,-1.1619,-1.1619,-1.1619,-1.1619,-1.1619,-1.1619,-1.1619,-1.1619,-1.1619,-1.1619,-1.1619,-1.1619,-1.1619,-1.1619,-1.1619,-1.1619,-1.1619,-1.1619,-1.1619,-1.1619,-1.1619,-1.1619,-1.1619,-1.1619,-1.1619,-1.1619,-1.1619,-1.1619,-1.1619,-1.1619,-1.1619,-1.1619,-1.1619,-1.1619,-1.1619,-1.1619,-1.1619,-1.1647,-1.1701,-1.1782,-1.1884,-1.2006,-1.2196,-1.2318,-1.2372,-1.2372,-1.242,-1.2501,-1.2501,-1.2501,-1.2501,-1.2501,-1.2811,-1.3428,-1.359,-1.3898,-1.4507,-1.4822,-1.4976,-1.4814,-1.4968,-1.4968,-1.4968,-1.4968,-1.4968,-1.4968,-0.2514,-0.3922,-0.5483,-0.7045,-0.8915,-1.0791,-1.2347,-1.2501,-1.2501,-1.2501,-1.2501,-1.2501,-1.2501,-1.2501,-1.2501,-1.2501,-1.2501,-1.2501,-1.2501,-1.2539,-1.2457,-1.2291,-1.1871,-1.165,-1.164,-1.1626,-1.1619,-1.1619,-1.1619,-1.1619,-1.1619,-1.1619,-1.1619,-1.1476,-0.8693,-0.5643,-0.3182,-0.7098,-0.8714,-0.8724,-1.075,-1.1619,-1.1619,-1.1619,-1.1619,-1.1619,-1.1619,-1.1619,-1.1619,-1.1619,-1.1619,-1.1619,-1.1619,-1.1619,-1.1619,-1.1619,-1.1619,-1.1619,-1.1619,-1.1619,-1.1619,-1.1619,-1.1619,-1.1619,-1.1619,-1.1619,-1.1619,-1.1619,-1.1619,-1.1619,-1.1619,-1.1619,-1.1619,-1.1619,-1.1619,-1.1619,-1.1619,-1.1619,-1.1619,-1.1619,-1.1619,-1.1619,-1.1619,-1.1619,-1.1626,-1.164,-1.164,-1.1701,-1.1843,-1.1864,-1.1999,-1.2284,-1.2305,-1.2372,-1.2501,-1.2501,-1.2501,-1.2501,-1.2501,-1.2501,-1.2501,-1.2501,-1.2656,-1.312,-1.3281,-1.3436,-1.3744,-1.453,-1.4684,-1.4515,-1.4814,-1.4968,-1.4968,-1.4968,-1.4968,-1.4968,-0.2514,-0.4236,-0.5796,-0.6101,-0.9392,-1.2063,-1.2508,-1.2501,-1.2501,-1.2501,-1.2501,-1.2501,-1.2501,-1.2501,-1.2501,-1.2501,-1.2501,-1.2501,-1.2501,-1.2474,-1.2406,-1.2298,-1.223,-1.2067,-1.1636,-1.1529,-1.1619,-1.1619,-1.1619,-1.1619,-1.1619,-1.1619,-1.1619,-1.1619,-1.09,-0.9291,-0.7391,-0.9879,-1.0179,-0.9291,-1.0894,-1.1619,-1.1619,-1.1619,-1.1619,-1.1619,-1.1619,-1.1619,-1.1619,-1.1619,-1.1619,-1.1619,-1.1619,-1.1619,-1.1619,-1.1619,-1.1619,-1.1619,-1.1619,-1.1619,-1.1619,-1.1619,-1.1619,-1.1619,-1.1619,-1.1619,-1.1619,-1.1619,-1.1619,-1.1619,-1.1619,-1.1619,-1.1619,-1.1619,-1.1619,-1.1619,-1.1619,-1.1619,-1.1619,-1.1619,-1.1619,-1.1619,-1.1619,-1.1619,-1.1667,-1.1775,-1.1789,-1.185,-1.2006,-1.2128,-1.2223,-1.2291,-1.24,-1.2467,-1.2501,-1.2501,-1.2501,-1.2501,-1.2501,-1.2501,-1.2501,-1.2501,-1.2656,-1.312,-1.3281,-1.359,-1.4207,-1.4368,-1.4515,-1.4814,-1.4968,-1.4968,-1.4968,-1.4968,-1.4968,-1.4968,-0.2514,-0.3454,-0.4547,-0.563,-0.8608,-1.128,-1.2353,-1.2501,-1.2501,-1.2501,-1.2501,-1.2501,-1.2501,-1.2501,-1.2501,-1.2501,-1.2501,-1.2501,-1.2501,-1.2501,-1.2467,-1.2393,-1.2325,-1.2182,-1.1945,-1.165,-1.1543,-1.1619,-1.1619,-1.1619,-1.1619,-1.1619,-1.1619,-1.1619,-1.09,-0.9879,-0.8997,-1.0029,-1.0029,-0.9435,-1.1038,-1.1619,-1.1619,-1.1619,-1.1619,-1.1619,-1.1619,-1.1619,-1.1619,-1.1619,-1.1619,-1.1619,-1.1619,-1.1619,-1.1619,-1.1619,-1.1619,-1.1619,-1.1619,-1.1619,-1.1619,-1.1619,-1.1619,-1.1619,-1.1619,-1.1619,-1.1619,-1.1619,-1.1619,-1.1619,-1.1619,-1.1619,-1.1619,-1.1619,-1.1619,-1.1619,-1.1619,-1.1619,-1.1619,-1.1619,-1.1619,-1.1647,-1.1714,-1.1789,-1.1864,-1.2086,-1.1945,-1.2006,-1.2162,-1.2244,-1.2325,-1.2386,-1.2461,-1.2501,-1.2501,-1.2501,-1.2501,-1.2501,-1.2501,-1.2501,-1.2501,-1.2501,-1.2656,-1.2811,-1.2817,-1.3127,-1.359,-1.4053,-1.4207,-1.4353,-1.4814,-1.4968,-1.4968,-1.4968,-1.4968,-1.4968,-0.2514,-0.2514,-0.3139,-0.4847,-0.7673,-1.0347,-1.2192,-1.2501,-1.2501,-1.2501,-1.2501,-1.2501,-1.2501,-1.2501,-1.2501,-1.2501,-1.2501,-1.2501,-1.2501,-1.2501,-1.2501,-1.2501,-1.2386,-1.2257,-1.2258,-1.1945,-1.1636,-1.1619,-1.1619,-1.1619,-1.1619,-1.1619,-1.1619,-1.1476,-1.0305,-0.9723,-0.9723,-0.9723,-0.9723,-0.9873,-1.1038,-1.1619,-1.1619,-1.1619,-1.1619,-1.1619,-1.1619,-1.1619,-1.1619,-1.1619,-1.1619,-1.1619,-1.1619,-1.1619,-1.1619,-1.1619,-1.1619,-1.1619,-1.1619,-1.1619,-1.1619,-1.1619,-1.1619,-1.1619,-1.1619,-1.1619,-1.1619,-1.1619,-1.1619,-1.1619,-1.1619,-1.1619,-1.1619,-1.1619,-1.1619,-1.1619,-1.1619,-1.164,-1.1653,-1.1653,-1.1681,-1.1742,-1.1864,-1.1986,-1.2067,-1.2251,-1.2251,-1.2319,-1.2318,-1.2325,-1.2379,-1.2501,-1.2501,-1.2501,-1.2501,-1.2501,-1.2501,-1.2501,-1.2501,-1.2501,-1.2501,-1.2501,-1.2501,-1.2501,-1.2501,-1.2501,-1.2656,-1.3752,-1.406,-1.3898,-1.4661,-1.4968,-1.4968,-1.4968,-1.4968,-1.4968,-0.2514,-0.2514,-0.2668,-0.2967,-0.7989,-1.2102,-1.2508,-1.2501,-1.2501,-1.2501,-1.2501,-1.2501,-1.2501,-1.2501,-1.2501,-1.2501,-1.2501,-1.2501,-1.2501,-1.2501,-1.2501,-1.2501,-1.2481,-1.2406,-1.2422,-1.2265,-1.1898,-1.1619,-1.1619,-1.1619,-1.1619,-1.1619,-1.1619,-1.1619,-1.1332,-1.1325,-1.1325,-1.1325,-1.1325,-1.1325,-1.1476,-1.1619,-1.1619,-1.1619,-1.1619,-1.1619,-1.1619,-1.1619,-1.1619,-1.1619,-1.1619,-1.1619,-1.1619,-1.1619,-1.1619,-1.1619,-1.1619,-1.1619,-1.1619,-1.1619,-1.1619,-1.1619,-1.1619,-1.1619,-1.1619,-1.1619,-1.1619,-1.1619,-1.1619,-1.1619,-1.1619,-1.1619,-1.1619,-1.1619,-1.1619,-1.1619,-1.1619,-1.1728,-1.1803,-1.1803,-1.1918,-1.2006,-1.2026,-1.2047,-1.2115,-1.225,-1.2257,-1.2325,-1.2467,-1.2474,-1.2481,-1.2501,-1.2501,-1.2501,-1.2501,-1.2501,-1.2501,-1.2501,-1.2501,-1.2501,-1.2501,-1.2501,-1.2501,-1.2501,-1.2501,-1.2656,-1.312,-1.3906,-1.4222,-1.4361,-1.4814,-1.4968,-1.4968,-1.4968,-1.4968,-1.4968,-0.2514,-0.2511,-0.3133,-0.5003,-0.9241,-1.2556,-1.2508,-1.2501,-1.2501,-1.2501,-1.2501,-1.2501,-1.2501,-1.2501,-1.2501,-1.2501,-1.2501,-1.2501,-1.2501,-1.2501,-1.2501,-1.2501,-1.2501,-1.2433,-1.2298,-1.2299,-1.2107,-1.159,-1.166,-1.1619,-1.1619,-1.1619,-1.1619,-1.1619,-1.1619,-1.1619,-1.1619,-1.1619,-1.1619,-1.1619,-1.1619,-1.1619,-1.1619,-1.1619,-1.1619,-1.1619,-1.1619,-1.1619,-1.1619,-1.1619,-1.1619,-1.1619,-1.1619,-1.1619,-1.1619,-1.1619,-1.1619,-1.1619,-1.1619,-1.1619,-1.1619,-1.1619,-1.1619,-1.1619,-1.1619,-1.1619,-1.1619,-1.1619,-1.1619,-1.1619,-1.1619,-1.1619,-1.1647,-1.1576,-1.159,-1.1616,-1.1703,-1.177,-1.1811,-1.1959,-1.2094,-1.2189,-1.2189,-1.2264,-1.2338,-1.2406,-1.2406,-1.2433,-1.2501,-1.2501,-1.2501,-1.2501,-1.2501,-1.2501,-1.2501,-1.2501,-1.2501,-1.2501,-1.2501,-1.2501,-1.2501,-1.2501,-1.2501,-1.2501,-1.2501,-1.2656,-1.2811,-1.359,-1.3898,-1.4053,-1.4814,-1.4968,-1.4968,-1.4968,-1.4968,-1.4968]}]]